Date StartTime U_cm/s V_cm/s W_cm/s Ustd_cm/s Vstd_cm/s Wstd_cm/s Uvar_(cm/s)^2 Vvar_(cm/s)^2 Wvar_(cm/s)^2 KE_(m/s)^2 TurbulentKE_(m/s)^2 HorizWindSpeed_cm/s FrictionSpeec_cm/s DragCoef SpeedOfSound_m/s SonicTemperature_C Pressure_mb 
07/26/2014  00:00:00     -101.790      -77.665        2.508      101.914       62.146       49.645    10386.417     3862.110     2464.663        1.655        0.836      128.035       44.524        0.121      346.007       23.943      863.013
07/26/2014  00:01:00     -221.306        4.633      -21.473       70.427       81.394       38.899     4960.021     6625.051     1513.137        3.128        0.655      221.354       34.763        0.025      345.897       23.753      863.045
07/26/2014  00:02:00      -77.767      114.864      -17.963       55.381       62.309       28.753     3067.106     3882.411      826.740        1.367        0.389      138.713       22.578        0.026      346.034       23.991      863.038
07/26/2014  00:03:00     -154.790      -35.192      -17.163       88.338       94.330       46.633     7803.641     8898.172     2174.647        2.218        0.944      158.740       35.678        0.051      346.092       24.090      863.023
07/26/2014  00:04:00     -121.937       70.809       -4.308       91.320      118.499       56.208     8339.384    14042.012     3159.321        2.272        1.277      141.005       67.654        0.230      345.794       23.578      863.038
07/26/2014  00:05:00      -21.637      173.012      -15.255       75.906       51.635       40.716     5761.670     2666.215     1657.824        2.036        0.504      174.359       39.169        0.050      345.631       23.297      863.057
07/26/2014  00:06:00       24.908      159.165      -26.435       56.313       53.379       33.373     3171.183     2849.267     1113.758        1.689        0.357      161.102       32.826        0.042      345.707       23.429      863.046
07/26/2014  00:07:00      -34.626       72.953      -10.152       71.891       91.540       34.960     5168.328     8379.615     1222.225        1.069        0.739       80.753       43.817        0.294      345.824       23.630      863.073
07/26/2014  00:08:00      -75.808       -0.770       -2.960       48.915       23.706       18.715     2392.642      561.987      350.242        0.453        0.165       75.812       21.141        0.078      345.604       23.253      863.075
07/26/2014  00:09:00     -117.541      -40.402       -2.195       48.755       40.429       27.569     2377.051     1634.487      760.044        1.011        0.239      124.291       27.386        0.049      345.583       23.217      863.081
07/26/2014  00:10:00     -102.893      -45.343       -1.320       64.928       33.381       25.594     4215.618     1114.299      655.046        0.931        0.299      112.441       34.836        0.096      345.501       23.075      863.088
07/26/2014  00:11:00      -86.097      -21.578       -6.719       27.013       39.250       13.803      729.716     1540.551      190.516        0.519        0.123       88.759       12.650        0.020      345.717       23.447      863.080
07/26/2014  00:12:00     -104.566        6.043       -9.078       27.049       25.464       16.915      731.637      648.398      286.126        0.636        0.083      104.740       16.476        0.025      345.600       23.246      863.074
07/26/2014  00:13:00     -151.083       32.405      -12.166       33.272       31.116       14.719     1107.007      968.228      216.638        1.316        0.115      154.519       11.642        0.006      345.576       23.205      863.060
07/26/2014  00:14:00     -102.288       51.039      -10.728       41.565       28.643       21.163     1727.632      820.399      447.889        0.809        0.150      114.314       16.411        0.021      345.594       23.235      863.055
07/26/2014  00:15:00      -72.767       31.737      -12.673       42.997       22.947       21.643     1848.775      526.552      468.430        0.465        0.142       79.387       24.726        0.097      345.517       23.103      863.031
07/26/2014  00:16:00      -23.141      -11.524      -13.359       33.136       12.685        9.934     1097.965      160.909       98.694        0.110        0.068       25.852        8.656        0.112      345.700       23.418      863.008
07/26/2014  00:17:00      -87.229       14.825       -2.640       43.433       26.289       13.915     1886.391      691.113      193.628        0.530        0.139       88.480        6.275        0.005      345.763       23.527      863.005
07/26/2014  00:18:00     -157.461       27.124      -14.655       70.961       41.848       25.815     5035.509     1751.274      666.414        1.660        0.373      159.780       30.034        0.035      345.456       22.997      863.027
07/26/2014  00:19:00      -39.447       -2.154       -0.678       24.374       27.273       18.403      594.096      743.823      338.670        0.162        0.084       39.506       12.059        0.093      345.436       22.965      863.022
07/26/2014  00:20:00      -67.609      -41.918        0.368       85.042       22.757       18.900     7232.125      517.893      357.225        0.722        0.405       79.549       28.702        0.130      345.313       22.752      863.011
07/26/2014  00:21:00     -188.784      -15.483      -16.699       33.718       40.363       20.216     1136.923     1629.145      408.705        1.967        0.159      189.418       14.548        0.006      345.285       22.705      863.023
07/26/2014  00:22:00     -107.319       75.181       -6.064       82.537       83.100       38.779     6812.317     6905.553     1503.779        1.621        0.761      131.033       30.764        0.055      345.364       22.841      863.035
07/26/2014  00:23:00      -70.227       27.164       -2.250       57.495       61.452       36.198     3305.637     3776.317     1310.327        0.703        0.420       75.297       34.891        0.215      345.602       23.249      863.007
07/26/2014  00:24:00      -38.232       43.912        1.323       25.620       45.687       23.300      656.379     2087.344      542.894        0.334        0.164       58.223       23.158        0.158      345.557       23.172      863.000
07/26/2014  00:25:00      -42.314       52.041      -11.929       20.585       30.294       12.585      423.758      917.700      158.384        0.307        0.075       67.073       13.729        0.042      345.422       22.942      862.998
07/26/2014  00:26:00      -41.285        0.888       -0.184       17.252       13.640       11.424      297.635      186.037      130.508        0.116        0.031       41.294        9.968        0.058      345.396       22.896      862.988
07/26/2014  00:27:00      -61.494      -28.864       -6.964       38.527       20.760       14.533     1484.319      430.968      211.212        0.339        0.106       67.931       16.951        0.062      345.517       23.102      863.002
07/26/2014  00:28:00      -68.519      -15.511       -1.597       45.312       18.353       18.545     2053.202      336.836      343.900        0.384        0.137       70.252       23.816        0.115      345.618       23.278      863.013
07/26/2014  00:29:00      -54.472       -5.118       -1.830       43.987       28.337       12.364     1934.815      803.013      152.879        0.294        0.145       54.712       20.098        0.135      345.563       23.182      863.016
07/26/2014  00:30:00      -84.041       50.574      -12.306       18.595       28.566       15.371      345.784      816.011      236.263        0.558        0.070       98.085       15.838        0.026      345.572       23.198      863.015
07/26/2014  00:31:00      -49.661        6.160       -6.591       15.226       18.551        8.428      231.828      344.143       71.026        0.160        0.032       50.041        7.345        0.022      345.521       23.111      863.028
07/26/2014  00:32:00     -103.696      -24.820       -7.195       43.180       41.033       17.925     1864.483     1683.709      321.312        0.764        0.193      106.625       14.740        0.019      345.292       22.719      863.054
07/26/2014  00:33:00     -121.150       36.103      -17.174       50.241       82.471       27.475     2524.133     6801.489      754.894        1.318        0.504      126.415       34.967        0.077      345.312       22.751      863.078
07/26/2014  00:34:00      -45.748      118.955      -20.380       78.778      100.223       29.315     6205.913    10044.667      859.360        1.688        0.855      127.449       35.701        0.078      346.161       24.208      863.051
07/26/2014  00:35:00      -68.014       43.848       -2.357       65.377       29.270       31.089     4274.147      856.742      966.513        0.632        0.305       80.923       38.916        0.231      345.663       23.354      863.051
07/26/2014  00:36:00      -66.274        9.298       -6.453       37.231       27.501       12.733     1386.155      756.299      162.129        0.341        0.115       66.923       10.752        0.026      345.221       22.595      863.072
07/26/2014  00:37:00      -26.210      -32.220       -5.653       24.515       22.370       15.732      600.984      500.412      247.497        0.155        0.067       41.534        7.382        0.032      345.083       22.361      863.069
07/26/2014  00:38:00     -159.296      -81.563       -7.989       49.389       37.102       25.056     2439.256     1376.582      627.782        1.827        0.222      178.963       19.026        0.011      345.090       22.372      863.068
07/26/2014  00:39:00     -135.912      -17.633        1.713       62.974       46.816       25.064     3965.708     2191.704      628.214        1.278        0.339      137.051       19.564        0.020      345.167       22.506      863.075
07/26/2014  00:40:00      -61.348       87.024      -17.434       32.398       32.341       18.793     1049.642     1045.967      353.171        0.704        0.122      106.474       14.914        0.020      345.498       23.071      863.070
07/26/2014  00:41:00      -64.223       49.724      -12.086       42.139       45.898       13.564     1775.660     2106.592      183.969        0.540        0.203       81.223       13.690        0.028      345.507       23.087      863.069
07/26/2014  00:42:00      -32.302       28.685       -3.462       24.379       15.083       11.828      594.331      227.493      139.900        0.142        0.048       43.200       15.017        0.121      345.443       22.977      863.063
07/26/2014  00:43:00      -34.443       73.743      -12.297       10.371       10.182        5.896      107.566      103.680       34.757        0.351        0.012       81.390        4.211        0.003      345.701       23.419      863.058
07/26/2014  00:44:00      -54.954       27.666       -9.191       19.735       18.650       11.101      389.477      347.805      123.237        0.237        0.043       61.526        6.796        0.012      345.647       23.328      863.062
07/26/2014  00:45:00      -68.139      -20.272       -4.655       28.458       26.564       17.587      809.861      705.626      309.304        0.345        0.091       71.091       12.308        0.030      345.015       22.244      863.067
07/26/2014  00:46:00     -103.369      -10.527       -0.485       47.336       36.557       22.854     2240.700     1336.449      522.313        0.745        0.205      103.903       19.931        0.037      345.345       22.809      863.056
07/26/2014  00:47:00      -62.391        0.390        2.680       25.569       25.380       16.173      653.782      644.145      261.572        0.273        0.078       62.393       17.113        0.075      345.260       22.663      863.044
07/26/2014  00:48:00      -71.498      -21.992       -5.237       32.034       22.569       13.959     1026.191      509.352      194.856        0.368        0.087       74.804       15.613        0.044      345.170       22.510      863.056
07/26/2014  00:49:00      -44.067      -19.897        4.381       22.148       20.400       12.594      490.519      416.162      158.600        0.171        0.053       48.351        8.720        0.033      345.125       22.432      863.057
07/26/2014  00:50:00      -42.300      -38.192        0.599       17.104       14.963       12.475      292.536      223.906      155.628        0.196        0.034       56.990        9.311        0.027      345.282       22.700      863.049
07/26/2014  00:51:00      -14.634      -25.968        3.854       22.286       22.256       20.645      496.658      495.350      426.225        0.116        0.071       29.807       12.095        0.165      345.269       22.679      863.048
07/26/2014  00:52:00      -35.822       19.860       -1.416       17.405       15.555        8.721      302.927      241.967       76.051        0.115        0.031       40.959        4.715        0.013      344.905       22.058      863.058
07/26/2014  00:53:00      -74.928       19.273       -2.938       20.796       16.732       10.915      432.486      279.944      119.144        0.341        0.042       77.367        9.410        0.015      345.036       22.280      863.078
07/26/2014  00:54:00      -52.579      -14.638       -4.676       14.365       12.055        8.367      206.365      145.329       70.015        0.171        0.021       54.579        5.400        0.010      345.027       22.264      863.087
07/26/2014  00:55:00       -8.393      -23.507        0.780       22.360        7.748        6.929      499.960       60.031       48.011        0.062        0.030       24.961        2.470        0.010      345.089       22.368      863.078
07/26/2014  00:56:00       -1.097      -18.094        1.223        5.882        7.939        5.709       34.601       63.020       32.591        0.023        0.007       18.127        4.671        0.066      345.198       22.558      863.082
07/26/2014  00:57:00        2.851      -36.227        3.730       10.696       18.293       11.106      114.394      334.645      123.353        0.095        0.029       36.339        5.943        0.027      345.181       22.528      863.088
07/26/2014  00:58:00      -50.054      -66.198        4.165       41.462       23.388       18.047     1719.058      546.982      325.680        0.475        0.130       82.991       18.707        0.051      345.577       23.207      863.103
07/26/2014  00:59:00      -45.428      -41.187        3.917       36.395       25.626       18.857     1324.617      656.675      355.591        0.306        0.117       61.319       16.797        0.075      345.404       22.911      863.097
07/26/2014  01:00:00      -38.005      -16.669        8.886       65.987       28.720       22.287     4354.315      824.852      496.692        0.374        0.284       41.500       32.547        0.615      345.035       22.277      863.087
07/26/2014  01:01:00     -159.400       52.837      -12.190       59.136       33.456       28.508     3497.050     1119.294      812.717        1.689        0.271      167.929       29.852        0.032      344.801       21.877      863.110
07/26/2014  01:02:00     -121.792       72.649      -10.022       53.351       43.623       26.797     2846.382     1902.954      718.087        1.284        0.273      141.814       22.094        0.024      345.896       23.754      863.091
07/26/2014  01:03:00     -190.490       18.628      -24.364       64.531       70.723       34.758     4164.314     5001.765     1208.134        2.380        0.519      191.399       31.630        0.027      345.974       23.886      863.082
07/26/2014  01:04:00     -185.810       -9.308      -16.426       48.477       49.757       31.416     2350.005     2475.725      986.995        2.035        0.291      186.043       27.149        0.021      345.572       23.197      863.085
07/26/2014  01:05:00     -153.210      -96.931       -2.421       54.214       45.079       31.759     2939.166     2032.136     1008.631        1.943        0.299      181.298       26.602        0.022      344.981       22.185      863.088
07/26/2014  01:06:00      -78.129      -50.942        3.193       61.806       27.372       20.118     3820.020      749.226      404.729        0.684        0.249       93.270       24.994        0.072      345.233       22.616      863.086
07/26/2014  01:07:00      -71.087      -39.386      -13.674       39.687       34.533       13.577     1575.054     1192.551      184.344        0.487        0.148       81.269        7.859        0.009      345.195       22.552      863.081
07/26/2014  01:08:00      -40.389      -29.784       -4.866       26.072       15.417       10.629      679.727      237.674      112.981        0.179        0.052       50.183       13.422        0.072      345.291       22.716      863.077
07/26/2014  01:09:00      -41.969      -48.857       12.459       42.444       28.170       25.114     1801.477      793.545      630.707        0.376        0.161       64.408       26.837        0.174      345.100       22.390      863.087
07/26/2014  01:10:00      -81.495      -40.224        5.742       49.194       25.485       19.591     2420.013      649.475      383.812        0.587        0.173       90.881       15.603        0.029      345.122       22.427      863.092
07/26/2014  01:11:00      -86.002      -51.332       -0.486       55.933       40.958       22.316     3128.511     1677.590      498.020        0.767        0.265      100.156       21.886        0.048      345.097       22.385      863.095
07/26/2014  01:12:00     -119.097      -87.344        9.406       61.100       46.778       33.242     3733.204     2188.189     1105.000        1.446        0.351      147.692       32.970        0.050      345.222       22.597      863.094
07/26/2014  01:13:00     -137.925      -92.784       -6.477       51.204       50.192       25.881     2621.815     2519.262      669.826        1.674        0.291      166.229       18.061        0.012      345.279       22.695      863.102
07/26/2014  01:14:00     -203.405     -142.785       -6.612       89.773       69.440       38.722     8059.261     4821.926     1499.432        3.809        0.719      248.518       41.931        0.028      345.339       22.794      863.110
07/26/2014  01:15:00     -171.695      -98.807       11.359      112.854       81.397       43.630    12736.029     6625.393     1903.605        3.031        1.063      198.096       51.023        0.066      345.214       22.580      863.120
07/26/2014  01:16:00     -230.722     -146.059       -2.828       78.516       68.896       43.407     6164.797     4746.655     1884.206        4.368        0.640      273.068       39.700        0.021      345.259       22.658      863.118
07/26/2014  01:17:00     -164.994      -71.052       12.230      107.998       68.746       42.143    11663.606     4725.950     1776.006        2.529        0.908      179.643       50.304        0.078      345.139       22.454      863.115
07/26/2014  01:18:00     -277.260     -156.023      -12.889       87.087       74.446       41.993     7584.139     5542.221     1763.373        5.813        0.744      318.145       40.795        0.016      345.245       22.635      863.119
07/26/2014  01:19:00     -243.291     -187.455        4.042      119.567       88.400       60.814    14296.338     7814.533     3698.369        6.007        1.290      307.132       58.022        0.036      345.132       22.438      863.120
07/26/2014  01:20:00     -235.854     -188.946       -9.584      100.635       95.108       54.293    10127.483     9045.507     2947.693        5.677        1.106      302.205       56.220        0.035      345.148       22.467      863.112
07/26/2014  01:21:00     -258.361     -117.677       -3.352      103.694       69.399       41.509    10752.398     4816.184     1722.956        4.895        0.865      283.898       41.065        0.021      345.128       22.433      863.116
07/26/2014  01:22:00      -98.208      -68.502        8.986       90.802       57.757       38.668     8244.985     3335.904     1495.214        1.374        0.654      119.739       47.391        0.157      345.083       22.358      863.122
07/26/2014  01:23:00     -177.298     -102.159        5.693       92.497       66.631       46.315     8555.660     4439.645     2145.036        2.852        0.757      204.624       51.672        0.064      345.144       22.462      863.115
07/26/2014  01:24:00     -161.283      -75.401       -0.230      113.395       73.486       55.095    12858.405     5400.159     3035.473        2.649        1.065      178.038       62.366        0.123      345.106       22.397      863.106
07/26/2014  01:25:00     -172.027      -90.303        4.967      111.047       73.204       48.643    12331.403     5358.860     2366.177        2.891        1.003      194.289       47.686        0.060      345.113       22.410      863.095
07/26/2014  01:26:00     -169.218     -124.498       -6.930      107.414       84.496       54.241    11537.724     7139.527     2942.129        3.290        1.081      210.082       57.596        0.075      345.136       22.448      863.093
07/26/2014  01:27:00     -176.381      -98.038       -7.679       97.764       75.478       48.630     9557.881     5696.978     2364.870        2.920        0.881      201.796       51.561        0.065      345.115       22.412      863.104
07/26/2014  01:28:00     -254.762      -79.222      -13.081       84.023       75.550       37.168     7059.931     5707.762     1381.494        4.275        0.707      266.796       37.168        0.019      345.206       22.566      863.101
07/26/2014  01:29:00     -162.888       -6.071       -2.929       68.256       77.740       30.724     4658.908     6043.456      943.968        1.911        0.582      163.001       22.200        0.019      345.019       22.250      863.102
07/26/2014  01:30:00     -109.654      -17.319        1.793       58.238       62.468       29.676     3391.701     3902.238      880.682        1.025        0.409      111.014       29.950        0.073      344.800       21.876      863.109
07/26/2014  01:31:00     -100.839      -31.525        9.608       68.965       54.758       33.178     4756.135     2998.480     1100.804        1.005        0.443      105.652       36.390        0.119      344.681       21.671      863.128
07/26/2014  01:32:00     -177.755      -12.852      -14.488       57.861       36.578       25.163     3347.937     1337.983      633.176        1.864        0.266      178.219       24.139        0.018      344.593       21.519      863.135
07/26/2014  01:33:00     -111.136      -34.220       -1.782       49.709       41.867       29.932     2471.013     1752.857      895.921        0.932        0.256      116.285       26.954        0.054      344.570       21.483      863.132
07/26/2014  01:34:00     -148.032      -33.054       -2.201       58.673       45.967       29.032     3442.555     2112.986      842.849        1.470        0.320      151.677       32.673        0.046      344.575       21.490      863.138
07/26/2014  01:35:00     -165.479      -17.111       -7.572       65.059       39.237       28.455     4232.708     1539.543      809.693        1.716        0.329      166.362       34.037        0.042      344.552       21.451      863.146
07/26/2014  01:36:00     -142.668      -51.215       -4.878       42.830       31.948       22.143     1834.427     1020.702      490.299        1.317        0.167      151.582       22.679        0.022      344.644       21.608      863.144
07/26/2014  01:37:00     -120.233      -26.957       -0.127       59.461       40.092       26.917     3535.612     1607.386      724.509        1.052        0.293      123.218       24.111        0.038      344.606       21.545      863.155
07/26/2014  01:38:00     -171.037       30.952      -13.490       59.813       41.089       26.373     3577.585     1688.273      695.547        1.818        0.298      173.815       25.937        0.022      344.335       21.079      863.177
07/26/2014  01:39:00     -136.608      -10.645       -7.485       46.321       46.602       18.396     2145.624     2171.758      338.404        1.174        0.233      137.023       17.446        0.016      344.194       20.840      863.195
07/26/2014  01:40:00      -96.658       -5.573        6.340       61.977       53.524       26.387     3841.130     2864.801      696.274        0.841        0.370       96.819       29.571        0.093      344.297       21.016      863.195
07/26/2014  01:41:00     -113.112      -32.994        0.950       53.768       41.898       29.274     2891.002     1755.476      856.967        0.969        0.275      117.825       30.974        0.069      344.385       21.167      863.196
07/26/2014  01:42:00     -134.364       -4.200       -0.056       61.750       49.214       31.241     3813.120     2421.986      975.997        1.264        0.361      134.430       31.659        0.055      344.349       21.105      863.204
07/26/2014  01:43:00     -115.036      -29.505       -3.549       37.837       28.523       24.012     1431.619      813.559      576.560        0.847        0.141      118.759       16.017        0.018      344.268       20.967      863.213
07/26/2014  01:44:00      -94.370       13.923      -12.546       36.749       41.838       18.166     1350.495     1750.423      330.010        0.634        0.172       95.392       18.237        0.037      344.188       20.829      863.221
07/26/2014  01:45:00     -102.843       47.542      -12.172       29.492       29.749       17.997      869.799      885.007      323.889        0.753        0.104      113.300       14.690        0.017      344.040       20.576      863.220
07/26/2014  01:46:00     -125.440      103.966      -21.896       37.093       30.987       22.449     1375.879      960.187      503.951        1.493        0.142      162.924       21.102        0.017      344.064       20.617      863.211
07/26/2014  01:47:00     -121.609      111.959      -36.604       22.806       32.239       19.733      520.122     1039.372      389.410        1.531        0.097      165.298       14.048        0.007      344.101       20.681      863.210
07/26/2014  01:48:00      -89.133       14.569      -12.006       36.789       40.936       18.351     1353.452     1675.748      336.745        0.583        0.168       90.316       18.036        0.040      344.036       20.569      863.215
07/26/2014  01:49:00     -134.436      -42.762       -4.005       41.721       36.154       18.385     1740.610     1307.106      338.014        1.165        0.169      141.073       17.658        0.016      343.930       20.388      863.203
07/26/2014  01:50:00     -127.204       40.291       -6.163       47.385       32.341       20.964     2245.333     1045.936      439.505        1.079        0.187      133.432       19.203        0.021      343.989       20.490      863.196
07/26/2014  01:51:00     -132.089        6.736       -9.146       36.359       52.712       22.371     1321.997     2778.551      500.462        1.109        0.230      132.261       17.150        0.017      344.013       20.531      863.195
07/26/2014  01:52:00     -148.564      -41.056      -21.989       35.848       63.091       25.932     1285.056     3980.510      672.489        1.509        0.297      154.133       20.445        0.018      343.984       20.481      863.185
07/26/2014  01:53:00     -173.540      -45.777      -21.984       48.060       48.059       29.106     2309.720     2309.705      847.140        1.908        0.273      179.476       23.173        0.017      343.971       20.458      863.182
07/26/2014  01:54:00     -147.641      -31.492      -14.532       51.262       65.777       26.896     2627.807     4326.645      723.390        1.534        0.384      150.962       20.823        0.019      343.926       20.381      863.189
07/26/2014  01:55:00     -140.147      -18.323      -14.366       46.856       52.809       26.509     2195.528     2788.813      702.735        1.293        0.284      141.340       17.787        0.016      343.944       20.413      863.170
07/26/2014  01:56:00     -171.949      -84.515       -6.892       70.754       44.665       31.600     5006.180     1994.999      998.539        2.238        0.400      191.597       20.423        0.011      344.329       21.069      863.149
07/26/2014  01:57:00     -204.441      -58.165       -3.917       78.716       49.073       40.417     6196.169     2408.127     1633.517        2.771        0.512      212.555       42.593        0.040      344.674       21.657      863.133
07/26/2014  01:58:00     -156.289      -72.044       -0.126       64.030       54.448       31.729     4099.802     2964.597     1006.742        1.884        0.404      172.094       30.317        0.031      344.540       21.430      863.116
07/26/2014  01:59:00     -160.139      -65.041       -3.467       52.873       48.683       27.321     2795.578     2370.000      746.435        1.790        0.296      172.843       23.564        0.019      344.356       21.116      863.125
07/26/2014  02:00:00     -130.206      -55.603       -2.512       53.499       29.726       24.813     2862.191      883.639      615.702        1.221        0.218      141.582       26.877        0.036      344.330       21.073      863.128
07/26/2014  02:01:00      -88.457      -20.595        3.077       39.090       34.079       19.892     1528.010     1161.392      395.701        0.567        0.154       90.822       18.569        0.042      344.281       20.988      863.111
07/26/2014  02:02:00     -126.903        6.387       -4.984       41.548       29.566       25.093     1726.270      874.155      629.661        0.970        0.162      127.064       23.370        0.034      344.079       20.644      863.123
07/26/2014  02:03:00     -133.186       13.251       -6.344       45.436       33.114       21.141     2064.390     1096.539      446.962        1.078        0.180      133.844       22.911        0.029      344.009       20.524      863.116
07/26/2014  02:04:00     -114.885      -10.392       -6.262       42.290       30.705       19.502     1788.456      942.824      380.342        0.823        0.156      115.354       17.589        0.023      344.011       20.526      863.101
07/26/2014  02:05:00     -102.370      -25.683        0.440       34.528       35.287       18.574     1192.149     1245.145      345.004        0.696        0.139      105.543       16.168        0.023      344.118       20.711      863.093
07/26/2014  02:06:00      -96.126      -21.899        4.440       56.342       37.113       19.816     3174.423     1377.384      392.667        0.734        0.247       98.589       19.767        0.040      344.055       20.602      863.092
07/26/2014  02:07:00     -110.111      -14.189       -4.957       43.633       28.823       16.408     1903.852      830.793      269.211        0.768        0.150      111.022       17.045        0.024      343.929       20.385      863.090
07/26/2014  02:08:00     -140.757      -40.656       -8.748       38.804       48.591       24.318     1505.768     2361.084      591.374        1.300        0.223      146.511       16.079        0.012      343.681       19.962      863.096
07/26/2014  02:09:00     -134.620      -23.150       -0.242       58.788       41.441       28.454     3455.986     1717.320      809.619        1.232        0.299      136.596       31.344        0.053      343.693       19.984      863.101
07/26/2014  02:10:00     -144.427      -38.156        5.132       45.670       40.043       28.841     2085.744     1603.402      831.801        1.343        0.226      149.383       24.082        0.026      343.714       20.020      863.095
07/26/2014  02:11:00     -138.428      -38.077        2.150       51.515       36.763       27.238     2653.826     1351.498      741.905        1.268        0.237      143.570       24.060        0.028      343.783       20.138      863.089
07/26/2014  02:12:00      -98.296      -61.182        1.170       37.240       41.417       24.783     1386.808     1715.335      614.188        0.856        0.186      115.781       19.348        0.028      343.861       20.272      863.088
07/26/2014  02:13:00     -104.154      -36.099        7.309       57.508       54.344       29.701     3307.175     2953.261      882.147        0.967        0.357      110.233       29.706        0.073      344.017       20.538      863.077
07/26/2014  02:14:00     -111.730      -23.778       -4.611       43.912       36.951       26.153     1928.267     1365.391      684.003        0.852        0.199      114.232       25.289        0.049      343.919       20.369      863.088
07/26/2014  02:15:00      -78.948      -37.285        3.072       37.539       27.524       18.543     1409.158      757.546      343.827        0.507        0.126       87.309       15.940        0.033      343.787       20.143      863.111
07/26/2014  02:16:00      -72.245      -37.024       -1.027       39.314       27.157       18.818     1545.615      737.485      354.127        0.461        0.132       81.180       21.295        0.069      343.739       20.062      863.123
07/26/2014  02:17:00     -127.151      -22.672      -13.918       33.238       21.629       19.394     1104.771      467.825      376.118        0.941        0.097      129.156       19.147        0.022      343.841       20.237      863.116
07/26/2014  02:18:00     -115.795      -22.237       -2.757       41.567       36.452       23.659     1727.848     1328.767      559.744        0.876        0.181      117.910       23.706        0.040      343.832       20.222      863.108
07/26/2014  02:19:00     -115.268      -36.418        3.590       42.305       35.720       23.057     1789.681     1275.936      531.645        0.911        0.180      120.884       23.589        0.038      343.823       20.205      863.115
07/26/2014  02:20:00     -134.231      -54.522       -5.414       25.346       31.170       16.056      642.444      971.582      257.782        1.145        0.094      144.882       13.634        0.009      343.737       20.059      863.126
07/26/2014  02:21:00     -120.497      -39.021       -4.345       32.290       38.838       18.256     1042.614     1508.402      333.271        0.947        0.144      126.658       15.245        0.014      343.565       19.767      863.136
07/26/2014  02:22:00     -111.301      -28.864       -4.292       55.621       31.690       20.084     3093.681     1004.255      403.367        0.887        0.225      114.983       28.916        0.063      343.397       19.479      863.143
07/26/2014  02:23:00      -98.107      -38.279       -2.851       32.003       25.135       13.928     1024.203      631.792      193.978        0.647        0.092      105.310       10.510        0.010      343.506       19.665      863.141
07/26/2014  02:24:00     -115.110      -52.749        3.546       41.204       34.333       20.416     1697.799     1178.768      416.802        0.967        0.165      126.620       20.109        0.025      343.564       19.763      863.128
07/26/2014  02:25:00      -93.806      -70.334       -0.974       43.750       30.131       20.155     1914.090      907.867      406.242        0.849        0.161      117.245       18.534        0.025      343.704       20.003      863.131
07/26/2014  02:26:00      -86.507      -32.464        5.464       34.831       33.299       18.185     1213.217     1108.835      330.709        0.561        0.133       92.398       18.100        0.038      343.639       19.891      863.127
07/26/2014  02:27:00     -147.637        4.631       -3.418       52.106       40.948       24.389     2714.984     1676.718      594.814        1.341        0.249      147.709       26.115        0.031      343.629       19.874      863.123
07/26/2014  02:28:00     -174.610      -40.043      -11.585       47.132       48.051       26.872     2221.397     2308.942      722.106        1.874        0.263      179.143       24.314        0.018      343.449       19.567      863.129
07/26/2014  02:29:00     -109.640      -33.428       -2.205       73.692       44.557       26.032     5430.565     1985.332      677.648        1.062        0.405      114.622       31.901        0.077      343.362       19.419      863.137
07/26/2014  02:30:00     -136.062      -51.154      -10.043       31.725       29.568       25.345     1006.464      874.253      642.361        1.188        0.126      145.360       12.118        0.007      343.392       19.471      863.133
07/26/2014  02:31:00     -100.314      -62.306       -9.080       38.602       30.668       25.232     1490.102      940.542      636.675        0.855        0.153      118.089       23.621        0.040      343.300       19.315      863.126
07/26/2014  02:32:00     -164.111       -8.714       -8.178       69.073       34.921       30.895     4771.053     1219.501      954.493        1.701        0.347      164.342       33.805        0.042      343.355       19.405      863.145
07/26/2014  02:33:00     -134.812      -14.870       -5.131       55.819       41.616       31.174     3115.763     1731.888      971.814        1.212        0.291      135.630       31.594        0.054      343.246       19.222      863.152
07/26/2014  02:34:00     -144.657      -38.598       -4.316       57.445       40.261       23.052     3299.907     1620.964      531.404        1.394        0.273      149.718       18.579        0.015      343.239       19.210      863.157
07/26/2014  02:35:00     -120.562      -40.867       -0.305       39.198       38.542       25.204     1536.476     1485.481      635.228        0.993        0.183      127.300       19.062        0.022      343.194       19.134      863.165
07/26/2014  02:36:00     -107.790      -13.909       -0.905       46.945       37.187       18.922     2203.879     1382.886      358.027        0.788        0.197      108.684       19.061        0.031      343.164       19.083      863.167
07/26/2014  02:37:00     -128.144        1.395      -14.663       43.696       33.781       24.123     1909.315     1141.180      581.932        1.013        0.182      128.152       22.473        0.031      343.128       19.022      863.155
07/26/2014  02:38:00     -146.025       12.583      -20.457       44.722       34.686       24.248     2000.068     1203.098      587.966        1.284        0.190      146.567       20.776        0.020      343.124       19.015      863.163
07/26/2014  02:39:00     -170.533        2.172      -17.236       30.637       30.935       20.176      938.605      956.992      407.051        1.584        0.115      170.547       12.342        0.005      343.101       18.976      863.170
07/26/2014  02:40:00     -133.517      -37.751       -4.428       39.362       32.553       24.345     1549.366     1059.711      592.659        1.124        0.160      138.751       20.038        0.021      343.069       18.921      863.165
07/26/2014  02:41:00     -133.970      -32.916       -7.066       42.096       36.610       21.008     1772.039     1340.328      441.334        1.132        0.178      137.955       21.605        0.025      343.066       18.916      863.164
07/26/2014  02:42:00     -139.422      -33.509       -2.326       51.980       35.136       22.422     2701.875     1234.504      502.766        1.250        0.222      143.392       24.592        0.029      343.204       19.151      863.148
07/26/2014  02:43:00     -154.323      -36.003       -6.434       56.070       35.129       27.662     3143.864     1234.019      765.167        1.515        0.257      158.467       28.637        0.033      343.196       19.138      863.129
07/26/2014  02:44:00     -149.112      -56.919       -6.049       64.983       45.479       24.332     4222.849     2068.358      592.068        1.620        0.344      159.606       27.221        0.029      343.168       19.088      863.122
07/26/2014  02:45:00     -166.515      -41.266       -9.975       32.763       45.855       23.645     1073.415     2102.716      559.089        1.663        0.187      171.552       18.226        0.011      343.128       19.022      863.104
07/26/2014  02:46:00     -155.490      -60.381       -6.332       46.434       33.261       27.218     2156.098     1106.309      740.794        1.593        0.200      166.802       27.112        0.026      343.177       19.104      863.089
07/26/2014  02:47:00     -104.775      -65.942       -2.847       46.334       29.553       21.274     2146.823      873.386      452.596        0.940        0.174      123.799       19.200        0.024      343.221       19.179      863.093
07/26/2014  02:48:00     -111.238      -66.176       -0.708       48.099       32.803       29.156     2313.511     1076.044      850.073        1.050        0.212      129.435       28.553        0.049      343.271       19.266      863.089
07/26/2014  02:49:00      -64.742      -46.481       12.377       47.145       51.523       23.011     2222.690     2654.657      529.488        0.595        0.270       79.699       25.279        0.101      343.239       19.210      863.087
07/26/2014  02:50:00      -54.789      -32.722        0.258       38.690       38.906       20.101     1496.945     1513.666      404.043        0.374        0.171       63.817       14.917        0.055      343.213       19.166      863.086
07/26/2014  02:51:00      -99.083      -47.611       -6.681       45.421       34.951       18.596     2063.027     1221.598      345.815        0.788        0.182      109.928       10.047        0.008      343.306       19.325      863.076
07/26/2014  02:52:00     -128.528      -18.356      -10.074       31.587       31.980       19.546      997.722     1022.732      382.048        0.968        0.120      129.832       14.991        0.013      343.268       19.259      863.068
07/26/2014  02:53:00     -163.683      -23.476       -2.021       66.480       43.424       29.065     4419.584     1885.635      844.794        1.725        0.358      165.358       31.340        0.036      343.103       18.980      863.058
07/26/2014  02:54:00     -153.179      -53.984        1.101       72.396       43.934       28.123     5241.127     1930.192      790.918        1.717        0.398      162.414       28.942        0.032      343.130       19.024      863.062
07/26/2014  02:55:00     -176.447      -19.267       -5.134       62.060       46.158       28.708     3851.474     2130.532      824.151        1.917        0.340      177.496       34.003        0.037      343.183       19.112      863.076
07/26/2014  02:56:00     -141.605      -59.405       -8.434       36.151       31.836       22.399     1306.888     1013.507      501.707        1.324        0.141      153.561       15.947        0.011      343.181       19.111      863.086
07/26/2014  02:57:00     -152.333      -95.119       -4.779       63.200       62.920       31.606     3994.219     3958.918      998.914        2.061        0.448      179.591       36.654        0.042      343.213       19.164      863.096
07/26/2014  02:58:00      -86.310      -57.420       -4.516       42.508       53.158       26.170     1806.936     2825.761      684.847        0.804        0.266      103.665       23.242        0.050      343.175       19.102      863.104
07/26/2014  02:59:00      -74.791      -55.199        5.883       55.438       47.363       23.997     3073.349     2243.249      575.846        0.728        0.295       92.955       30.579        0.108      343.167       19.087      863.104
07/26/2014  03:00:00     -118.769      -33.473       -0.483       36.175       39.210       18.807     1308.595     1537.389      353.714        0.921        0.160      123.396       10.020        0.007      343.247       19.224      863.119
07/26/2014  03:01:00     -110.858      -36.807      -10.807       37.703       35.058       25.693     1421.479     1229.094      660.147        0.854        0.166      116.809       24.431        0.044      343.173       19.099      863.136
07/26/2014  03:02:00      -95.387      -29.067       -5.496       41.634       35.742       17.892     1733.375     1277.487      320.128        0.665        0.167       99.718       17.433        0.031      343.146       19.052      863.140
07/26/2014  03:03:00      -90.113      -67.197        1.402       37.709       22.202       20.647     1421.935      492.926      426.303        0.749        0.117      112.409       20.431        0.033      343.169       19.092      863.151
07/26/2014  03:04:00      -91.133      -80.573      -10.959       49.292       36.732       22.805     2429.741     1349.214      520.067        0.961        0.215      121.644       16.867        0.019      343.153       19.064      863.152
07/26/2014  03:05:00      -38.608      -33.051        5.658       43.081       34.232       18.858     1855.931     1171.801      355.634        0.300        0.169       50.823       19.573        0.148      343.156       19.068      863.157
07/26/2014  03:06:00      -63.939      -80.157        6.741       62.787       41.561       30.114     3942.174     1727.350      906.847        0.857        0.329      102.534       39.289        0.147      343.152       19.063      863.158
07/26/2014  03:07:00      -70.889      -87.293       -6.879       48.992       39.435       25.903     2400.227     1555.121      670.986        0.866        0.231      112.451       30.178        0.072      343.151       19.060      863.163
07/26/2014  03:08:00      -83.466      -52.656        1.925       51.383       38.052       30.385     2640.256     1447.965      923.276        0.738        0.251       98.688       30.628        0.096      343.125       19.017      863.164
07/26/2014  03:09:00      -38.100      -49.484       12.482       60.331       44.013       32.765     3639.803     1937.161     1073.542        0.535        0.333       62.452       37.199        0.355      343.165       19.084      863.166
07/26/2014  03:10:00     -113.493      -81.873       -3.327       52.563       37.337       32.262     2762.873     1394.033     1040.866        1.240        0.260      139.943       32.892        0.055      343.199       19.142      863.179
07/26/2014  03:11:00      -78.399      -78.969        5.289       52.187       41.254       24.850     2723.435     1701.913      617.519        0.873        0.252      111.277       24.965        0.050      343.208       19.159      863.178
07/26/2014  03:12:00      -34.799      -41.853        6.069       43.318       28.189       23.162     1876.462      794.614      536.466        0.310        0.160       54.430       22.936        0.178      343.262       19.250      863.178
07/26/2014  03:13:00      -94.829      -72.177        1.540       56.054       37.225       26.239     3142.071     1385.708      688.492        0.971        0.261      119.172       25.162        0.045      343.262       19.251      863.184
07/26/2014  03:14:00     -104.938      -90.176        2.675       48.481       49.117       25.162     2350.429     2412.525      633.132        1.227        0.270      138.361       26.222        0.036      343.217       19.174      863.192
07/26/2014  03:15:00     -114.677      -94.091       -1.494       50.002       36.438       31.528     2500.204     1327.758      993.993        1.341        0.241      148.337       32.229        0.047      343.180       19.109      863.182
07/26/2014  03:16:00      -64.314      -61.193       -2.455       47.792       49.254       28.725     2284.075     2425.947      825.135        0.671        0.277       88.774       20.684        0.054      343.157       19.072      863.175
07/26/2014  03:17:00     -106.435      -47.691       -0.351       29.122       24.403       14.717      848.116      595.526      216.580        0.763        0.083      116.631       13.094        0.013      343.155       19.067      863.188
07/26/2014  03:18:00      -75.012      -25.249       -4.057       30.952       21.374       16.309      958.047      456.829      265.970        0.398        0.084       79.147       15.338        0.038      343.158       19.073      863.193
07/26/2014  03:19:00      -93.237      -45.295        1.066       34.873       20.227       16.286     1216.110      409.132      265.241        0.632        0.095      103.657       13.603        0.017      343.072       18.927      863.200
07/26/2014  03:20:00     -109.466      -46.757        3.388       36.380       34.237       20.918     1323.524     1172.184      437.551        0.856        0.147      119.034       21.495        0.033      343.144       19.049      863.208
07/26/2014  03:21:00     -128.420      -62.600       -5.853       29.747       31.157       17.291      884.871      970.740      298.982        1.130        0.108      142.865       17.142        0.014      343.142       19.046      863.228
07/26/2014  03:22:00      -94.693      -15.896        1.393       36.891       32.897       22.630     1360.928     1082.217      512.095        0.609        0.148       96.018       18.096        0.036      343.043       18.876      863.230
07/26/2014  03:23:00      -75.501      -48.950       -2.924       27.975       26.471       23.109      782.624      700.706      534.048        0.506        0.101       89.981       20.156        0.050      343.113       18.996      863.225
07/26/2014  03:24:00      -75.229      -33.706      -10.934       18.968       24.344       11.384      359.772      592.654      129.606        0.400        0.054       82.434        9.788        0.014      343.136       19.036      863.234
07/26/2014  03:25:00      -72.371      -13.434       -8.013       17.366       17.892       11.958      301.570      320.141      142.996        0.312        0.038       73.607        7.076        0.009      343.098       18.971      863.243
07/26/2014  03:26:00      -85.199      -57.105      -10.611       17.071       14.701       10.679      291.431      216.121      114.045        0.563        0.031      102.566        6.788        0.004      343.156       19.068      863.237
07/26/2014  03:27:00     -105.413      -37.515       -5.638       21.832       18.003       11.096      476.616      324.116      123.111        0.674        0.046      111.890        8.063        0.005      343.120       19.009      863.237
07/26/2014  03:28:00     -114.473      -28.419       -0.612       35.889       26.281       19.526     1288.044      690.666      381.249        0.814        0.118      117.948       20.607        0.031      342.974       18.759      863.231
07/26/2014  03:29:00     -102.512      -35.381        4.375       32.835       21.253       19.173     1078.136      451.707      367.603        0.684        0.095      108.446       20.103        0.034      343.050       18.888      863.226
07/26/2014  03:30:00      -72.807      -42.569        2.049       32.195       27.202       15.906     1036.512      739.965      253.014        0.457        0.101       84.339       13.822        0.027      343.080       18.939      863.223
07/26/2014  03:31:00     -120.732      -65.779       -6.618       26.071       28.409       21.184      679.701      807.089      448.760        1.044        0.097      137.488       16.207        0.014      343.054       18.896      863.220
07/26/2014  03:32:00     -123.507      -46.081       -6.446       26.317       21.322       12.856      692.582      454.609      165.271        0.937        0.066      131.824       12.971        0.010      343.008       18.815      863.217
07/26/2014  03:33:00     -121.825      -62.896       -4.767       20.058       20.057       13.505      402.311      402.275      182.378        0.990        0.049      137.103       12.382        0.008      342.881       18.600      863.224
07/26/2014  03:34:00      -99.575      -25.917       -0.710       28.836       26.649       16.198      831.541      710.156      262.363        0.620        0.090      102.892       13.408        0.017      342.858       18.562      863.230
07/26/2014  03:35:00      -97.848      -31.019        2.201       37.901       30.813       23.088     1436.499      949.449      533.075        0.673        0.146      102.647       21.815        0.045      342.737       18.355      863.236
07/26/2014  03:36:00     -108.170      -22.957       -1.314       36.109       26.708       17.702     1303.838      713.323      313.377        0.728        0.117      110.579       18.959        0.029      342.777       18.423      863.231
07/26/2014  03:37:00     -101.336      -36.317        2.562       42.474       32.314       20.697     1804.049     1044.205      428.348        0.743        0.164      107.647       21.847        0.041      342.750       18.378      863.236
07/26/2014  03:38:00     -113.826      -47.370        2.458       44.100       28.709       21.929     1944.833      824.219      480.870        0.923        0.162      123.290       20.160        0.027      342.836       18.524      863.241
07/26/2014  03:39:00     -131.701      -56.324       -1.968       47.629       24.743       21.813     2268.513      612.199      475.828        1.194        0.168      143.239       19.260        0.018      342.951       18.719      863.254
07/26/2014  03:40:00      -39.436      -53.510        2.845       39.954       33.873       19.211     1596.297     1147.406      369.075        0.377        0.156       66.472       20.232        0.093      342.973       18.757      863.247
07/26/2014  03:41:00      -73.109      -47.405        2.193       35.947       25.659       20.244     1292.172      658.374      409.801        0.498        0.118       87.133       20.508        0.055      342.999       18.803      863.233
07/26/2014  03:42:00      -97.609      -72.143       -4.357       47.139       39.138       19.342     2222.075     1531.817      374.098        0.944        0.206      121.376       20.548        0.029      342.965       18.744      863.223
07/26/2014  03:43:00      -86.260      -86.365        3.797       43.848       30.143       19.966     1922.659      908.607      398.650        0.907        0.161      122.064       22.041        0.033      343.050       18.888      863.221
07/26/2014  03:44:00      -85.221      -51.511        3.766       36.581       39.060       23.936     1338.192     1525.711      572.913        0.668        0.172       99.579       21.487        0.047      342.939       18.700      863.227
07/26/2014  03:45:00      -86.759      -27.247       -0.391       35.128       29.509       17.766     1233.999      870.796      315.644        0.534        0.121       90.937       17.767        0.038      342.762       18.398      863.222
07/26/2014  03:46:00     -104.175      -28.910        0.837       32.645       27.008       18.218     1065.679      729.408      331.901        0.691        0.106      108.112       18.763        0.030      342.785       18.438      863.215
07/26/2014  03:47:00      -72.274      -18.455        1.172       35.881       25.826       15.674     1287.480      666.999      245.689        0.388        0.110       74.593       13.845        0.034      342.663       18.230      863.214
07/26/2014  03:48:00      -93.036      -33.441        1.575       30.229       26.301       15.805      913.774      691.727      249.804        0.582        0.093       98.864       13.867        0.020      342.696       18.285      863.222
07/26/2014  03:49:00     -104.415      -21.471        2.808       36.799       32.747       18.264     1354.177     1072.392      333.578        0.707        0.138      106.600       18.472        0.030      342.659       18.222      863.212
07/26/2014  03:50:00      -87.771      -35.852       -0.153       26.837       25.927       14.125      720.239      672.234      199.515        0.529        0.080       94.811        9.922        0.011      342.632       18.177      863.208
07/26/2014  03:51:00      -96.794      -52.311       -6.526       24.334       26.229       19.046      592.134      687.951      362.744        0.690        0.082      110.025       12.344        0.013      342.661       18.225      863.207
07/26/2014  03:52:00      -34.656      -38.809        1.616       24.241       25.206       16.455      587.648      635.358      270.765        0.210        0.075       52.031       16.682        0.103      342.706       18.302      863.222
07/26/2014  03:53:00      -42.158      -45.864        2.348       35.177       23.219       24.071     1237.416      539.117      579.406        0.312        0.118       62.296       20.739        0.111      342.669       18.241      863.234
07/26/2014  03:54:00      -36.853      -26.250        0.809       34.028       14.740       13.645     1157.887      217.260      186.174        0.180        0.078       45.246       13.952        0.095      342.732       18.347      863.242
07/26/2014  03:55:00      -13.792      -21.599        0.853       21.738       19.923        9.499      472.554      396.910       90.229        0.081        0.048       25.627        7.643        0.089      342.804       18.470      863.249
07/26/2014  03:56:00      -27.749      -39.274        4.882       20.170       17.049       14.867      406.846      290.652      221.030        0.163        0.046       48.088       10.153        0.045      342.828       18.513      863.255
07/26/2014  03:57:00      -19.304      -65.796       -2.709       16.678       14.522       12.559      278.150      210.876      157.725        0.268        0.032       68.569        5.913        0.007      342.892       18.619      863.259
07/26/2014  03:58:00      -35.857      -55.039       -2.609       30.287       25.382       13.086      917.319      644.254      171.248        0.303        0.087       65.689       13.036        0.039      342.890       18.616      863.257
07/26/2014  03:59:00      -68.011      -65.541        6.155       37.817       28.609       19.106     1430.161      818.457      365.049        0.579        0.131       94.452       19.527        0.043      342.777       18.423      863.258
07/26/2014  04:00:00      -79.705      -64.615        2.295       42.572       28.419       25.450     1812.392      807.615      647.689        0.690        0.163      102.606       19.485        0.036      342.782       18.432      863.259
07/26/2014  04:01:00      -99.550     -105.451       -5.390       51.691       35.183       20.260     2671.988     1237.857      410.464        1.269        0.216      145.017       15.922        0.012      342.771       18.412      863.268
07/26/2014  04:02:00      -82.504      -77.808       -6.526       43.565       27.993       27.244     1897.949      783.605      742.249        0.816        0.171      113.406       16.257        0.021      342.638       18.187      863.286
07/26/2014  04:03:00      -47.728      -63.977        9.617       40.945       41.420       27.581     1676.485     1715.642      760.721        0.531        0.208       79.818       17.598        0.049      342.593       18.111      863.284
07/26/2014  04:04:00      -24.945      -73.601        3.341       32.841       45.696       20.387     1078.507     2088.136      415.634        0.482        0.179       77.713       10.685        0.019      342.621       18.158      863.278
07/26/2014  04:05:00      -33.659      -81.035        3.213       27.998       46.714       20.268      783.867     2182.188      410.786        0.554        0.169       87.747       20.028        0.052      342.648       18.205      863.281
07/26/2014  04:06:00      -27.701     -108.589        3.704       34.619       47.050       21.932     1198.503     2213.695      480.993        0.823        0.195      112.067       21.288        0.036      342.611       18.140      863.294
07/26/2014  04:07:00      -44.781      -86.498        1.543       33.933       60.047       25.325     1151.474     3605.674      641.360        0.744        0.270       97.403       27.799        0.081      342.573       18.077      863.289
07/26/2014  04:08:00      -21.937      -36.829       12.142       32.844       35.537       26.326     1078.740     1262.910      693.050        0.251        0.152       42.867       24.760        0.334      342.544       18.028      863.286
07/26/2014  04:09:00      -13.578      -35.793        6.345       26.113       29.769       21.532      681.864      886.197      463.646        0.177        0.102       38.282       15.561        0.165      342.499       17.951      863.300
07/26/2014  04:10:00      -37.623      -82.151       -3.391       34.010       51.850       23.711     1156.684     2688.409      562.189        0.629        0.220       90.357       17.793        0.039      342.527       17.999      863.319
07/26/2014  04:11:00      -50.155      -62.348       -2.842       53.557       38.166       27.353     2868.340     1456.622      748.172        0.574        0.254       80.018       27.290        0.116      342.513       17.977      863.326
07/26/2014  04:12:00      -30.195      -74.030       14.803       53.705       44.582       31.242     2884.274     1987.583      976.078        0.623        0.292       79.951       31.429        0.155      342.423       17.822      863.326
07/26/2014  04:13:00      -46.450      -64.563        4.303       37.992       42.180       19.871     1443.386     1779.156      394.860        0.498        0.181       79.536       19.817        0.062      342.400       17.782      863.318
07/26/2014  04:14:00      -66.586      -70.372        6.295       64.444       33.885       28.764     4152.997     1148.162      827.383        0.778        0.306       96.881       32.021        0.109      342.379       17.748      863.325
07/26/2014  04:15:00      -53.974      -73.866        8.272       54.994       59.399       29.741     3024.287     3528.199      884.513        0.794        0.372       91.484       37.584        0.169      342.290       17.595      863.336
07/26/2014  04:16:00      -78.492      -65.948        0.601       41.996       35.515       26.990     1763.659     1261.335      728.480        0.713        0.188      102.519       22.519        0.048      342.256       17.537      863.339
07/26/2014  04:17:00     -101.067      -85.997       -4.011       65.329       50.084       31.944     4267.939     2508.429     1020.435        1.271        0.390      132.703       34.714        0.068      342.220       17.478      863.348
07/26/2014  04:18:00     -104.624     -112.342       -4.429       40.677       39.684       24.436     1654.612     1574.829      597.099        1.371        0.191      153.515       19.550        0.016      342.208       17.457      863.362
07/26/2014  04:19:00     -102.902      -75.824       -2.024       44.205       42.108       23.505     1954.081     1773.123      552.495        1.031        0.214      127.821       20.932        0.027      342.200       17.443      863.377
07/26/2014  04:20:00     -114.831      -77.103        1.031       51.702       25.925       23.316     2673.134      672.091      543.650        1.151        0.194      138.315       24.323        0.031      342.111       17.292      863.375
07/26/2014  04:21:00     -103.560      -83.596       -4.523       58.053       42.515       24.576     3370.120     1807.542      603.985        1.176        0.289      133.090       28.776        0.047      342.108       17.285      863.381
07/26/2014  04:22:00      -35.506      -56.142       13.073       52.792       35.305       24.120     2786.980     1246.416      581.762        0.460        0.231       66.427       24.225        0.133      342.107       17.285      863.406
07/26/2014  04:23:00     -103.718      -78.984       -5.916       42.287       35.959       23.297     1788.151     1293.077      542.753        1.033        0.181      130.368       16.810        0.017      342.089       17.254      863.413
07/26/2014  04:24:00     -114.183      -53.482        3.398       39.757       42.558       22.199     1580.581     1811.157      492.799        0.990        0.194      126.088       16.777        0.018      342.041       17.171      863.416
07/26/2014  04:25:00     -104.211      -56.615       -2.057       36.708       40.113       19.718     1347.476     1609.016      388.785        0.871        0.167      118.597       17.790        0.023      342.064       17.211      863.424
07/26/2014  04:26:00     -102.906      -65.527       -3.132       41.318       36.644       21.046     1707.156     1342.767      442.940        0.919        0.175      121.998       18.762        0.024      342.078       17.235      863.438
07/26/2014  04:27:00     -116.385      -66.340       -2.677       44.422       52.743       25.433     1973.311     2781.872      646.831        1.168        0.270      133.964       26.785        0.040      342.083       17.245      863.445
07/26/2014  04:28:00     -117.778      -72.053       -2.875       47.785       34.112       22.418     2283.436     1163.634      502.572        1.151        0.197      138.070       24.215        0.031      342.094       17.264      863.457
07/26/2014  04:29:00     -124.339      -63.100        5.515       63.393       45.486       33.620     4018.681     2068.976     1130.286        1.334        0.361      139.433       29.140        0.044      342.014       17.126      863.475
07/26/2014  04:30:00      -95.567      -43.696       -2.240       47.871       36.216       25.686     2291.599     1311.586      659.766        0.765        0.213      105.082       24.637        0.055      341.996       17.096      863.481
07/26/2014  04:31:00      -92.958      -57.442       -3.423       52.635       34.037       26.380     2770.461     1158.546      695.921        0.829        0.231      109.274       24.466        0.050      342.050       17.190      863.482
07/26/2014  04:32:00     -139.047      -84.160      -10.027       43.553       43.455       29.607     1896.874     1888.342      876.569        1.559        0.233      162.533       22.261        0.019      341.957       17.029      863.489
07/26/2014  04:33:00     -104.980      -40.481        2.612       59.032       21.448       23.009     3484.806      460.037      529.415        0.857        0.224      112.514       22.311        0.039      341.927       16.979      863.484
07/26/2014  04:34:00     -112.207      -84.075       -3.798       42.631       52.044       26.735     1817.386     2708.557      714.771        1.246        0.262      140.210       22.043        0.025      341.885       16.908      863.495
07/26/2014  04:35:00      -88.737      -50.358        7.646       60.935       28.130       33.037     3713.135      791.311     1091.472        0.803        0.280      102.030       33.550        0.108      341.845       16.839      863.495
07/26/2014  04:36:00     -105.868      -50.407        0.241       57.243       44.070       28.734     3276.759     1942.158      825.616        0.990        0.302      117.256       24.651        0.044      341.792       16.749      863.481
07/26/2014  04:37:00     -124.076      -75.645        5.253       69.301       48.461       33.620     4802.600     2348.499     1130.301        1.471        0.414      145.317       36.437        0.063      341.740       16.661      863.478
07/26/2014  04:38:00     -169.235      -83.682       -5.601       52.444       39.629       25.793     2750.401     1570.490      665.280        2.033        0.249      188.794       21.901        0.013      341.753       16.683      863.483
07/26/2014  04:39:00     -154.184      -44.954       -7.651       52.341       44.233       24.839     2739.630     1956.542      616.985        1.558        0.266      160.604       19.900        0.015      341.762       16.699      863.474
07/26/2014  04:40:00     -123.991      -27.025        0.311       60.792       42.772       30.574     3695.659     1829.418      934.774        1.128        0.323      126.902       33.113        0.068      341.701       16.597      863.465
07/26/2014  04:41:00     -145.905      -29.938        5.412       62.274       59.177       34.325     3878.079     3501.868     1178.232        1.538        0.428      148.944       28.942        0.038      341.690       16.577      863.466
07/26/2014  04:42:00     -183.040      -38.087       -0.389       64.237       43.879       34.628     4126.436     1925.334     1199.124        2.110        0.363      186.960       33.339        0.032      341.732       16.646      863.455
07/26/2014  04:43:00     -167.157      -56.840      -10.585       53.496       50.001       31.726     2861.843     2500.122     1006.516        1.883        0.318      176.556       33.058        0.035      341.696       16.587      863.436
07/26/2014  04:44:00     -160.931      -61.395       -6.813       39.310       43.914       28.554     1545.240     1928.461      815.333        1.700        0.214      172.244       16.444        0.009      341.647       16.506      863.431
07/26/2014  04:45:00     -137.948      -59.074      -16.842       39.273       30.302       21.951     1542.367      918.184      481.855        1.287        0.147      150.064       11.209        0.006      341.651       16.512      863.414
07/26/2014  04:46:00     -156.340      -15.772      -15.168       36.528       29.242       24.148     1334.315      855.065      583.112        1.385        0.139      157.133       19.151        0.015      341.558       16.355      863.400
07/26/2014  04:47:00     -119.299       -9.911       -8.804       37.826       31.644       19.342     1430.819     1001.319      374.117        0.861        0.140      119.710       17.521        0.021      341.543       16.328      863.401
07/26/2014  04:48:00     -134.013        1.888      -10.537       42.221       24.787       16.764     1782.580      614.401      281.023        1.038        0.134      134.026       20.086        0.022      341.510       16.272      863.397
07/26/2014  04:49:00     -124.499      -21.092      -10.122       45.906       30.674       22.897     2107.385      940.886      524.262        0.981        0.179      126.273       25.910        0.042      341.582       16.395      863.401
07/26/2014  04:50:00     -122.056       18.854       -7.518       37.111       24.058       19.074     1377.252      578.792      363.834        0.881        0.116      123.504       18.266        0.022      341.589       16.406      863.405
07/26/2014  04:51:00     -157.190       29.878      -18.863       38.055       30.689       19.111     1448.167      941.822      365.229        1.436        0.138      160.005       18.888        0.014      341.750       16.680      863.401
07/26/2014  04:52:00      -79.627       -0.800      -14.193       51.609       17.162       17.676     2663.500      294.543      312.426        0.491        0.164       79.631       11.779        0.022      341.640       16.492      863.411
07/26/2014  04:53:00      -38.764       -9.458       -1.024       25.540       28.163       18.589      652.307      793.176      345.562        0.169        0.090       39.901       13.271        0.111      341.691       16.578      863.412
07/26/2014  04:54:00      -71.304      -47.613      -10.865       45.294       23.458       19.329     2051.573      550.274      373.625        0.522        0.149       85.740       11.996        0.020      341.698       16.591      863.411
07/26/2014  04:55:00      -73.549      -33.729        0.006       33.399       20.691       21.203     1115.462      428.097      449.552        0.427        0.100       80.914       18.607        0.053      341.662       16.530      863.425
07/26/2014  04:56:00      -44.216      -29.026       -4.174       22.547       30.207       21.320      508.388      912.446      454.559        0.234        0.094       52.892       14.552        0.076      341.652       16.514      863.431
07/26/2014  04:57:00      -84.553      -52.392       -6.684       26.620       15.340       16.361      708.616      235.326      267.693        0.557        0.061       99.469       15.835        0.025      341.633       16.479      863.426
07/26/2014  04:58:00      -61.526      -37.322        1.525       37.280       29.263       12.815     1389.809      856.348      164.219        0.380        0.121       71.961       12.498        0.030      341.559       16.356      863.441
07/26/2014  04:59:00      -37.169      -12.893        8.383       23.915       14.277       12.537      571.938      203.822      157.175        0.128        0.047       39.341        7.179        0.033      341.571       16.376      863.443
07/26/2014  05:00:00      -30.515      -25.478        5.111       23.882       13.231       16.043      570.354      175.069      257.386        0.130        0.050       39.753       14.659        0.136      341.789       16.746      863.453
07/26/2014  05:01:00      -98.333      -43.456       -0.406       21.204       18.354       18.202      449.612      336.887      331.299        0.634        0.056      107.507       10.747        0.010      341.804       16.771      863.474
07/26/2014  05:02:00      -90.590      -54.835        3.538       32.913       16.201       16.962     1083.250      262.479      287.714        0.643        0.082      105.893       11.917        0.013      341.710       16.612      863.481
07/26/2014  05:03:00      -41.586      -35.748        1.603       47.738       31.348       20.956     2278.892      982.685      439.163        0.335        0.185       54.839       21.937        0.160      341.767       16.709      863.481
07/26/2014  05:04:00      -38.211      -50.831        5.589       44.042       42.231       26.669     1939.694     1783.488      711.212        0.425        0.222       63.592       24.202        0.145      341.780       16.730      863.485
07/26/2014  05:05:00      -42.167      -69.213        9.765       39.451       39.470       21.756     1556.388     1557.919      473.314        0.513        0.179       81.046       17.723        0.048      341.667       16.539      863.487
07/26/2014  05:06:00      -85.694      -38.346        4.233       52.882       41.884       24.327     2796.467     1754.240      591.796        0.699        0.257       93.882       26.084        0.077      341.668       16.541      863.485
07/26/2014  05:07:00     -115.580      -46.877       -3.649       59.828       34.369       30.409     3579.341     1181.222      924.735        1.063        0.284      124.725       30.027        0.058      341.727       16.641      863.484
07/26/2014  05:08:00     -134.285      -50.950       -5.449       43.510       46.571       24.574     1893.158     2168.890      603.899        1.266        0.233      143.626       23.311        0.026      341.738       16.660      863.485
07/26/2014  05:09:00     -117.434      -63.756       -7.797       22.710       42.763       18.675      515.737     1828.669      348.766        1.030        0.135      133.624       15.149        0.013      341.792       16.752      863.489
07/26/2014  05:10:00      -81.077      -27.245        0.432       28.507       26.055       19.676      812.660      678.869      387.164        0.460        0.094       85.533       15.255        0.032      341.739       16.661      863.483
07/26/2014  05:11:00      -78.202      -44.670        1.276       28.052       30.761       16.525      786.899      946.244      273.060        0.506        0.100       90.061       14.199        0.025      341.804       16.769      863.479
07/26/2014  05:12:00      -47.074      -48.896        4.883       25.978       19.711       16.451      674.843      388.543      270.634        0.298        0.067       67.874       13.860        0.042      341.835       16.822      863.480
07/26/2014  05:13:00      -15.313      -54.198       -0.363       21.645       20.301       15.748      468.493      412.130      247.995        0.215        0.056       56.320       13.592        0.058      341.910       16.948      863.467
07/26/2014  05:14:00      -20.942      -22.085       -1.168       26.454       19.513       13.610      699.812      380.741      185.231        0.110        0.063       30.435       10.849        0.127      341.892       16.919      863.459
07/26/2014  05:15:00      -11.140      -34.051       -6.574       12.959       19.434       10.132      167.931      377.668      102.665        0.099        0.032       35.827        9.195        0.066      341.900       16.935      863.456
07/26/2014  05:16:00       -6.535       -8.441        6.543       11.794        8.809        9.165      139.090       77.592       83.989        0.023        0.015       10.675        5.541        0.269      341.793       16.752      863.467
07/26/2014  05:17:00      -25.019      -35.764       -2.583       18.783       15.546       10.148      352.794      241.675      102.977        0.130        0.035       43.647        7.122        0.027      341.893       16.920      863.474
07/26/2014  05:18:00      -52.766       -7.555       -1.531       28.660       24.962       14.303      821.406      623.115      204.587        0.225        0.082       53.305       12.015        0.051      341.795       16.756      863.470
07/26/2014  05:19:00     -101.646      -68.345       -2.769       54.456       34.808       30.757     2965.472     1211.567      946.018        1.007        0.256      122.486       34.497        0.079      341.630       16.476      863.473
07/26/2014  05:20:00     -148.007     -110.020       -8.811       37.323       41.084       26.149     1393.002     1687.911      683.794        1.893        0.188      184.419       21.803        0.014      341.620       16.458      863.471
07/26/2014  05:21:00     -130.829      -79.074       -0.130       47.445       43.417       28.318     2250.988     1885.053      801.919        1.415        0.247      152.869       35.262        0.053      341.588       16.404      863.481
07/26/2014  05:22:00      -54.896      -52.377        9.129       55.542       37.159       22.128     3084.958     1380.788      489.657        0.540        0.248       75.874       20.762        0.075      341.547       16.336      863.481
07/26/2014  05:23:00     -127.947      -62.438       -1.265       33.011       32.849       18.766     1089.746     1079.066      352.181        1.140        0.126      142.369       16.169        0.013      341.628       16.473      863.482
07/26/2014  05:24:00      -64.000      -54.515        2.014       30.165       26.926       19.733      909.957      725.030      389.403        0.455        0.101       84.070       14.005        0.028      341.540       16.323      863.481
07/26/2014  05:25:00      -53.377      -20.299       -6.621       19.189       14.044        9.323      368.232      197.228       86.911        0.198        0.033       57.107        3.763        0.004      341.448       16.168      863.484
07/26/2014  05:26:00      -19.567      -21.276        7.770       18.313       12.894        9.687      335.352      166.260       93.839        0.075        0.030       28.905        6.483        0.050      341.518       16.286      863.488
07/26/2014  05:27:00      -29.294      -24.395        9.297       24.549       16.615       10.659      602.664      276.060      113.615        0.127        0.050       38.122       11.052        0.084      341.512       16.276      863.489
07/26/2014  05:28:00      -46.024      -28.543        7.605       29.665       19.116       13.794      879.997      365.409      190.263        0.221        0.072       54.156       13.696        0.064      341.549       16.339      863.479
07/26/2014  05:29:00      -71.585      -46.092        2.561       42.577       26.201       18.418     1812.768      686.472      339.219        0.505        0.142       85.141       16.012        0.035      341.559       16.355      863.479
07/26/2014  05:30:00      -90.137      -35.976        1.616       40.910       26.459       18.280     1673.662      700.071      334.151        0.606        0.135       97.051       23.195        0.057      341.456       16.180      863.482
07/26/2014  05:31:00     -103.382      -66.766       -1.567       26.296       20.282       16.385      691.492      411.353      268.456        0.826        0.069      123.067       13.785        0.013      341.419       16.119      863.484
07/26/2014  05:32:00     -105.444      -30.383       -3.986       23.600       23.838       13.300      556.980      568.232      176.893        0.668        0.065      109.734        9.514        0.008      341.392       16.072      863.476
07/26/2014  05:33:00     -107.918      -35.767        0.544       28.645       25.682       17.663      820.558      659.562      311.982        0.736        0.090      113.690       14.070        0.015      341.347       15.995      863.462
07/26/2014  05:34:00     -111.065      -45.306        2.761       49.564       32.269       23.477     2456.568     1041.273      551.174        0.922        0.202      119.950       27.788        0.054      341.317       15.947      863.463
07/26/2014  05:35:00     -113.393      -55.180       -0.837       32.205       28.478       19.421     1037.153      810.997      377.158        0.906        0.111      126.107       20.125        0.025      341.293       15.905      863.481
07/26/2014  05:36:00      -89.891      -44.159       10.587       45.012       32.050       20.096     2026.087     1027.197      403.866        0.680        0.173      100.152       21.429        0.046      341.255       15.842      863.509
07/26/2014  05:37:00      -54.237      -36.384        7.862       38.804       26.748       18.314     1505.780      715.456      335.403        0.344        0.128       65.311       18.810        0.083      341.295       15.908      863.537
07/26/2014  05:38:00      -38.721      -47.081        1.998       42.972       23.106       21.012     1846.590      533.886      441.501        0.327        0.141       60.959       21.663        0.126      341.336       15.979      863.562
07/26/2014  05:39:00      -24.098      -35.948        2.393       31.528       21.283       13.392      994.045      452.950      179.358        0.175        0.081       43.278        8.100        0.035      341.395       16.078      863.567
07/26/2014  05:40:00      -61.929      -48.287       -5.355       34.298       22.376       15.917     1176.369      500.684      253.354        0.406        0.097       78.529       13.632        0.030      341.351       16.003      863.563
07/26/2014  05:41:00      -89.271      -41.103       -5.971       15.301       17.832       10.115      234.123      317.993      102.308        0.517        0.033       98.279        3.254        0.001      341.254       15.839      863.572
07/26/2014  05:42:00      -76.321      -49.884       -1.313       31.264       20.821       12.018      977.411      433.495      144.428        0.493        0.078       91.178        8.515        0.009      341.273       15.871      863.598
07/26/2014  05:43:00      -59.375      -40.477        3.019       33.936       21.903       17.280     1151.684      479.721      298.604        0.355        0.097       71.860       15.495        0.046      341.202       15.752      863.630
07/26/2014  05:44:00      -48.176      -42.685        0.158       46.451       25.299       16.780     2157.724      640.038      281.573        0.361        0.154       64.366       23.554        0.134      341.237       15.810      863.644
07/26/2014  05:45:00      -32.404      -30.851        1.949       32.419       22.802       14.241     1050.965      519.936      202.818        0.189        0.089       44.741       12.585        0.079      341.285       15.891      863.650
07/26/2014  05:46:00      -13.816      -41.055        1.728       23.278       16.863       13.871      541.875      284.377      192.414        0.145        0.051       43.317       10.931        0.064      341.360       16.019      863.654
07/26/2014  05:47:00       -1.564      -75.189       -2.186       19.213       20.099       11.850      369.130      403.951      140.421        0.329        0.046       75.206        9.480        0.016      341.492       16.240      863.660
07/26/2014  05:48:00      -27.831      -27.739       -0.663       41.325       21.548       16.853     1707.780      464.312      284.031        0.200        0.123       39.294       13.232        0.113      341.418       16.116      863.660
07/26/2014  05:49:00       -9.242      -15.544       -4.796       13.518       13.630       17.603      182.747      185.777      309.882        0.051        0.034       18.084        8.649        0.229      341.356       16.011      863.660
07/26/2014  05:50:00      -18.120      -32.082       -1.808       20.616       20.667       12.030      425.008      427.129      144.716        0.118        0.050       36.846       12.060        0.107      341.391       16.071      863.658
07/26/2014  05:51:00      -16.083      -18.451       -5.104       27.210       12.283        9.764      740.372      150.875       95.327        0.081        0.049       24.477        5.935        0.059      341.360       16.018      863.656
07/26/2014  05:52:00      -16.901      -19.339        7.314       14.910       10.931        9.930      222.294      119.483       98.601        0.058        0.022       25.683        5.437        0.045      341.428       16.132      863.657
07/26/2014  05:53:00      -39.498      -15.291       -0.459       20.631       15.690        9.330      425.624      246.185       87.040        0.128        0.038       42.354        9.707        0.053      341.521       16.290      863.666
07/26/2014  05:54:00      -51.742      -36.352        4.334       34.733       22.951       20.139     1206.409      526.771      405.579        0.308        0.107       63.235       18.796        0.088      341.443       16.160      863.686
07/26/2014  05:55:00      -36.896      -30.455        1.984       34.810       19.262       18.122     1211.725      371.008      328.423        0.210        0.096       47.842       10.834        0.051      341.335       15.976      863.694
07/26/2014  05:56:00      -79.413      -46.010        0.548       28.924       19.674       18.626      836.593      387.071      346.921        0.500        0.079       91.779       13.581        0.022      341.301       15.918      863.686
07/26/2014  05:57:00      -91.772      -42.813        1.635       27.974       20.855       17.336      782.564      434.940      300.524        0.589        0.076      101.268       14.681        0.021      341.292       15.904      863.676
07/26/2014  05:58:00      -69.336      -46.142        3.362       35.275       21.142       18.751     1244.326      446.976      351.586        0.449        0.102       83.286       19.638        0.056      341.322       15.954      863.685
07/26/2014  05:59:00      -69.354      -52.260       -1.389       29.966       22.485       16.964      897.936      505.559      287.761        0.462        0.085       86.839        9.158        0.011      341.286       15.894      863.688
07/26/2014  06:00:00      -75.803      -51.985        1.547       23.781       18.699       18.972      565.521      349.666      359.927        0.486        0.064       91.916       13.664        0.022      341.290       15.900      863.690
07/26/2014  06:01:00     -100.285       -8.531       -5.711       32.109       18.738       16.790     1031.001      351.099      281.906        0.591        0.083      100.647       18.317        0.033      341.091       15.563      863.696
07/26/2014  06:02:00      -83.067       -1.864       -4.885       29.529       19.910       16.317      871.948      396.423      266.252        0.423        0.077       83.088       18.301        0.049      341.032       15.464      863.696
07/26/2014  06:03:00      -82.155      -15.450       -2.586       38.397       24.495       19.063     1474.325      600.021      363.405        0.472        0.122       83.595       20.476        0.060      341.023       15.449      863.704
07/26/2014  06:04:00      -62.711      -27.315        2.391       31.954       22.428       17.700     1021.049      503.010      313.301        0.326        0.092       68.401       17.077        0.062      341.035       15.469      863.730
07/26/2014  06:05:00      -52.865        4.033       -2.735       15.266       15.935       12.184      233.057      253.911      148.455        0.173        0.032       53.019        7.286        0.019      340.970       15.357      863.741
07/26/2014  06:06:00      -65.029        7.294       -0.360       24.186       11.343       11.832      584.953      128.671      139.997        0.257        0.043       65.437       12.935        0.039      340.962       15.345      863.753
07/26/2014  06:07:00      -66.508       -3.198       -6.207       17.320       12.907       12.053      299.999      166.600      145.274        0.254        0.031       66.585       10.694        0.026      340.987       15.386      863.756
07/26/2014  06:08:00      -69.236        1.515       -0.638       21.368       10.930       11.855      456.593      119.460      140.538        0.276        0.036       69.253       12.466        0.032      340.951       15.324      863.763
07/26/2014  06:09:00      -64.597      -12.655       -5.559       22.962       15.093       11.037      527.235      227.807      121.823        0.262        0.044       65.825       11.883        0.033      340.972       15.362      863.768
07/26/2014  06:10:00      -81.988       -4.594       -8.521       21.317       14.020       11.210      454.410      196.552      125.675        0.380        0.039       82.117        9.043        0.012      341.029       15.458      863.764
07/26/2014  06:11:00      -56.206      -10.276        1.402       31.812       17.024       17.932     1012.017      289.801      321.544        0.244        0.081       57.137       17.451        0.093      340.974       15.363      863.774
07/26/2014  06:12:00      -88.401      -38.264      -13.221       24.253       15.792       11.587      588.229      249.397      134.258        0.521        0.049       96.326        7.607        0.006      341.086       15.554      863.785
07/26/2014  06:13:00      -93.416      -41.658       -9.848       16.790       14.588       10.486      281.909      212.798      109.963        0.558        0.030      102.283        5.543        0.003      341.074       15.535      863.798
07/26/2014  06:14:00      -79.540      -38.515        1.243       15.607       15.809       14.866      243.567      249.932      220.989        0.426        0.036       88.374        8.807        0.010      341.089       15.560      863.804
07/26/2014  06:15:00      -72.490      -43.043       -0.752       18.380       18.375       11.684      337.838      337.637      136.512        0.396        0.041       84.306        8.816        0.011      341.094       15.569      863.807
07/26/2014  06:16:00      -91.201      -38.995       -3.754       19.375       15.248       10.562      375.398      232.507      111.558        0.529        0.036       99.188        9.296        0.009      341.183       15.720      863.809
07/26/2014  06:17:00     -105.285      -31.880       -8.652       19.349       15.832       10.823      374.387      250.658      117.134        0.646        0.037      110.006        5.803        0.003      341.206       15.757      863.813
07/26/2014  06:18:00      -95.272      -35.896       -3.408       21.565       22.154       13.537      465.034      490.799      183.254        0.576        0.057      101.810        9.145        0.008      341.175       15.707      863.822
07/26/2014  06:19:00      -81.467      -20.502       -0.536       30.898       21.064       12.890      954.680      443.708      166.160        0.431        0.078       84.007       12.064        0.021      341.121       15.613      863.843
07/26/2014  06:20:00      -80.566      -20.438       -0.817       23.010       20.579       12.926      529.465      423.504      167.071        0.401        0.056       83.118       12.654        0.023      341.051       15.497      863.845
07/26/2014  06:21:00      -81.512      -36.929       -0.840       27.192       19.136       13.073      739.386      366.171      170.902        0.464        0.064       89.487       11.842        0.018      341.045       15.486      863.851
07/26/2014  06:22:00      -80.886      -38.561        4.734       29.703       20.487       15.696      882.287      419.708      246.365        0.480        0.077       89.607       13.950        0.024      341.072       15.531      863.852
07/26/2014  06:23:00      -75.970      -49.165       -0.723       39.029       23.255       16.004     1523.281      540.776      256.116        0.525        0.116       90.491       14.870        0.027      341.148       15.661      863.851
07/26/2014  06:24:00      -37.806      -23.612        6.889       32.859       23.467       14.484     1079.692      550.711      209.783        0.194        0.092       44.573       16.889        0.144      341.185       15.723      863.848
07/26/2014  06:25:00      -53.509      -37.268        1.044       28.085       14.785       13.037      788.752      218.584      169.970        0.272        0.059       65.208        7.796        0.014      341.170       15.697      863.867
07/26/2014  06:26:00      -47.405      -43.891        0.250       32.464       21.302       14.899     1053.907      453.784      221.983        0.295        0.086       64.604       17.923        0.077      341.214       15.771      863.882
07/26/2014  06:27:00      -86.867      -54.906       -8.896       23.474       20.604       12.299      551.035      424.539      151.275        0.588        0.056      102.765        2.745        0.001      341.126       15.622      863.895
07/26/2014  06:28:00      -93.345      -62.776       -4.946       24.958       27.270       14.606      622.901      743.647      213.338        0.713        0.079      112.491       14.008        0.016      341.123       15.618      863.914
07/26/2014  06:29:00      -92.511      -51.152       -5.979       37.136       28.927       18.821     1379.067      836.765      354.228        0.689        0.129      105.711       17.828        0.028      341.096       15.571      863.921
07/26/2014  06:30:00     -102.903      -34.501       -0.445       30.123       21.893       12.798      907.378      479.286      163.795        0.666        0.078      108.533       12.119        0.012      341.062       15.514      863.928
07/26/2014  06:31:00     -114.305      -31.406       -4.381       32.474       22.719       15.494     1054.566      516.131      240.062        0.794        0.091      118.541       13.136        0.012      341.086       15.557      863.924
07/26/2014  06:32:00     -102.592      -49.602        5.658       39.134       26.309       22.334     1531.448      692.185      498.814        0.787        0.136      113.954       19.049        0.028      341.033       15.464      863.921
07/26/2014  06:33:00     -131.488      -64.514       -3.042       25.332       23.094       15.575      641.716      533.356      242.565        1.144        0.071      146.462       13.927        0.009      341.090       15.562      863.936
07/26/2014  06:34:00     -120.855      -28.767       -4.060       31.066       23.712       18.331      965.127      562.261      336.043        0.866        0.093      124.232       16.602        0.018      341.108       15.594      863.940
07/26/2014  06:35:00     -121.146      -38.926       -9.191       16.217       23.823       15.701      262.977      567.523      246.518        0.868        0.054      127.246       10.225        0.006      341.104       15.586      863.940
07/26/2014  06:36:00     -102.291      -13.202       -4.313       31.657       18.913       17.377     1002.142      357.707      301.973        0.616        0.083      103.140       17.725        0.030      340.990       15.392      863.942
07/26/2014  06:37:00     -115.183      -10.272       -3.778       21.509       18.718       15.821      462.653      350.359      250.309        0.722        0.053      115.641       12.563        0.012      340.954       15.331      863.952
07/26/2014  06:38:00      -83.818      -25.033        1.980       32.603       21.620       13.590     1062.939      467.433      184.684        0.469        0.086       87.477       13.998        0.026      341.030       15.461      863.954
07/26/2014  06:39:00     -120.929      -16.434       -7.826       19.396       16.678       14.255      376.216      278.159      203.201        0.791        0.043      122.041        9.620        0.006      341.076       15.538      863.959
07/26/2014  06:40:00     -108.554      -31.263      -11.055       23.710       20.639       16.410      562.149      425.986      269.295        0.707        0.063      112.966        7.639        0.005      341.154       15.670      863.975
07/26/2014  06:41:00     -109.359      -48.520        2.454       27.855       23.801       13.655      775.873      566.476      186.458        0.792        0.076      119.640        9.857        0.007      341.260       15.850      863.985
07/26/2014  06:42:00     -100.323      -31.022        2.158       36.078       24.947       18.717     1301.625      622.328      350.315        0.665        0.114      105.010       15.734        0.022      341.330       15.967      863.991
07/26/2014  06:43:00      -67.316      -54.075       -0.227       38.018       36.908       17.885     1445.383     1362.237      319.869        0.529        0.156       86.346       21.060        0.059      341.323       15.957      863.996
07/26/2014  06:44:00      -87.995      -53.358        0.189       25.730       28.522       15.695      662.047      813.499      246.347        0.616        0.086      102.909       14.441        0.020      341.311       15.936      863.980
07/26/2014  06:45:00      -79.993      -52.372        5.566       45.785       29.307       19.727     2096.298      858.920      389.158        0.626        0.167       95.613       25.580        0.072      341.393       16.074      863.979
07/26/2014  06:46:00      -40.282      -40.172        9.054       44.338       32.669       20.778     1965.834     1067.282      431.743        0.339        0.173       56.890       22.163        0.152      341.387       16.064      863.971
07/26/2014  06:47:00      -74.666      -73.275        2.996       43.419       33.143       22.081     1885.221     1098.457      487.583        0.721        0.174      104.615       21.340        0.042      341.425       16.128      863.969
07/26/2014  06:48:00      -98.396      -78.066        2.106       48.521       32.345       28.522     2354.272     1046.182      813.479        1.000        0.211      125.602       21.865        0.030      341.373       16.041      863.982
07/26/2014  06:49:00     -107.196      -90.788        3.783       60.813       41.133       27.112     3698.167     1691.885      735.080        1.294        0.306      140.476       26.559        0.036      341.432       16.141      863.985
07/26/2014  06:50:00      -82.494      -82.365       10.670       41.068       56.528       25.433     1686.553     3195.440      646.860        0.961        0.276      116.573       31.658        0.074      341.414       16.111      863.999
07/26/2014  06:51:00      -79.085      -82.189        9.266       49.558       46.832       29.408     2455.994     2193.261      864.841        0.930        0.276      114.059       29.699        0.068      341.433       16.142      864.024
07/26/2014  06:52:00      -86.303     -103.552       -5.695       35.575       49.074       23.930     1265.591     2408.262      572.633        1.122        0.212      134.800       22.094        0.027      341.445       16.162      864.021
07/26/2014  06:53:00      -99.355      -74.541       -0.228       35.316       50.858       19.913     1247.233     2586.528      396.538        0.983        0.212      124.209       21.706        0.031      341.452       16.174      864.041
07/26/2014  06:54:00      -81.338      -58.375        1.926       35.025       33.591       22.616     1226.778     1128.324      511.462        0.645        0.143      100.117       19.559        0.038      341.506       16.265      864.043
07/26/2014  06:55:00      -92.802      -85.122       -9.170       44.374       27.612       22.462     1969.038      762.438      504.541        0.959        0.162      125.928       24.222        0.037      341.548       16.337      864.060
07/26/2014  06:56:00     -106.377      -83.387      -13.161       38.977       39.251       21.778     1519.210     1540.678      474.297        1.099        0.177      135.164       14.912        0.012      341.548       16.337      864.075
07/26/2014  06:57:00      -37.908      -40.923        8.353       65.960       53.640       25.414     4350.715     2877.262      645.864        0.553        0.394       55.782       31.022        0.309      341.610       16.441      864.069
07/26/2014  06:58:00     -107.996      -67.372       -8.738       25.230       37.274       15.035      636.533     1389.382      226.058        0.926        0.113      127.288       13.220        0.011      341.507       16.266      864.068
07/26/2014  06:59:00      -86.767      -30.233        0.321       47.390       26.971       19.779     2245.846      727.429      391.209        0.590        0.168       91.883       23.794        0.067      341.715       16.620      864.055
07/26/2014  07:00:00      -47.523      -38.401        6.955       36.435       36.144       16.314     1327.532     1306.417      266.155        0.334        0.145       61.099       18.194        0.089      341.732       16.650      864.055
07/26/2014  07:01:00      -34.847     -103.011       -0.163       30.525       28.252       21.185      931.760      798.173      448.783        0.700        0.109      108.745       17.344        0.025      341.690       16.579      864.069
07/26/2014  07:02:00      -65.764     -132.619       -6.801       18.710       22.919       15.401      350.067      525.280      237.188        1.154        0.056      148.030       10.577        0.005      341.701       16.598      864.073
07/26/2014  07:03:00      -53.813      -96.367        2.826       43.335       31.299       27.198     1877.930      979.625      739.735        0.789        0.180      110.374       26.153        0.056      341.674       16.551      864.085
07/26/2014  07:04:00      -74.854      -54.019       -2.479       37.573       47.708       23.745     1411.729     2276.096      563.845        0.639        0.213       92.310       26.738        0.084      341.678       16.557      864.078
07/26/2014  07:05:00      -98.156      -32.173       -7.214       25.034       20.455       19.984      626.707      418.391      399.341        0.608        0.072      103.294       12.867        0.016      341.667       16.541      864.068
07/26/2014  07:06:00      -54.854      -56.154        0.709       36.485       34.485       22.923     1331.121     1189.244      525.475        0.460        0.152       78.500       25.759        0.108      341.713       16.617      864.078
07/26/2014  07:07:00      -16.716      -65.197       -5.685       33.089       19.736       17.371     1094.859      389.516      301.767        0.317        0.089       67.305       12.695        0.036      341.726       16.639      864.096
07/26/2014  07:08:00       -8.581      -68.689        3.195       27.687       25.080       20.744      766.551      628.993      430.307        0.331        0.091       69.223       22.407        0.105      341.819       16.797      864.119
07/26/2014  07:09:00      -25.690      -67.285        2.538       18.749       13.009       10.825      351.522      169.238      117.188        0.292        0.032       72.022        8.460        0.014      341.824       16.807      864.150
07/26/2014  07:10:00       -6.676        1.600       30.771       18.998       22.436       11.105      360.919      503.361      123.314        0.099        0.049        6.865        9.404        1.877      342.223       17.481      864.160
07/26/2014  07:11:00       -1.496       16.527       33.072       14.617       32.433       31.246      213.655     1051.908      976.317        0.181        0.112       16.594       24.027        2.096      342.316       17.640      864.178
07/26/2014  07:12:00       -0.649        4.671       38.118       16.854       33.507       22.009      284.067     1122.738      484.379        0.168        0.095        4.716       22.431       22.624      342.388       17.763      864.209
07/26/2014  07:13:00        8.769       -4.520       24.432       21.758       25.015       19.054      473.414      625.740      363.053        0.108        0.073        9.865        9.851        0.997      342.306       17.623      864.227
07/26/2014  07:14:00       15.488      -14.440       20.374       28.512       42.472       22.601      812.949     1803.882      510.813        0.199        0.156       21.175       27.820        1.726      342.208       17.457      864.253
07/26/2014  07:15:00       -8.565       12.669       34.275        6.267       14.666       12.874       39.272      215.095      165.750        0.091        0.021       15.292       11.670        0.582      342.598       18.121      864.276
07/26/2014  07:16:00       -4.918       10.910       13.862       10.658       19.232       16.391      113.589      369.868      268.669        0.054        0.038       11.967        6.623        0.306      342.406       17.794      864.286
07/26/2014  07:17:00       -7.362        0.278        0.063       14.713       11.553       10.337      216.479      133.472      106.854        0.026        0.023        7.368        7.848        1.135      342.255       17.538      864.303
07/26/2014  07:18:00      -26.260       -9.790       -4.975       12.198        9.215        9.938      148.791       84.919       98.758        0.057        0.017       28.026        5.251        0.035      342.014       17.126      864.310
07/26/2014  07:19:00      -43.047      -16.031       -0.451       16.299       11.339        7.596      265.648      128.564       57.697        0.128        0.023       45.935        2.400        0.003      341.975       17.062      864.304
07/26/2014  07:20:00      -34.153      -24.881        0.741       18.176       11.654       13.008      330.374      135.810      169.195        0.121        0.032       42.255       10.584        0.063      342.057       17.201      864.309
07/26/2014  07:21:00      -12.360      -10.419        8.567       27.657       14.800       18.821      764.906      219.041      354.237        0.084        0.067       16.165       18.224        1.271      342.355       17.707      864.304
07/26/2014  07:22:00      -20.919       -6.152       13.316       38.779       19.305       21.316     1503.803      372.668      454.373        0.149        0.117       21.804       24.560        1.269      342.330       17.663      864.290
07/26/2014  07:23:00      -44.663      -25.003        4.333       27.953       28.809       20.306      781.368      829.932      412.334        0.233        0.101       51.185       21.270        0.173      342.017       17.132      864.297
07/26/2014  07:24:00      -37.600      -35.760        8.543       26.865       24.830       17.638      721.739      616.517      311.116        0.221        0.082       51.890       16.625        0.103      342.084       17.245      864.298
07/26/2014  07:25:00      -54.559      -62.729       -2.323       29.052       23.449       15.350      844.031      549.834      235.610        0.427        0.081       83.136       14.651        0.031      341.971       17.051      864.306
07/26/2014  07:26:00      -53.902      -54.263       -4.838       23.238       22.685       18.598      539.989      514.597      345.875        0.364        0.070       76.484       14.951        0.038      341.985       17.078      864.330
07/26/2014  07:27:00      -29.134      -18.911      -16.189       11.904       22.388       13.045      141.705      501.221      170.162        0.114        0.041       34.734       11.993        0.119      342.127       17.319      864.337
07/26/2014  07:28:00      -23.364        4.490        9.135       19.579       19.569       15.495      383.318      382.930      240.106        0.083        0.050       23.792       12.444        0.274      342.232       17.496      864.364
07/26/2014  07:29:00       -0.064       26.771       24.085       19.294       18.616       20.618      372.247      346.560      425.115        0.122        0.057       26.771        9.563        0.128      342.431       17.835      864.382
07/26/2014  07:30:00      -23.392       10.302       14.212       15.548       15.006       10.450      241.746      225.186      109.194        0.072        0.029       25.560        8.778        0.118      342.409       17.798      864.385
07/26/2014  07:31:00      -20.450       -7.313        5.832       22.775       14.870       13.019      518.715      221.109      169.507        0.071        0.045       21.718       10.716        0.243      342.475       17.909      864.408
07/26/2014  07:32:00      -50.795      -28.962       -0.357       21.610       23.026       12.187      467.002      530.202      148.520        0.228        0.057       58.472       10.402        0.032      342.152       17.361      864.414
07/26/2014  07:33:00      -48.467      -14.458       14.313       29.315       22.399       22.366      859.382      501.735      500.247        0.231        0.093       50.577       14.646        0.084      342.341       17.683      864.435
07/26/2014  07:34:00      -61.320      -46.074       -7.471       23.045       30.117       15.101      531.071      907.006      228.043        0.380        0.083       76.701       16.090        0.044      342.193       17.431      864.452
07/26/2014  07:35:00      -40.274      -15.219        6.966       31.664       21.701       20.732     1002.638      470.947      429.823        0.190        0.095       43.054       20.940        0.237      342.414       17.808      864.469
07/26/2014  07:36:00      -34.029       -9.409       17.323       28.118       24.722       15.983      790.602      611.192      255.463        0.160        0.083       35.305       18.647        0.279      342.800       18.465      864.493
07/26/2014  07:37:00      -27.769       -6.231        2.394       10.137       13.433       10.377      102.754      180.434      107.673        0.060        0.020       28.459        6.444        0.051      342.332       17.666      864.503
07/26/2014  07:38:00      -19.523        9.038        8.490       11.570       12.786       14.581      133.876      163.492      212.595        0.052        0.025       21.514        4.912        0.052      342.582       18.092      864.519
07/26/2014  07:39:00      -10.323       27.383        1.092       12.756       15.739       19.295      162.705      247.730      372.294        0.082        0.039       29.264       13.843        0.224      342.578       18.085      864.507
07/26/2014  07:40:00      -36.319        6.473       -3.033       15.295       21.041       13.830      233.951      442.717      191.280        0.112        0.043       36.892       11.537        0.098      342.411       17.802      864.502
07/26/2014  07:41:00      -67.601      -18.029        4.633       20.268       20.418       13.916      410.786      416.874      193.657        0.297        0.051       69.964        8.670        0.015      342.353       17.700      864.486
07/26/2014  07:42:00      -39.756      -23.647        4.030       19.224       20.457       10.673      369.571      418.485      113.921        0.153        0.045       46.257        9.340        0.041      342.379       17.747      864.472
07/26/2014  07:43:00      -36.402      -35.986       -1.327       17.377       20.094       14.369      301.969      403.767      206.467        0.177        0.046       51.187        8.453        0.027      342.374       17.739      864.479
07/26/2014  07:44:00      -35.490      -22.511       -2.207        9.630       16.755        7.506       92.745      280.715       56.339        0.110        0.021       42.028        7.987        0.036      342.389       17.764      864.485
07/26/2014  07:45:00       -9.781      -39.067        5.342       18.084       20.520       16.931      327.014      421.086      286.649        0.134        0.052       40.273        9.093        0.051      342.469       17.900      864.496
07/26/2014  07:46:00       -9.862      -34.436        3.671       11.831       22.411       12.389      139.976      502.260      153.495        0.105        0.040       35.820        3.486        0.009      342.473       17.907      864.504
07/26/2014  07:47:00      -10.305      -35.197        1.380       10.355       10.381       11.262      107.226      107.760      126.839        0.084        0.017       36.675        4.293        0.014      342.406       17.792      864.519
07/26/2014  07:48:00      -15.211        1.926       20.753       13.561       11.833        9.890      183.893      140.026       97.813        0.054        0.021       15.332        7.547        0.242      343.013       18.827      864.535
07/26/2014  07:49:00      -13.272       34.060       42.257       14.477       21.467       20.714      209.592      460.832      429.064        0.211        0.055       36.555       13.784        0.142      343.070       18.922      864.552
07/26/2014  07:50:00      -19.283       -5.436        8.031        9.940        8.980       10.202       98.803       80.644      104.090        0.037        0.014       20.034        5.366        0.072      342.726       18.338      864.565
07/26/2014  07:51:00       -9.275       -0.025       30.777       14.477       31.967       27.820      209.587     1021.887      773.946        0.152        0.100        9.275       28.697        9.572      343.322       19.352      864.568
07/26/2014  07:52:00       15.238      -62.890       10.420       26.732       35.702       28.488      714.574     1274.600      811.585        0.355        0.140       64.709       22.220        0.118      343.056       18.900      864.577
07/26/2014  07:53:00       11.521      -32.345       21.003       20.398       27.190       24.680      416.095      739.319      609.101        0.169        0.088       34.336       20.531        0.358      343.160       19.078      864.582
07/26/2014  07:54:00       -0.324      -34.429       39.151       15.561       35.031       18.300      242.140     1227.167      334.884        0.226        0.090       34.431       14.154        0.169      343.405       19.493      864.598
07/26/2014  07:55:00       -3.756        4.629       44.418       13.571       15.160       12.976      184.173      229.825      168.367        0.130        0.029        5.961        9.868        2.740      343.585       19.799      864.608
07/26/2014  07:56:00      -19.374       -3.812       15.554       15.130       14.859       14.361      228.922      220.792      206.230        0.064        0.033       19.746       12.469        0.399      343.103       18.979      864.618
07/26/2014  07:57:00      -19.038      -16.529       12.490       16.510       15.349       13.727      272.591      235.599      188.422        0.074        0.035       25.212        7.405        0.086      343.060       18.905      864.623
07/26/2014  07:58:00      -22.103       10.586       30.337       16.457       22.590       16.198      270.836      510.287      262.361        0.128        0.052       24.507       15.271        0.388      343.313       19.337      864.623
07/26/2014  07:59:00      -47.281      -19.764       -2.609       25.333       21.210       14.170      641.769      449.863      200.799        0.196        0.065       51.246       15.873        0.096      342.965       18.742      864.626
07/26/2014  08:00:00      -44.406      -19.708        1.137       26.926       16.404       16.152      724.995      269.077      260.899        0.181        0.063       48.583       15.011        0.095      342.869       18.581      864.618
07/26/2014  08:01:00      -33.716       -5.268        0.448       13.676       13.956        9.123      187.030      194.760       83.231        0.081        0.023       34.125        5.316        0.024      342.947       18.713      864.624
07/26/2014  08:02:00      -35.111      -23.937       -0.117       17.045       18.936       16.414      290.524      358.579      269.423        0.136        0.046       42.494       12.859        0.092      343.036       18.865      864.632
07/26/2014  08:03:00      -16.166      -47.799       -2.321       19.123       29.309       18.920      365.680      859.046      357.952        0.207        0.079       50.459       13.313        0.070      343.088       18.954      864.632
07/26/2014  08:04:00      -29.698      -26.047       -0.439       18.513       21.100       11.743      342.728      445.218      137.891        0.124        0.046       39.502       10.605        0.072      343.038       18.868      864.635
07/26/2014  08:05:00      -35.429      -10.892        2.071       16.509       12.632        9.066      272.557      159.575       82.192        0.095        0.026       37.065        7.028        0.036      342.996       18.798      864.639
07/26/2014  08:06:00      -26.066      -20.139       -8.883       12.769       16.106       12.385      163.046      259.391      153.393        0.087        0.029       32.940        8.868        0.072      343.013       18.825      864.646
07/26/2014  08:07:00      -22.985       -7.931       -0.709       13.579       13.784       11.229      184.388      189.995      126.085        0.055        0.025       24.315        6.212        0.065      343.102       18.978      864.640
07/26/2014  08:08:00      -40.596      -21.166       -8.037       23.310       12.701        9.338      543.376      161.309       87.207        0.148        0.040       45.782       10.078        0.048      343.054       18.895      864.651
07/26/2014  08:09:00      -48.585      -37.184        0.998       24.634       31.113       13.687      606.839      968.015      187.326        0.275        0.088       61.181        5.268        0.007      343.081       18.942      864.653
07/26/2014  08:10:00      -49.768      -40.803        1.573       30.028       29.843       17.510      901.674      890.628      306.611        0.312        0.105       64.356        8.912        0.019      343.082       18.943      864.659
07/26/2014  08:11:00      -44.628      -47.936        1.757       29.479       28.411       18.232      869.016      807.208      332.399        0.315        0.100       65.494       15.963        0.059      343.147       19.054      864.662
07/26/2014  08:12:00      -33.490      -60.341       -1.759       14.850       17.157       12.813      220.530      294.357      164.173        0.272        0.034       69.012       10.372        0.023      343.020       18.838      864.666
07/26/2014  08:13:00      -17.987      -14.441        6.137       15.749       28.211       12.557      248.016      795.852      157.671        0.089        0.060       23.067       14.600        0.401      343.425       19.528      864.673
07/26/2014  08:14:00      -21.909      -19.845        7.863       32.190       17.493       18.752     1036.198      305.993      351.642        0.131        0.085       29.561       19.779        0.448      343.312       19.334      864.690
07/26/2014  08:15:00      -16.083      -15.374       -4.991       29.539       16.342        9.754      872.544      267.047       95.145        0.088        0.062       22.249        5.032        0.051      343.350       19.401      864.704
07/26/2014  08:16:00      -26.981      -44.386       -6.718       18.434       31.815       19.474      339.822     1012.163      379.244        0.224        0.087       51.943        7.641        0.022      343.310       19.332      864.716
07/26/2014  08:17:00        4.631      -66.501      -11.670       34.163       40.390       27.005     1167.134     1631.352      729.269        0.405        0.176       66.662       21.138        0.101      343.442       19.558      864.727
07/26/2014  08:18:00      -46.370      -29.705       12.988       49.464       38.618       21.912     2446.686     1491.348      480.147        0.381        0.221       55.069       26.284        0.228      343.388       19.465      864.737
07/26/2014  08:19:00      -64.760      -45.685        3.368       38.251       14.770       17.197     1463.116      218.154      295.733        0.413        0.099       79.252       10.804        0.019      343.137       19.037      864.746
07/26/2014  08:20:00      -56.781      -56.272       -6.574       31.595       30.610       17.691      998.262      936.986      312.972        0.434        0.112       79.941       14.086        0.031      343.148       19.056      864.744
07/26/2014  08:21:00      -45.923      -33.986        2.509       26.062       32.345       19.030      679.216     1046.213      362.123        0.268        0.104       57.131       15.823        0.077      343.134       19.032      864.745
07/26/2014  08:22:00      -54.867      -59.822       -3.092       21.506       30.457       16.994      462.498      927.635      288.782        0.414        0.084       81.173       16.973        0.044      343.107       18.986      864.748
07/26/2014  08:23:00      -58.833      -59.874       -7.617       11.663       30.128       13.255      136.034      907.716      175.704        0.416        0.061       83.942       13.395        0.025      343.129       19.023      864.740
07/26/2014  08:24:00      -42.512        1.638        5.352       27.080       18.249       14.245      733.336      333.026      202.911        0.155        0.063       42.543       14.579        0.117      343.394       19.476      864.747
07/26/2014  08:25:00      -23.571        9.253       18.992       22.120       16.622       21.332      489.285      276.303      455.035        0.111        0.061       25.322       15.628        0.381      344.030       20.561      864.745
07/26/2014  08:26:00      -10.218        5.519       18.750       13.592       15.877       12.912      184.737      252.066      166.710        0.054        0.030       11.613        4.492        0.150      344.174       20.806      864.748
07/26/2014  08:27:00      -10.237        4.469       11.063       14.669       15.355       12.645      215.180      235.769      159.886        0.043        0.031       11.170        2.562        0.053      344.050       20.595      864.766
07/26/2014  08:28:00      -56.514      -27.082       -1.579       29.276       20.118       12.288      857.075      404.719      151.003        0.267        0.071       62.668        5.066        0.007      343.387       19.463      864.772
07/26/2014  08:29:00      -70.564       -8.805       -9.037       17.893       13.147        9.929      320.148      172.837       98.594        0.286        0.030       71.111        6.818        0.009      343.365       19.425      864.780
07/26/2014  08:30:00      -36.906       16.872        3.979       14.182       13.259       19.307      201.123      175.788      372.749        0.121        0.037       40.579        7.711        0.036      343.545       19.732      864.783
07/26/2014  08:31:00       -3.660        2.850       22.890       16.991       10.361       10.723      288.697      107.357      114.991        0.053        0.026        4.639        6.923        2.226      344.219       20.883      864.793
07/26/2014  08:32:00      -20.182       -5.430       14.714       20.466       13.598       17.307      418.837      184.901      299.529        0.078        0.045       20.899       17.249        0.681      343.956       20.434      864.797
07/26/2014  08:33:00      -12.654      -22.937        3.297       17.990       15.460       15.211      323.640      239.016      231.373        0.075        0.040       26.196       12.411        0.224      343.719       20.030      864.794
07/26/2014  08:34:00      -21.305      -30.717        9.187       23.124       24.440       19.347      534.729      597.336      374.289        0.149        0.075       37.383       16.807        0.202      343.801       20.169      864.807
07/26/2014  08:35:00      -15.093      -47.245        0.444       24.071       28.499       21.285      579.407      812.180      453.062        0.215        0.092       49.598       16.638        0.113      343.595       19.817      864.808
07/26/2014  08:36:00      -47.229      -70.869        1.672       23.253       27.292       17.210      540.686      744.871      296.196        0.442        0.079       85.164       11.489        0.018      343.518       19.685      864.828
07/26/2014  08:37:00      -22.634      -62.086       -2.911       19.044       13.897       11.719      362.659      193.125      137.344        0.253        0.035       66.083        7.584        0.013      343.492       19.641      864.837
07/26/2014  08:38:00      -21.428      -15.244       -2.028       11.181       16.569        8.827      125.012      274.520       77.920        0.059        0.024       26.298        7.196        0.075      343.605       19.834      864.839
07/26/2014  08:39:00      -39.980      -51.323        1.115       22.532       17.693       11.225      507.674      313.040      125.999        0.259        0.047       65.057       10.428        0.026      343.515       19.681      864.847
07/26/2014  08:40:00      -38.593      -49.539        8.641       23.308       24.547       13.208      543.240      602.560      174.457        0.267        0.066       62.797       11.289        0.032      343.716       20.024      864.843
07/26/2014  08:41:00      -56.401      -54.952       -4.772       23.403       23.458       14.193      547.705      550.283      201.449        0.376        0.065       78.745       10.496        0.018      343.592       19.812      864.856
07/26/2014  08:42:00      -13.431      -27.592        7.885       17.416       18.492       12.789      303.304      341.950      163.569        0.091        0.040       30.688       13.162        0.184      343.790       20.151      864.877
07/26/2014  08:43:00      -16.746        1.698        3.408       11.371       10.842        9.655      129.307      117.540       93.225        0.032        0.017       16.832        6.354        0.143      343.966       20.451      864.885
07/26/2014  08:44:00      -16.302      -23.341        4.192       17.718       15.014        8.823      313.910      225.427       77.845        0.072        0.031       28.471        6.736        0.056      343.886       20.313      864.894
07/26/2014  08:45:00       -8.048      -35.039        4.248       10.001        8.390       14.375      100.018       70.387      206.648        0.084        0.019       35.952        3.354        0.009      343.677       19.956      864.887
07/26/2014  08:46:00      -27.468      -26.453       15.603       19.072       20.573       14.655      363.745      423.251      214.780        0.135        0.050       38.135       16.982        0.198      343.925       20.380      864.885
07/26/2014  08:47:00      -29.220      -29.140       21.038       24.554       20.164       15.447      602.888      406.570      238.595        0.170        0.062       41.267       11.931        0.084      343.973       20.463      864.882
07/26/2014  08:48:00        2.309       10.403       46.475       25.465       25.271       11.690      648.448      638.615      136.648        0.185        0.071       10.656        6.885        0.417      344.606       21.544      864.875
07/26/2014  08:49:00       -2.951       32.194       56.024       13.362       25.745       18.768      178.550      662.815      352.246        0.269        0.060       32.329       19.092        0.349      344.183       20.822      864.871
07/26/2014  08:50:00      -26.437        2.836       14.090       17.449       17.043       17.163      304.451      290.451      294.579        0.090        0.044       26.588       13.636        0.263      343.989       20.490      864.869
07/26/2014  08:51:00      -42.502       10.297       -1.817       16.662       19.575        9.434      277.612      383.189       88.998        0.133        0.037       43.731        4.325        0.010      343.745       20.072      864.879
07/26/2014  08:52:00      -50.285      -22.824        2.536       24.917       18.628       15.313      620.881      347.000      234.481        0.213        0.060       55.223       11.319        0.042      343.769       20.115      864.889
07/26/2014  08:53:00       -9.605        6.285       16.620       21.658       26.082       19.299      469.066      680.290      372.454        0.096        0.076       11.479       19.217        2.803      344.502       21.366      864.914
07/26/2014  08:54:00      -10.149       -3.207        6.756       14.133        9.983       15.118      199.744       99.651      228.539        0.034        0.026       10.644       10.865        1.042      344.404       21.200      864.934
07/26/2014  08:55:00      -22.812       -0.280        8.882       17.230       19.042       17.938      296.880      362.600      321.756        0.079        0.049       22.813       13.874        0.370      344.360       21.123      864.946
07/26/2014  08:56:00       -8.959        3.965       28.370       14.683       21.875       22.920      215.600      478.523      525.314        0.106        0.061        9.798       16.118        2.706      344.803       21.883      864.967
07/26/2014  08:57:00       -9.289      -17.758       15.636       22.079       30.051       24.874      487.500      903.082      618.737        0.133        0.100       20.041       23.506        1.376      344.590       21.517      864.976
07/26/2014  08:58:00        3.193      -21.692       15.291       22.414       37.750       32.731      502.387     1425.073     1071.286        0.186        0.150       21.926       29.311        1.787      344.647       21.615      864.993
07/26/2014  08:59:00      -10.105       15.575       53.742       11.600       27.661       18.163      134.559      765.128      329.883        0.223        0.061       18.566       19.035        1.051      344.951       22.134      865.013
07/26/2014  09:00:00       -5.548       -9.528       29.612       19.389       32.397       17.048      375.945     1049.545      290.643        0.136        0.086       11.026       10.287        0.870      344.851       21.963      865.015
07/26/2014  09:01:00       -4.240       14.586       48.798       34.275       75.047       38.988     1174.747     5632.062     1520.088        0.547        0.416       15.190       47.949        9.964      344.569       21.481      865.025
07/26/2014  09:02:00        0.835     -104.951      -14.466       44.369       43.537       33.067     1968.641     1895.427     1093.401        0.809        0.248      104.955       24.586        0.055      344.318       21.052      865.040
07/26/2014  09:03:00       28.622        2.371       27.968       37.924       55.859       48.012     1438.208     3120.260     2305.129        0.423        0.343       28.720       41.180        2.056      344.806       21.885      865.038
07/26/2014  09:04:00       28.844       39.765       78.665       54.604       49.020       38.289     2981.606     2402.917     1466.060        0.772        0.343       49.125       44.147        0.808      344.342       21.092      865.041
07/26/2014  09:05:00       68.616       19.297       36.430       52.951       69.135       40.781     2803.804     4779.646     1663.119        0.783        0.462       71.278       43.473        0.372      344.371       21.142      865.051
07/26/2014  09:06:00       89.258     -103.678       -3.902       46.049       43.486       41.912     2120.506     1891.028     1756.651        1.225        0.288      136.807       30.242        0.049      344.371       21.142      865.048
07/26/2014  09:07:00       84.929       16.447       27.352       60.762       95.037       51.440     3691.970     9032.036     2646.048        1.180        0.769       86.507       54.593        0.398      344.341       21.091      865.054
07/26/2014  09:08:00       33.053       41.563       44.865       43.796       29.673       27.745     1918.094      880.481      769.788        0.420        0.178       53.103       25.879        0.237      344.591       21.519      865.058
07/26/2014  09:09:00       14.202       38.183       51.980       26.672       31.304       17.805      711.392      979.965      317.014        0.318        0.100       40.738       10.196        0.063      344.867       21.990      865.045
07/26/2014  09:10:00       12.011       14.701       18.260       24.845       25.315       24.263      617.282      640.868      588.699        0.127        0.092       18.984       13.668        0.518      344.758       21.803      865.036
07/26/2014  09:11:00       25.111      -41.051       13.354       17.427       60.230       17.691      303.710     3627.626      312.986        0.337        0.212       48.122       21.723        0.204      344.525       21.407      865.036
07/26/2014  09:12:00       25.666       19.242       17.264       28.462       24.872       28.269      810.106      618.622      799.112        0.178        0.111       32.078        8.741        0.074      344.841       21.947      865.014
07/26/2014  09:13:00        0.085       63.414       78.192       27.392       35.622       19.651      750.324     1268.935      386.177        0.627        0.120       63.414       10.767        0.029      344.909       22.062      865.012
07/26/2014  09:14:00       31.128      -27.627       27.020       42.573       74.542       57.221     1812.419     5556.547     3274.188        0.655        0.532       41.620       64.534        2.404      344.580       21.499      865.008
07/26/2014  09:15:00      -12.489      -28.740       41.382       21.567       52.328       37.639      465.142     2738.179     1416.713        0.366        0.231       31.336       33.406        1.136      344.907       22.060      864.992
07/26/2014  09:16:00       31.738       77.083       79.611       36.350       40.039       17.790     1321.303     1603.144      316.467        0.826        0.162       83.362       17.602        0.045      344.608       21.548      864.985
07/26/2014  09:17:00       49.378       66.969       67.315       42.968       36.126       32.013     1846.285     1305.117     1024.861        0.781        0.209       83.205       26.437        0.101      344.617       21.564      864.979
07/26/2014  09:18:00       81.398       57.088       35.672       28.230       23.420       29.039      796.910      548.482      843.292        0.667        0.109       99.422       17.184        0.030      344.476       21.322      864.961
07/26/2014  09:19:00       74.993       43.875       12.086       26.929       20.808       22.553      725.190      432.974      508.658        0.468        0.083       86.885       11.475        0.017      344.435       21.252      864.954
07/26/2014  09:20:00       65.455       67.028        7.867       22.735       16.468       21.325      516.859      271.183      454.755        0.504        0.062       93.686       17.394        0.034      344.287       20.999      864.939
07/26/2014  09:21:00       38.770       47.731       10.955       24.817       21.736       25.102      615.898      472.459      630.127        0.281        0.086       61.493        7.855        0.016      344.443       21.266      864.918
07/26/2014  09:22:00       52.393       40.041        4.919       17.559       14.326       18.402      308.328      205.233      338.643        0.261        0.043       65.941       10.351        0.025      344.368       21.135      864.924
07/26/2014  09:23:00       23.381       21.158       15.083       22.535       13.956       20.702      507.805      194.771      428.582        0.118        0.057       31.533       15.305        0.236      344.822       21.912      864.927
07/26/2014  09:24:00       14.902       20.063       21.821       27.144       31.622       18.046      736.814      999.951      325.651        0.158        0.103       24.992       12.382        0.245      345.162       22.495      864.934
07/26/2014  09:25:00       13.802        8.343       32.214       20.016       10.888        9.440      400.658      118.540       89.113        0.095        0.030       16.128        8.811        0.298      345.636       23.308      864.948
07/26/2014  09:26:00      -28.362       13.697       27.867       29.375       22.727       17.494      862.909      516.516      306.032        0.173        0.084       31.496       11.359        0.130      345.056       22.315      864.944
07/26/2014  09:27:00      -12.935       -5.300       17.984       20.811       14.341       19.389      433.117      205.668      375.933        0.077        0.051       13.978       15.811        1.279      345.300       22.732      864.953
07/26/2014  09:28:00      -23.936       24.111        4.081       15.422       20.103       20.368      237.846      404.142      414.841        0.111        0.053       33.975       15.606        0.211      345.184       22.535      864.941
07/26/2014  09:29:00      -31.842       15.289        8.151       17.546       14.283       16.793      307.861      203.990      281.989        0.105        0.040       35.322       13.537        0.147      344.907       22.061      864.940
07/26/2014  09:30:00      -26.830        8.150        7.482       15.567       16.144       15.490      242.318      260.615      239.927        0.079        0.037       28.041        9.796        0.122      345.044       22.294      864.947
07/26/2014  09:31:00      -25.562        9.761        9.490       18.026       10.913       22.188      324.939      119.090      492.290        0.089        0.047       27.362       16.510        0.364      345.252       22.652      864.943
07/26/2014  09:32:00       11.327       11.044       29.014       22.371       20.012       19.827      500.455      400.499      393.128        0.119        0.065       15.820       13.109        0.687      345.698       23.415      864.950
07/26/2014  09:33:00      -24.157      -33.181       11.527       32.654       25.852       28.846     1066.259      668.306      832.076        0.219        0.128       41.043       14.642        0.127      345.035       22.279      864.937
07/26/2014  09:34:00       26.488      -49.608       11.165       42.304       41.523       35.638     1789.595     1724.170     1270.101        0.403        0.239       56.236       30.396        0.292      345.342       22.806      864.941
07/26/2014  09:35:00       12.072       36.275       52.756       25.517       22.578       20.141      651.106      509.756      405.665        0.291        0.078       38.230       14.041        0.135      345.537       23.139      864.933
07/26/2014  09:36:00       -6.395       12.078       22.734       19.684       23.292       17.945      387.473      542.506      322.025        0.098        0.063       13.666        6.545        0.229      345.633       23.303      864.930
07/26/2014  09:37:00      -68.263        4.660       -1.292       31.357       38.514       27.125      983.249     1483.363      735.784        0.394        0.160       68.422       27.557        0.162      345.141       22.460      864.919
07/26/2014  09:38:00      -20.242      -23.824       12.463       51.114       46.168       28.657     2612.669     2131.505      821.247        0.335        0.278       31.262       31.534        1.017      345.428       22.951      864.902
07/26/2014  09:39:00       -4.412       -6.365        0.708       23.701       28.856       22.658      561.736      832.674      513.405        0.098        0.095        7.744       15.835        4.181      345.211       22.579      864.890
07/26/2014  09:40:00       -0.609       -4.038       23.068       17.878       16.525       16.201      319.624      273.067      262.462        0.070        0.043        4.084       12.455        9.301      346.304       24.457      864.874
07/26/2014  09:41:00      -33.210      -37.710        0.716       26.226       18.639       12.030      687.785      347.395      144.728        0.185        0.059       50.249        6.083        0.015      344.939       22.116      864.878
07/26/2014  09:42:00      -51.760      -37.705        6.956       22.412       26.495       29.189      502.308      701.977      851.993        0.310        0.103       64.037       14.014        0.048      344.910       22.065      864.869
07/26/2014  09:43:00       12.184       -7.497       46.300       30.375       51.236       29.537      922.630     2625.092      872.461        0.338        0.221       14.305       15.159        1.123      345.916       23.789      864.868
07/26/2014  09:44:00       26.897       47.830       75.465       44.749       49.163       31.524     2002.509     2417.035      993.771        0.706        0.271       54.874       29.427        0.288      345.700       23.418      864.870
07/26/2014  09:45:00       43.560      -23.633       13.272       34.731       59.090       39.543     1206.236     3491.653     1563.681        0.445        0.313       49.558       38.752        0.611      345.149       22.472      864.876
07/26/2014  09:46:00       67.534       32.983       36.985       34.323       37.085       34.855     1178.102     1375.303     1214.846        0.539        0.188       75.158       13.227        0.031      345.261       22.665      864.877
07/26/2014  09:47:00       21.278        9.574       36.958       31.357       21.660       14.657      983.276      469.170      214.833        0.179        0.083       23.333        6.790        0.085      345.623       23.287      864.871
07/26/2014  09:48:00      -21.668       15.132       -1.439       26.257       20.250       19.648      689.417      410.069      386.055        0.109        0.074       26.429       19.861        0.565      345.471       23.025      864.858
07/26/2014  09:49:00      -30.584       28.472        3.142       21.632       24.036       20.286      467.922      577.736      411.508        0.161        0.073       41.786       17.326        0.172      345.608       23.262      864.853
07/26/2014  09:50:00      -15.770       21.918        9.329       19.210       23.395       22.450      369.027      547.318      504.023        0.112        0.071       27.002       17.289        0.410      346.104       24.112      864.845
07/26/2014  09:51:00        2.984       29.594       25.866       21.256       36.924       22.015      451.802     1363.404      484.677        0.193        0.115       29.744       23.341        0.616      346.388       24.601      864.838
07/26/2014  09:52:00       18.084        9.885       46.966       23.250       19.681       18.032      540.552      387.331      325.166        0.194        0.063       20.609       10.932        0.281      346.364       24.559      864.842
07/26/2014  09:53:00        0.342       41.079       12.628       27.546       37.351       20.968      758.782     1395.093      439.676        0.222        0.130       41.080       17.432        0.180      345.971       23.884      864.839
07/26/2014  09:54:00       15.842       35.157        6.674       38.793       48.015       32.055     1504.918     2305.450     1027.534        0.318        0.242       38.561       17.476        0.205      345.860       23.695      864.848
07/26/2014  09:55:00       23.404       52.625        5.527       21.457       51.733       33.950      460.405     2676.332     1152.601        0.382        0.214       57.595       31.149        0.292      345.821       23.627      864.842
07/26/2014  09:56:00       53.082       38.633       28.493       42.392       33.793       29.156     1797.098     1141.963      850.092        0.445        0.189       65.652       19.384        0.087      345.821       23.626      864.847
07/26/2014  09:57:00       78.615       62.975       12.341       35.492       27.851       29.207     1259.714      775.685      853.022        0.659        0.144      100.728       16.154        0.026      345.592       23.232      864.848
07/26/2014  09:58:00      101.189       45.726        9.777       36.928       36.018       28.773     1363.642     1297.327      827.861        0.796        0.174      111.041       28.133        0.064      345.098       22.386      864.846
07/26/2014  09:59:00        0.053       27.633       35.069       42.006       36.343       26.636     1764.530     1320.848      709.454        0.289        0.190       27.633       25.009        0.819      345.897       23.756      864.846
07/26/2014  10:00:00        8.323       -6.337       25.625       14.786       25.519       15.119      218.620      651.226      228.580        0.093        0.055       10.461       12.651        1.463      346.298       24.446      864.851
07/26/2014  10:01:00       43.608       33.648       24.731       54.542       40.623       27.162     2974.784     1650.189      737.770        0.450        0.268       55.080       21.679        0.155      346.084       24.079      864.853
07/26/2014  10:02:00       60.318       54.481        9.729       34.042       43.223       34.014     1158.835     1868.210     1156.921        0.544        0.209       81.279       26.961        0.110      345.640       23.315      864.850
07/26/2014  10:03:00       34.713       12.182       -4.750       29.674       22.215       14.103      880.562      493.492      198.893        0.147        0.079       36.788       10.483        0.081      345.474       23.029      864.853
07/26/2014  10:04:00       -8.588       50.296        2.253       30.030       24.638       28.445      901.814      607.053      809.124        0.246        0.116       51.024       19.149        0.141      345.861       23.694      864.847
07/26/2014  10:05:00       27.344       43.244       33.555       30.049       26.862       20.887      902.959      721.590      436.253        0.290        0.103       51.163       18.957        0.137      346.514       24.816      864.840
07/26/2014  10:06:00       40.509       29.253       27.698       32.731       31.741       22.347     1071.301     1007.515      499.384        0.292        0.129       49.967        9.335        0.035      346.553       24.884      864.827
07/26/2014  10:07:00       44.038       44.777       30.319       29.995       28.906       36.362      899.725      835.562     1322.180        0.396        0.153       62.804       27.315        0.189      346.047       24.014      864.830
07/26/2014  10:08:00       43.979       58.688       49.405       39.500       34.819       22.150     1560.270     1212.393      490.632        0.554        0.163       73.338       11.123        0.023      346.107       24.118      864.821
07/26/2014  10:09:00       -6.522       37.325       72.985       26.605       50.061       35.043      707.804     2506.136     1228.031        0.560        0.222       37.890       26.652        0.495      346.582       24.933      864.813
07/26/2014  10:10:00      -28.178      -45.655        5.891       32.254       32.749       24.307     1040.328     1072.479      590.814        0.281        0.135       53.651       26.027        0.235      346.124       24.147      864.812
07/26/2014  10:11:00      -43.362      -43.806        0.855       34.754       25.985       16.195     1207.810      675.235      262.291        0.297        0.107       61.638        7.954        0.017      345.988       23.912      864.811
07/26/2014  10:12:00        5.855      -33.744       15.772       33.363       43.872       31.803     1113.107     1924.720     1011.432        0.273        0.202       34.248       24.851        0.527      346.641       25.037      864.803
07/26/2014  10:13:00      -20.213        5.825       35.639       26.646       30.553       30.144      709.993      933.499      908.648        0.213        0.128       21.036       28.565        1.844      346.488       24.772      864.802
07/26/2014  10:14:00       -9.819       -5.859       19.449       38.464       33.029       30.081     1479.514     1090.904      904.885        0.199        0.174       11.434       30.703        7.210      346.124       24.147      864.798
07/26/2014  10:15:00       16.705       50.309       39.571       33.257       32.000       29.349     1106.037     1023.995      861.368        0.368        0.150       53.010       18.110        0.117      346.186       24.253      864.795
07/26/2014  10:16:00       39.506      -50.901        3.010       37.461       63.719       24.285     1403.343     4060.174      589.764        0.511        0.303       64.433       18.684        0.084      345.996       23.925      864.798
07/26/2014  10:17:00        3.845      -20.617       10.438       42.136       39.340       21.585     1775.415     1547.613      465.900        0.217        0.189       20.972       14.137        0.454      346.266       24.392      864.803
07/26/2014  10:18:00        0.908        3.099       10.913       22.080       14.848       20.186      487.508      220.462      407.483        0.062        0.056        3.229       11.921       13.630      346.849       25.394      864.802
07/26/2014  10:19:00      -45.318      -45.186        2.306       34.174       22.347       18.470     1167.869      499.396      341.134        0.305        0.100       63.996       15.727        0.060      346.180       24.242      864.810
07/26/2014  10:20:00      -64.711      -51.481       -2.995       17.973       23.745       16.150      323.036      563.808      260.828        0.400        0.057       82.691       13.605        0.027      345.863       23.698      864.814
07/26/2014  10:21:00      -36.663      -18.004        1.819       17.417       13.088       11.997      303.337      171.306      143.936        0.114        0.031       40.845        7.719        0.036      346.090       24.089      864.821
07/26/2014  10:22:00      -17.889        2.637       39.579       29.304       28.052       16.342      858.751      786.920      267.046        0.190        0.096       18.083       14.250        0.621      347.167       25.941      864.822
07/26/2014  10:23:00       11.435       38.512       48.304       28.511       25.009       23.683      812.872      625.456      560.874        0.297        0.100       40.174        9.542        0.056      346.827       25.355      864.829
07/26/2014  10:24:00       -5.780       21.713       57.879       15.758       22.897       18.665      248.328      524.263      348.389        0.249        0.056       22.469       13.887        0.382      347.295       26.161      864.835
07/26/2014  10:25:00       -2.500       23.215       30.998       19.954       39.690       30.353      398.170     1575.272      921.289        0.220        0.145       23.350       16.575        0.504      347.322       26.207      864.833
07/26/2014  10:26:00       15.653       52.418       69.012       36.442       39.520       30.830     1328.035     1561.818      950.460        0.580        0.192       54.705       23.885        0.191      347.193       25.985      864.839
07/26/2014  10:27:00       35.317       45.720       31.345       44.365       32.857       36.916     1968.223     1079.569     1362.784        0.436        0.221       57.772       26.150        0.205      346.849       25.393      864.841
07/26/2014  10:28:00       -0.849      -25.554       36.157       37.856       48.634       26.482     1433.102     2365.223      701.292        0.323        0.225       25.568       21.897        0.733      347.225       26.041      864.831
07/26/2014  10:29:00       11.719       19.692       68.993       45.021       52.922       32.317     2026.934     2800.757     1044.410        0.558        0.294       22.915       36.448        2.530      347.103       25.832      864.832
07/26/2014  10:30:00       67.600       71.948       68.151       41.340       33.507       35.577     1708.992     1122.708     1265.728        0.924        0.205       98.723       21.476        0.047      346.476       24.752      864.833
07/26/2014  10:31:00       41.184       17.918       33.967       35.871       39.001       25.719     1286.738     1521.086      661.469        0.332        0.173       44.913       23.804        0.281      346.806       25.320      864.831
07/26/2014  10:32:00       44.847      -53.564        5.471       33.245       22.732       17.685     1105.252      516.733      312.763        0.342        0.097       69.860       14.496        0.043      346.249       24.361      864.831
07/26/2014  10:33:00       16.677       -8.135       33.376       27.703       66.143       29.600      767.461     4374.890      876.167        0.374        0.301       18.556       34.904        3.538      346.638       25.032      864.816
07/26/2014  10:34:00       54.145       47.314       58.138       36.808       34.249       39.702     1354.824     1173.004     1576.265        0.633        0.205       71.904       19.666        0.075      346.719       25.169      864.815
07/26/2014  10:35:00       32.024       62.354       66.101       39.599       37.181       39.048     1568.046     1382.461     1524.745        0.688        0.224       70.096       27.178        0.150      346.865       25.420      864.819
07/26/2014  10:36:00       14.287      -24.346       -7.906       35.021       70.849       27.435     1226.436     5019.585      752.678        0.393        0.350       28.229       14.948        0.280      346.624       25.005      864.824
07/26/2014  10:37:00       11.438      -55.701       13.584       31.335       40.848       30.803      981.860     1668.566      948.807        0.351        0.180       56.863       24.878        0.191      346.979       25.617      864.808
07/26/2014  10:38:00        2.432       -0.888       37.993       28.536       56.314       40.035      814.316     3171.272     1602.790        0.352        0.279        2.589       34.948      182.171      347.608       26.701      864.803
07/26/2014  10:39:00       -5.455        6.605       37.484       35.781       46.679       33.721     1280.246     2178.909     1137.107        0.304        0.230        8.567       10.186        1.414      347.576       26.646      864.805
07/26/2014  10:40:00      -16.369     -104.657      -14.729       39.717       44.693       36.286     1577.467     1997.492     1316.668        0.816        0.245      105.930       21.146        0.040      346.887       25.458      864.809
07/26/2014  10:41:00      -20.442      -39.138       34.400       26.319       61.875       34.930      692.696     3828.486     1220.070        0.444        0.287       44.155       36.947        0.700      347.315       26.197      864.812
07/26/2014  10:42:00       -4.580       25.132       62.365       15.859       28.209       17.304      251.498      795.741      299.426        0.294        0.067       25.546       15.130        0.351      347.340       26.239      864.811
07/26/2014  10:43:00      -48.613       15.356       35.580       41.436       38.133       37.178     1716.927     1454.135     1382.197        0.421        0.228       50.980       38.421        0.568      347.135       25.886      864.813
07/26/2014  10:44:00     -103.278        7.303       -1.483       30.295       42.776       22.369      917.761     1829.780      500.365        0.698        0.162      103.536        8.956        0.007      346.507       24.804      864.812
07/26/2014  10:45:00     -121.883      -49.115       -8.450       22.274       32.481       23.694      496.120     1055.032      561.401        0.973        0.106      131.407       15.438        0.014      346.509       24.809      864.813
07/26/2014  10:46:00      -89.594       -8.029       -4.392       21.952       13.741       12.537      481.905      188.810      157.187        0.447        0.041       89.953       10.532        0.014      346.334       24.506      864.818
07/26/2014  10:47:00       -0.072       15.399       25.344       21.048       17.997       17.072      443.005      323.876      291.441        0.097        0.053       15.399       15.171        0.971      347.668       26.805      864.805
07/26/2014  10:48:00        6.268        6.086       41.709       18.674       14.452       17.526      348.708      208.872      307.152        0.134        0.043        8.737        7.265        0.691      348.036       27.440      864.789
07/26/2014  10:49:00        3.445        7.193       33.958       15.436       18.262       14.575      238.272      333.509      212.443        0.100        0.039        7.976        9.090        1.299      348.082       27.519      864.782
07/26/2014  10:50:00      -31.070       13.296       27.399       23.289       11.857       17.733      542.355      140.578      314.454        0.144        0.050       33.795       16.607        0.241      347.197       25.992      864.769
07/26/2014  10:51:00      -23.473       -4.500       -2.353       21.294       18.473       15.670      453.445      341.251      245.543        0.081        0.052       23.901       11.125        0.217      347.156       25.922      864.768
07/26/2014  10:52:00      -14.445       -8.151       23.610       11.781       34.973       23.858      138.794     1223.079      569.197        0.138        0.097       16.586       22.235        1.797      347.306       26.181      864.767
07/26/2014  10:53:00       21.937       59.775       74.942       45.184       41.630       40.537     2041.623     1733.065     1643.213        0.754        0.271       63.673       33.698        0.280      347.733       26.916      864.757
07/26/2014  10:54:00       30.473       31.713       65.962       80.658       38.926       37.229     6505.746     1515.260     1385.998        0.784        0.470       43.981       31.776        0.522      347.896       27.198      864.744
07/26/2014  10:55:00       37.745       93.890       93.610       57.371       55.622       53.373     3291.485     3093.842     2848.699        1.412        0.462      101.193       40.528        0.160      347.385       26.317      864.735
07/26/2014  10:56:00       93.066       78.651       25.296       46.923       64.206       39.841     2201.758     4122.424     1587.342        1.170        0.396      121.850       22.486        0.034      346.997       25.647      864.723
07/26/2014  10:57:00       58.941       55.969       15.814       26.563       23.693       29.687      705.568      561.369      881.288        0.450        0.107       81.281        7.903        0.009      347.025       25.696      864.702
07/26/2014  10:58:00       38.769       48.711       46.997       43.651       47.724       34.402     1905.384     2277.590     1183.490        0.572        0.268       62.256       20.435        0.108      347.733       26.917      864.679
07/26/2014  10:59:00       56.246      -52.793       37.032       66.791       50.301       36.919     4461.055     2530.166     1362.992        0.784        0.418       77.141       31.613        0.168      347.414       26.367      864.673
07/26/2014  11:00:00       82.785      -12.529       22.169       56.505       61.171       37.128     3192.765     3741.889     1378.513        0.791        0.416       83.728       24.398        0.085      347.352       26.261      864.655
07/26/2014  11:01:00        6.071        9.966       48.431       25.393       47.683       31.660      644.792     2273.636     1002.348        0.320        0.196       11.669       28.897        6.132      348.005       27.385      864.646
07/26/2014  11:02:00       13.321       66.433       20.373       47.287       50.114       36.638     2236.020     2511.446     1342.355        0.555        0.304       67.756       23.678        0.122      347.770       26.981      864.634
07/26/2014  11:03:00       79.138       65.717        6.576       41.516       42.579       28.473     1723.612     1812.965      810.702        0.749        0.217      102.867       26.751        0.068      347.269       26.118      864.632
07/26/2014  11:04:00        0.364       61.538        7.704       25.393       44.680       30.925      644.816     1996.258      956.341        0.372        0.180       61.539       26.746        0.189      347.643       26.762      864.615
07/26/2014  11:05:00       48.458       66.684       -2.909       31.894       38.343       32.198     1017.230     1470.206     1036.725        0.516        0.176       82.431        6.883        0.007      347.664       26.797      864.607
07/26/2014  11:06:00       49.088       52.313       16.147       44.373       38.893       32.584     1968.987     1512.697     1061.746        0.497        0.227       71.738       29.055        0.164      348.171       27.673      864.598
07/26/2014  11:07:00       40.117       56.805       75.733       56.025       63.493       45.623     3138.773     4031.393     2081.495        0.991        0.463       69.543       37.409        0.289      347.859       27.134      864.593
07/26/2014  11:08:00       87.391       45.217       48.304       52.986       44.782       46.786     2807.499     2005.426     2188.967        0.951        0.350       98.396       30.910        0.099      347.445       26.420      864.587
07/26/2014  11:09:00       83.054       44.061       52.550       56.404       40.493       35.938     3181.439     1639.665     1291.562        0.886        0.306       94.018       32.138        0.117      347.549       26.598      864.576
07/26/2014  11:10:00      129.236       70.227       47.069       61.371       56.371       43.717     3766.343     3177.665     1911.157        1.635        0.443      147.084       36.906        0.063      347.314       26.193      864.554
07/26/2014  11:11:00      125.103       75.700       31.394       38.548       34.558       43.196     1485.930     1194.242     1865.926        1.346        0.227      146.223       26.598        0.033      347.262       26.104      864.553
07/26/2014  11:12:00       33.888       37.062       32.488       50.695       23.673       28.595     2570.002      560.411      817.697        0.376        0.197       50.220       16.603        0.109      347.679       26.823      864.541
07/26/2014  11:13:00       77.177       63.726       31.909       67.028       42.140       45.369     4492.818     1775.792     2058.356        0.968        0.416      100.086       20.487        0.042      347.838       27.096      864.541
07/26/2014  11:14:00       46.294       49.065       26.310       58.747       43.217       41.905     3451.208     1867.690     1756.029        0.616        0.354       67.457       37.830        0.314      348.128       27.599      864.524
07/26/2014  11:15:00        6.477       37.789       61.618       31.559       52.955       34.432      995.954     2804.189     1185.557        0.513        0.249       38.341       32.681        0.727      348.585       28.389      864.520
07/26/2014  11:16:00        1.087       45.308       67.879       37.558       42.962       34.464     1410.640     1845.693     1187.767        0.555        0.222       45.321       27.307        0.363      348.457       28.167      864.517
07/26/2014  11:17:00       41.300      -52.955        6.365       40.705       75.113       34.701     1656.895     5641.958     1204.175        0.653        0.425       67.156       24.744        0.136      347.570       26.635      864.519
07/26/2014  11:18:00        0.520       13.079       39.167       52.341       58.340       36.144     2739.607     3403.547     1306.394        0.458        0.372       13.089       39.895        9.290      348.047       27.458      864.503
07/26/2014  11:19:00       75.520       72.399       38.792       65.137       43.303       40.716     4242.796     1875.159     1657.807        1.011        0.389      104.618       34.302        0.108      348.087       27.527      864.502
07/26/2014  11:20:00      168.752       88.523        5.820       54.657       42.665       44.202     2987.376     1820.282     1953.813        2.155        0.338      190.561       27.764        0.021      347.802       27.034      864.498
07/26/2014  11:21:00       85.358       40.937       27.294       82.067       57.450       43.099     6735.074     3300.465     1857.484        1.080        0.595       94.667       44.241        0.218      348.009       27.393      864.487
07/26/2014  11:22:00       28.658       60.386        4.871       63.168       67.730       34.546     3990.139     4587.304     1193.451        0.713        0.489       66.841       36.079        0.291      348.162       27.658      864.485
07/26/2014  11:23:00       59.625       81.101        9.854       64.803       75.632       51.396     4199.492     5720.242     2641.574        1.139        0.628      100.660       49.420        0.241      348.044       27.453      864.474
07/26/2014  11:24:00      120.833       88.699        9.067       59.432       45.164       46.595     3532.170     2039.787     2171.083        1.515        0.387      149.894       25.727        0.029      347.664       26.798      864.474
07/26/2014  11:25:00       89.520       52.811       25.375       66.311       47.678       28.061     4397.092     2273.224      787.428        0.945        0.373      103.937       21.321        0.042      347.772       26.984      864.451
07/26/2014  11:26:00        0.708       -3.163       39.564       26.155       25.886       17.549      684.087      670.083      307.980        0.162        0.083        3.241       12.502       14.881      348.680       28.553      864.444
07/26/2014  11:27:00      -44.947       39.016       10.715       44.217       27.831       28.887     1955.170      774.572      834.456        0.361        0.178       59.518       29.518        0.246      348.328       27.946      864.429
07/26/2014  11:28:00      -35.903       98.403        7.098       48.707       51.135       40.554     2372.335     2614.804     1644.622        0.883        0.332      104.748       38.464        0.135      348.252       27.814      864.434
07/26/2014  11:29:00      -24.833       83.128        6.763       29.950       64.395       33.698      897.001     4146.658     1135.573        0.687        0.309       86.758       35.338        0.166      348.266       27.836      864.429
07/26/2014  11:30:00        2.421       57.070       11.498       27.779       47.303       31.596      771.681     2237.617      998.286        0.370        0.200       57.121       29.124        0.260      348.365       28.008      864.421
07/26/2014  11:31:00       29.099       72.202        2.429       46.019       52.971       35.123     2117.765     2805.899     1233.654        0.611        0.308       77.845       31.511        0.164      348.326       27.941      864.407
07/26/2014  11:32:00       17.765      167.147      -19.475       46.482       44.363       37.452     2160.615     1968.062     1402.646        1.708        0.277      168.088       23.809        0.020      348.042       27.450      864.396
07/26/2014  11:33:00       68.007       45.549       19.944       62.388       49.464       33.510     3892.208     2446.677     1122.948        0.728        0.373       81.851       20.149        0.061      348.599       28.413      864.381
07/26/2014  11:34:00      136.028       86.590       -5.179       51.587       37.336       35.544     2661.233     1393.940     1263.397        1.567        0.266      161.250       22.931        0.020      347.959       27.306      864.378
07/26/2014  11:35:00       20.178       80.175        8.132       52.103       69.404       38.037     2714.705     4816.931     1446.818        0.794        0.449       82.676       43.577        0.278      348.558       28.342      864.375
07/26/2014  11:36:00       62.455      123.617      -13.202       33.809       58.758       36.145     1143.023     3452.520     1306.454        1.263        0.295      138.498       32.294        0.054      347.993       27.364      864.393
07/26/2014  11:37:00       67.071       47.131      -10.574       46.394       53.582       36.832     2152.428     2870.997     1356.598        0.660        0.319       81.974       35.042        0.183      347.820       27.066      864.395
07/26/2014  11:38:00        2.489       62.534      -10.185       40.797       40.874       23.984     1664.366     1670.680      575.222        0.396        0.196       62.584       24.411        0.152      348.242       27.795      864.404
07/26/2014  11:39:00        5.862       19.515       15.828       23.122       26.295       25.053      534.638      691.425      627.664        0.126        0.093       20.377       17.746        0.758      348.851       28.850      864.392
07/26/2014  11:40:00      101.955       89.490        9.344       62.512       41.907       54.860     3907.738     1756.210     3009.662        1.358        0.434      135.659       33.324        0.060      348.156       27.646      864.386
07/26/2014  11:41:00       91.410      108.009        0.966       63.857       60.376       45.463     4077.749     3645.265     2066.921        1.490        0.489      141.498       41.676        0.087      348.065       27.489      864.380
07/26/2014  11:42:00       68.348       61.681       11.093       69.354       51.578       39.166     4809.956     2660.293     1533.941        0.880        0.450       92.066       30.306        0.108      348.621       28.451      864.384
07/26/2014  11:43:00       49.642      107.557      -11.989       55.898       62.234       47.913     3124.640     3873.025     2295.685        1.173        0.465      118.461       38.782        0.107      348.090       27.532      864.392
07/26/2014  11:44:00       13.295       77.215        2.714       27.736       49.750       27.528      769.292     2475.110      757.785        0.507        0.200       78.351       22.865        0.085      348.131       27.604      864.387
07/26/2014  11:45:00      157.326      108.457       31.844       92.275       61.835       53.735     8514.747     3823.575     2887.408        2.637        0.761      191.088       30.400        0.025      348.254       27.815      864.373
07/26/2014  11:46:00      146.555      112.638       20.670       64.879       37.202       42.921     4209.279     1384.009     1842.190        2.101        0.372      184.840       25.024        0.018      348.073       27.500      864.361
07/26/2014  11:47:00      132.251       78.620       11.179       54.975       35.251       47.182     3022.304     1242.603     2226.168        1.514        0.325      153.855       20.682        0.018      348.009       27.392      864.353
07/26/2014  11:48:00       61.378       47.054       -3.761       61.847       49.959       41.047     3825.031     2495.863     1684.862        0.700        0.400       77.339       24.838        0.103      348.356       27.991      864.334
07/26/2014  11:49:00       29.508       37.096        0.053       50.175       40.778       33.845     2517.514     1662.849     1145.471        0.379        0.266       47.401       15.904        0.113      348.597       28.409      864.322
07/26/2014  11:50:00       36.856       33.512       26.682       38.307       36.952       26.352     1467.445     1365.473      694.440        0.336        0.176       49.814       19.705        0.156      348.619       28.449      864.311
07/26/2014  11:51:00        4.951        2.184       23.439       19.069       26.262       16.051      363.637      689.706      257.639        0.094        0.066        5.411        8.247        2.323      349.000       29.107      864.306
07/26/2014  11:52:00       60.375      -98.402       -7.873       74.898       82.190       47.042     5609.654     6755.228     2212.939        1.398        0.729      115.447       58.347        0.255      348.705       28.595      864.277
07/26/2014  11:53:00       59.981     -125.532      -29.732       54.962       68.579       36.433     3020.793     4703.086     1327.345        1.464        0.453      139.126       30.612        0.048      348.367       28.011      864.273
07/26/2014  11:54:00       33.488      -52.493       24.530       57.848       81.798       54.899     3346.352     6690.866     3013.875        0.876        0.653       62.266       58.938        0.896      348.544       28.318      864.259
07/26/2014  11:55:00       44.713       34.126        8.880       36.380       26.119       29.372     1323.479      682.186      862.699        0.305        0.143       56.248       16.074        0.082      348.267       27.838      864.250
07/26/2014  11:56:00        7.626        1.142       15.960       41.742       27.990       22.863     1742.415      783.467      522.707        0.168        0.152        7.711       13.541        3.083      348.717       28.617      864.240
07/26/2014  11:57:00      -41.661      -27.866       -9.382       37.771       28.467       19.870     1426.642      810.348      394.815        0.262        0.132       50.121        9.666        0.037      348.865       28.873      864.225
07/26/2014  11:58:00      -49.789      -92.086        0.407       46.188       64.983       30.052     2133.369     4222.817      903.116        0.911        0.363      104.684       15.107        0.021      348.699       28.587      864.218
07/26/2014  11:59:00      -76.037      -41.050        4.706       75.259       58.250       37.004     5663.900     3393.023     1369.327        0.896        0.521       86.410       30.221        0.122      348.481       28.207      864.212
07/26/2014  12:00:00      -55.772     -110.662       -2.517       50.027       60.963       31.604     2502.679     3716.491      998.800        1.129        0.361      123.921       15.700        0.016      348.302       27.899      864.219
07/26/2014  12:01:00     -106.648      -15.851       13.356       57.979       53.541       30.973     3361.603     2866.621      959.349        0.949        0.359      107.819       30.378        0.079      348.545       28.320      864.220
07/26/2014  12:02:00     -164.793      -44.399       -4.857       72.672       62.487       41.592     5281.195     3904.575     1729.924        2.003        0.546      170.670       39.026        0.052      348.274       27.850      864.209
07/26/2014  12:03:00      -72.032      -12.135       -2.521       45.843       32.950       24.544     2101.588     1085.681      602.409        0.457        0.189       73.047       22.120        0.092      348.622       28.454      864.209
07/26/2014  12:04:00     -100.890     -104.039      -10.712       81.628       55.263       37.685     6663.069     3053.973     1420.152        1.613        0.557      144.924       38.636        0.071      348.521       28.276      864.208
07/26/2014  12:05:00     -101.910      -63.401       -6.387       76.745       73.131       37.930     5889.752     5348.189     1438.670        1.356        0.634      120.022       45.263        0.142      348.444       28.143      864.202
07/26/2014  12:06:00     -161.134      -97.361      -26.446       42.947       57.201       30.204     1844.403     3271.929      912.279        2.108        0.301      188.264       22.985        0.015      348.223       27.762      864.200
07/26/2014  12:07:00     -133.962      -84.819       -9.550       63.360       41.016       24.080     4014.458     1682.338      579.855        1.575        0.314      158.556       26.263        0.027      348.231       27.775      864.195
07/26/2014  12:08:00      -94.284      -65.135       -3.000       32.970       26.191       22.924     1087.034      685.975      525.526        0.772        0.115      114.595       22.153        0.037      348.261       27.827      864.179
07/26/2014  12:09:00      -65.780      -14.749       -3.494       43.599       24.495       18.906     1900.834      600.012      357.418        0.371        0.143       67.413       11.097        0.027      348.349       27.978      864.181
07/26/2014  12:10:00      -13.507      -25.037      -16.486       43.966       71.530       21.551     1932.968     5116.555      464.438        0.430        0.376       28.448       21.188        0.555      348.561       28.347      864.166
07/26/2014  12:11:00       29.739     -182.744       -9.868      107.312       83.672       46.065    11515.835     7001.068     2121.994        2.750        1.032      185.148       30.457        0.027      348.635       28.472      864.137
07/26/2014  12:12:00      103.314       60.881      -14.151       80.858      186.503       53.224     6537.991    34783.362     2832.784        2.936        2.208      119.918       43.906        0.134      349.222       29.488      864.093
07/26/2014  12:13:00       85.446      140.358       -6.025       59.478       65.121       54.896     3537.583     4240.742     3013.520        1.891        0.540      164.321       39.993        0.059      349.239       29.520      864.130
07/26/2014  12:14:00       75.391       78.363       64.301       57.527       53.199       56.211     3309.398     2830.167     3159.648        1.263        0.465      108.741       19.791        0.033      349.208       29.468      864.142
07/26/2014  12:15:00      131.737      104.535       56.126       86.389       58.065       50.902     7463.107     3371.486     2591.055        2.243        0.671      168.173       47.607        0.080      349.049       29.190      864.139
07/26/2014  12:16:00      169.418      126.873       52.225       50.319       35.208       50.057     2532.002     1239.589     2505.665        2.690        0.314      211.659       14.401        0.005      348.543       28.311      864.139
07/26/2014  12:17:00       34.329       11.869       -2.407       91.392       80.600       31.467     8352.526     6496.308      990.180        0.858        0.792       36.322       45.112        1.543      348.388       28.047      864.134
07/26/2014  12:18:00      -14.491       -6.994        9.609       42.440       54.980       37.885     1801.196     3022.748     1435.257        0.330        0.313       16.090       25.915        2.594      348.985       29.081      864.105
07/26/2014  12:19:00      -35.065      -33.957       17.008       55.717       53.166       27.180     3104.402     2826.593      738.738        0.467        0.333       48.812       32.251        0.437      348.883       28.905      864.084
07/26/2014  12:20:00      -37.804      -38.616        5.521       34.939       25.740       26.075     1220.721      662.568      679.903        0.276        0.128       54.040       21.552        0.159      348.775       28.716      864.075
07/26/2014  12:21:00      -21.252       25.158       21.405       28.496       30.252       24.545      812.039      915.209      602.446        0.194        0.116       32.932       19.608        0.354      349.577       30.108      864.063
07/26/2014  12:22:00      -30.756        6.010       22.734       32.779       21.402       24.957     1074.477      458.028      622.838        0.183        0.108       31.338       19.076        0.371      349.651       30.235      864.063
07/26/2014  12:23:00      -45.144      -26.352        2.647       36.880       25.283       18.919     1360.138      639.252      357.922        0.255        0.118       52.272       18.381        0.124      348.970       29.056      864.054
07/26/2014  12:24:00      -11.124       31.707       64.267       27.133       33.234       33.061      736.227     1104.520     1093.031        0.410        0.147       33.602       28.204        0.704      349.531       30.028      864.041
07/26/2014  12:25:00       -9.109      -23.399       45.431       43.237       95.339       55.079     1869.475     9089.526     3033.731        0.834        0.700       25.110       66.066        6.923      349.443       29.875      864.033
07/26/2014  12:26:00        8.121      -34.813       13.252       86.339       90.677       55.811     7454.478     8222.355     3114.917        1.012        0.940       35.748       60.169        2.833      349.236       29.515      864.014
07/26/2014  12:27:00      -90.731       -9.887        5.022       45.844       34.108       23.066     2101.663     1163.334      532.044        0.608        0.190       91.268       15.219        0.028      348.953       29.026      864.009
07/26/2014  12:28:00      -52.893       -7.555       18.157       61.692       53.077       37.459     3805.870     2817.206     1403.206        0.560        0.401       53.429       30.985        0.336      349.237       29.517      864.003
07/26/2014  12:29:00     -129.851      -41.342      -12.953       44.463       44.426       31.501     1976.979     1973.639      992.342        1.184        0.247      136.273       23.824        0.031      348.784       28.732      864.004
07/26/2014  12:30:00     -138.771      -98.079       -8.439       57.130       56.738       41.159     3263.831     3219.152     1694.081        1.856        0.409      169.932       27.247        0.026      348.759       28.689      864.001
07/26/2014  12:31:00      -88.884       -5.453       -1.605       48.232       47.320       22.532     2326.280     2239.147      507.684        0.650        0.254       89.051       22.060        0.061      348.721       28.626      863.993
07/26/2014  12:32:00      -39.852      -74.982       -7.872       56.123       65.806       32.426     3149.827     4330.477     1051.418        0.790        0.427       84.915       29.647        0.122      349.120       29.315      863.979
07/26/2014  12:33:00     -130.291      -42.625      -13.739       51.676       85.269       27.151     2670.438     7270.824      737.190        1.483        0.534      137.086       19.061        0.019      348.891       28.917      863.968
07/26/2014  12:34:00      -96.191      -82.728        3.598       66.562       51.410       36.431     4430.497     2642.956     1327.230        1.225        0.420      126.873       31.755        0.063      348.932       28.988      863.971
07/26/2014  12:35:00     -136.170      -69.082       -3.060       63.179       52.117       34.690     3991.601     2716.234     1203.387        1.562        0.396      152.691       27.109        0.032      348.780       28.724      863.948
07/26/2014  12:36:00      -59.227      -31.271        4.952       70.317       45.531       27.159     4944.523     2073.074      737.619        0.613        0.388       66.975       34.395        0.264      348.926       28.979      863.945
07/26/2014  12:37:00      -77.178      -43.067        9.584       72.690       43.210       33.776     5283.840     1867.118     1140.806        0.810        0.415       88.382       42.061        0.226      349.278       29.589      863.928
07/26/2014  12:38:00      -85.246      -17.409        3.454       59.412       34.149       27.129     3529.842     1166.156      735.964        0.651        0.272       87.005       27.819        0.102      349.321       29.664      863.925
07/26/2014  12:39:00     -100.408      -10.283        5.071       51.583       52.224       37.362     2660.826     2727.392     1395.888        0.850        0.339      100.933       35.795        0.126      349.091       29.265      863.908
07/26/2014  12:40:00      -26.935      -62.535        6.849       34.706       20.779       20.470     1204.480      431.763      419.015        0.337        0.103       68.089       17.508        0.066      348.900       28.933      863.880
07/26/2014  12:41:00      -14.247      -20.782       -1.011       30.129       43.693       34.376      907.738     1909.079     1181.683        0.232        0.200       25.197       30.755        1.490      349.598       30.144      863.868
07/26/2014  12:42:00        6.838       23.605       36.033       34.667       27.780       27.889     1201.833      771.747      777.796        0.233        0.138       24.576       25.538        1.080      350.003       30.846      863.860
07/26/2014  12:43:00       18.140       19.512       27.460       53.357       58.652       33.021     2846.935     3440.049     1090.401        0.442        0.369       26.642       23.389        0.771      349.969       30.789      863.852
07/26/2014  12:44:00       80.458       82.723       70.464       74.705       62.776       57.746     5580.844     3940.883     3334.617        1.557        0.643      115.397       54.491        0.223      349.732       30.375      863.838
07/26/2014  12:45:00       53.577       47.637       25.630       54.646       64.857       43.034     2986.207     4206.446     1851.892        0.742        0.452       71.692       43.067        0.361      349.112       29.302      863.828
07/26/2014  12:46:00      -12.115      -53.411       12.239       62.153       38.995       27.321     3863.028     1520.578      746.439        0.464        0.307       54.768       20.558        0.141      349.615       30.175      863.815
07/26/2014  12:47:00      -72.670       34.614        0.277       35.457       33.740       29.429     1257.222     1138.388      866.083        0.487        0.163       80.493       15.662        0.038      349.320       29.662      863.808
07/26/2014  12:48:00       49.818       83.481        7.854       87.171       45.985       36.861     7598.814     2114.656     1358.747        1.029        0.554       97.216       30.147        0.096      349.812       30.515      863.799
07/26/2014  12:49:00      159.081      109.325       20.836       75.803       52.971       43.870     5746.090     2805.903     1924.553        2.408        0.524      193.025       18.117        0.009      349.354       29.716      863.785
07/26/2014  12:50:00       73.724       88.948        4.666       90.985       54.711       40.693     8278.244     2993.337     1655.936        1.315        0.646      115.529       32.415        0.079      349.284       29.599      863.778
07/26/2014  12:51:00      -29.798      171.998      -13.409       31.351       43.499       38.958      982.870     1892.191     1517.741        1.752        0.220      174.560       27.924        0.026      349.217       29.484      863.744
07/26/2014  12:52:00       18.889       39.939        9.171       32.840       43.901       32.247     1078.482     1927.273     1039.846        0.304        0.202       44.181       16.513        0.140      350.097       31.010      863.730
07/26/2014  12:53:00       23.283       22.512       48.990       28.152       36.796       25.561      792.548     1353.912      653.379        0.312        0.140       32.386       18.692        0.333      350.009       30.858      863.710
07/26/2014  12:54:00       19.130       27.730       21.145       26.026       31.431       32.644      677.371      987.934     1065.615        0.216        0.137       33.688       21.496        0.407      349.662       30.255      863.702
07/26/2014  12:55:00       11.488      -11.414       23.871       25.394       54.063       29.384      644.880     2922.759      863.397        0.263        0.222       16.194       33.349        4.241      349.841       30.567      863.692
07/26/2014  12:56:00       41.254       49.475       38.087       45.370       46.401       37.931     2058.405     2153.095     1438.743        0.562        0.283       64.418       33.819        0.276      349.894       30.658      863.697
07/26/2014  12:57:00      186.762      110.481       35.860       80.523       58.168       46.428     6483.987     3383.470     2155.520        3.020        0.601      216.993       28.824        0.018      349.411       29.816      863.686
07/26/2014  12:58:00      162.812      111.867       22.798       76.761       62.458       52.850     5892.292     3900.970     2793.100        2.606        0.629      197.540       26.500        0.018      349.433       29.854      863.673
07/26/2014  12:59:00      103.657       99.107      119.596       75.900       77.421       65.785     5760.862     5994.087     4327.679        2.547        0.804      143.412       52.844        0.136      349.534       30.031      863.643
07/26/2014  13:00:00       55.821       20.194       84.784       54.319      120.365       71.141     2950.538    14487.701     5061.082        1.660        1.125       59.361       81.184        1.870      349.560       30.078      863.661
07/26/2014  13:01:00       59.959       97.594       87.743       69.851       57.850       49.704     4879.139     3346.677     2470.496        1.576        0.535      114.541       41.837        0.133      349.829       30.545      863.664
07/26/2014  13:02:00       80.361       42.332       91.324      109.565       75.767       70.063    12004.387     5740.597     4908.870        1.962        1.133       90.829       76.982        0.718      349.804       30.499      863.648
07/26/2014  13:03:00       93.665      111.599       76.531       81.384       65.343       72.766     6623.360     4269.766     5294.933        2.163        0.809      145.696       55.914        0.147      349.343       29.700      863.663
07/26/2014  13:04:00      103.685       31.626       47.489       48.410       47.908       40.469     2343.555     2295.134     1637.779        1.014        0.314      108.401       30.824        0.081      349.313       29.648      863.654
07/26/2014  13:05:00       68.292      -14.732       15.257       46.546       33.441       25.911     2166.509     1118.279      671.384        0.453        0.198       69.863       21.441        0.094      349.396       29.795      863.648
07/26/2014  13:06:00       64.710       61.882       15.596       65.495       50.493       28.578     4289.554     2549.568      816.717        0.796        0.383       89.536       16.860        0.035      349.715       30.346      863.626
07/26/2014  13:07:00      170.723      147.839       11.060       86.547       64.502       55.481     7490.349     4160.526     3078.104        3.292        0.736      225.838       31.466        0.019      349.568       30.088      863.618
07/26/2014  13:08:00       74.677       56.955       14.189       62.782       49.514       39.664     3941.577     2451.624     1573.207        0.849        0.398       93.918       13.510        0.021      349.604       30.154      863.615
07/26/2014  13:09:00      102.934       81.247       16.453       82.094       50.133       46.343     6739.503     2513.276     2147.692        1.443        0.570      131.136       26.291        0.040      349.789       30.474      863.596
07/26/2014  13:10:00       66.583       78.318       58.321       73.661       52.553       53.518     5425.944     2761.828     2864.134        1.251        0.553      102.796       54.271        0.279      349.885       30.643      863.583
07/26/2014  13:11:00       77.373       71.756        7.451       56.947       63.358       43.721     3242.945     4014.283     1911.518        1.018        0.458      105.525       18.851        0.032      349.501       29.976      863.576
07/26/2014  13:12:00       56.402       40.511       14.669       47.758       39.118       42.049     2280.826     1530.182     1768.158        0.531        0.279       69.442       22.725        0.107      349.690       30.303      863.549
07/26/2014  13:13:00       -4.924       86.856       18.428       54.187       52.029       33.226     2936.204     2707.006     1103.942        0.733        0.337       86.996       37.624        0.187      349.791       30.480      863.543
07/26/2014  13:14:00       14.040       20.852       16.556       24.917       35.936       26.541      620.849     1291.382      704.413        0.176        0.131       25.138       14.067        0.313      350.104       31.022      863.543
07/26/2014  13:15:00       59.926       30.911       16.324       79.491       51.723       39.685     6318.792     2675.277     1574.933        0.769        0.528       67.429       20.703        0.094      350.225       31.231      863.522
07/26/2014  13:16:00      188.638      155.673       19.661       93.993       71.878       58.778     8834.600     5166.380     3454.827        3.883        0.873      244.578       42.158        0.030      349.664       30.252      863.518
07/26/2014  13:17:00       34.085      161.638      -21.801       56.103       79.756       49.602     3147.596     6360.952     2460.365        1.986        0.598      165.192       44.043        0.071      349.521       30.007      863.542
07/26/2014  13:18:00      136.536      102.165        8.299       64.304       60.325       45.124     4135.056     3639.160     2036.146        1.948        0.491      170.528       24.967        0.021      349.357       29.724      863.512
07/26/2014  13:19:00       84.903       18.218       22.257       37.024       52.499       29.412     1370.743     2756.182      865.037        0.651        0.250       86.836       19.226        0.049      349.348       29.710      863.502
07/26/2014  13:20:00       19.804        4.491       19.852       54.819       52.876       42.809     3005.131     2795.865     1832.614        0.422        0.382       20.307       45.290        4.974      349.722       30.359      863.481
07/26/2014  13:21:00       40.474      113.909       -8.796       80.655       62.746       48.738     6505.275     3937.060     2375.438        1.375        0.641      120.886       39.182        0.105      349.679       30.283      863.468
07/26/2014  13:22:00       -3.055      154.173      -22.523       32.173       71.805       30.254     1035.074     5156.030      915.292        1.569        0.355      154.204       32.183        0.044      349.636       30.209      863.460
07/26/2014  13:23:00      -90.789       88.318      -23.916       60.683       68.808       28.296     3682.367     4734.572      800.667        1.291        0.461      126.660       23.916        0.036      349.614       30.171      863.457
07/26/2014  13:24:00     -178.607        5.311      -23.656       46.602       42.578       23.113     2171.730     1812.906      534.201        1.850        0.226      178.686       21.000        0.014      349.469       29.918      863.422
07/26/2014  13:25:00      -75.245       40.780        3.647       52.652       32.278       30.120     2772.248     1041.838      907.216        0.603        0.236       85.585       24.838        0.084      349.886       30.643      863.402
07/26/2014  13:26:00      -65.283      117.495       -3.816       51.079       54.860       43.798     2609.022     3009.586     1918.271        1.281        0.377      134.413       35.537        0.070      350.016       30.869      863.391
07/26/2014  13:27:00     -146.371       56.911      -18.372       83.674       58.179       35.901     7001.297     3384.821     1288.902        1.834        0.584      157.046       33.009        0.044      349.909       30.683      863.363
07/26/2014  13:28:00     -113.765       32.792      -10.817       58.434       47.864       23.145     3414.581     2290.963      535.688        1.019        0.312      118.397       19.825        0.028      349.988       30.821      863.349
07/26/2014  13:29:00     -153.288       16.402      -11.131       91.667       74.612       37.448     8402.846     5566.968     1402.334        1.963        0.769      154.163       31.343        0.041      350.063       30.950      863.347
07/26/2014  13:30:00     -188.540      -69.670        1.425       79.608       76.368       38.345     6337.430     5832.029     1470.337        2.702        0.682      201.000       32.354        0.026      349.838       30.557      863.311
07/26/2014  13:31:00     -155.298        2.418        1.578       83.397       83.554       39.476     6955.042     6981.251     1558.346        1.981        0.775      155.317       41.048        0.070      350.193       31.175      863.308
07/26/2014  13:32:00     -188.485       52.225       -7.053      115.101       54.174       41.998    13248.135     2934.820     1763.808        2.812        0.897      195.586       48.239        0.061      349.886       30.642      863.297
07/26/2014  13:33:00     -254.121       19.631      -20.711       76.215       54.521       36.660     5808.695     2972.582     1343.969        3.776        0.506      254.878       34.420        0.018      349.772       30.442      863.280
07/26/2014  13:34:00     -160.334      -73.229       -7.752      119.203       77.710       45.323    14209.391     6038.891     2054.167        2.671        1.115      176.266       25.808        0.021      350.097       31.008      863.257
07/26/2014  13:35:00     -215.392     -109.882        6.243      118.026       72.929       50.262    13930.211     5318.639     2526.292        4.014        1.089      241.801       50.232        0.043      349.715       30.343      863.252
07/26/2014  13:36:00     -140.138      -92.574        6.613       65.109       42.085       31.066     4239.138     1771.189      965.093        1.761        0.349      167.954       29.717        0.031      349.705       30.328      863.271
07/26/2014  13:37:00      -56.953       30.215       11.204       51.587       65.957       35.013     2661.214     4350.310     1225.941        0.626        0.412       64.472       25.285        0.154      350.099       31.014      863.280
07/26/2014  13:38:00       20.611       -5.903       -5.389       37.606       34.550       33.536     1414.228     1193.716     1124.688        0.211        0.187       21.440       16.733        0.609      350.120       31.050      863.280
07/26/2014  13:39:00      -44.496      -41.559        5.267       57.627       27.865       25.205     3320.909      776.438      635.279        0.423        0.237       60.885       29.367        0.233      350.054       30.937      863.270
07/26/2014  13:40:00       -5.400      -35.866        7.282       32.259       26.743       19.796     1040.620      715.180      391.863        0.176        0.107       36.271       17.977        0.246      350.198       31.187      863.260
07/26/2014  13:41:00      -19.912      -43.842       10.058       33.949       32.931       24.437     1152.548     1084.424      597.162        0.263        0.142       48.152       20.040        0.173      350.400       31.537      863.250
07/26/2014  13:42:00        0.761       12.584       40.465       38.717       29.835       22.394     1498.988      890.110      501.512        0.234        0.145       12.607       13.023        1.067      350.852       32.324      863.237
07/26/2014  13:43:00       25.141      -30.983       35.683       52.551      129.364       39.959     2761.632    16735.012     1596.700        1.198        1.055       39.900       54.287        1.851      350.606       31.895      863.224
07/26/2014  13:44:00       75.010     -109.549       17.477      100.676      112.839       63.356    10135.609    12732.603     4013.975        2.240        1.344      132.768       69.710        0.276      350.179       31.151      863.215
07/26/2014  13:45:00       28.960      -36.994       38.062       57.068       89.162       51.137     3256.703     7949.853     2615.018        0.874        0.691       46.981       60.001        1.631      350.381       31.505      863.226
07/26/2014  13:46:00       14.061       64.296       31.176       38.709       66.512       38.896     1498.366     4423.819     1512.904        0.637        0.372       65.815       25.244        0.147      350.035       30.902      863.205
07/26/2014  13:47:00      -38.147       64.084       22.998       54.252      103.883       35.958     2943.233    10791.725     1292.982        1.056        0.751       74.579       46.131        0.383      350.234       31.248      863.163
07/26/2014  13:48:00        8.914      -12.049       30.748       67.835       77.662       38.995     4601.637     6031.360     1520.603        0.666        0.608       14.988       41.340        7.607      350.361       31.470      863.168
07/26/2014  13:49:00       70.233       -0.072       76.937       83.702      126.146       73.106     7006.036    15912.841     5344.494        1.955        1.413       70.233       86.329        1.511      350.513       31.731      863.140
07/26/2014  13:50:00        7.213       85.625       99.301       42.744       77.517       61.108     1827.053     6008.874     3734.146        1.440        0.579       85.929       59.321        0.477      350.527       31.757      863.118
07/26/2014  13:51:00       77.411       36.743       85.335       92.788       75.935       64.657     8609.598     5766.139     4180.565        1.659        0.928       85.689       59.403        0.481      350.614       31.907      863.122
07/26/2014  13:52:00       78.761       82.141       71.632       85.442       96.119       67.600     7300.351     9238.844     4569.707        1.959        1.055      113.800       56.953        0.250      350.205       31.195      863.101
07/26/2014  13:53:00       25.938       50.018       59.811       48.625       61.488       48.281     2364.427     3780.825     2331.033        0.761        0.424       56.343       32.587        0.335      350.635       31.944      863.094
07/26/2014  13:54:00       55.222       59.624       49.262       63.249       55.752       42.469     4000.417     3108.231     1803.590        0.897        0.446       81.268       37.499        0.213      350.378       31.497      863.096
07/26/2014  13:55:00       52.325       48.528       32.996       35.933       50.851       33.806     1291.164     2585.791     1142.814        0.560        0.251       71.364       27.543        0.149      350.255       31.284      863.087
07/26/2014  13:56:00       65.269       53.061       49.743       53.964       35.095       38.730     2912.163     1231.645     1499.990        0.760        0.282       84.116       28.646        0.116      350.306       31.373      863.077
07/26/2014  13:57:00        7.547        7.248        9.615       44.630       35.976       31.030     1991.823     1294.279      962.842        0.222        0.212       10.464       23.663        5.114      350.432       31.593      863.069
07/26/2014  13:58:00        6.730      -37.115       -3.024       31.538       39.811       40.110      994.672     1584.898     1608.828        0.281        0.209       37.720       25.096        0.443      350.352       31.454      863.076
07/26/2014  13:59:00      -51.778      -24.701        7.961       34.839       46.593       27.816     1213.729     2170.864      773.706        0.376        0.208       57.368       22.683        0.156      350.372       31.487      863.069
07/26/2014  14:00:00      -74.380       12.444        3.357       38.790       48.555       24.437     1504.633     2357.626      597.174        0.508        0.223       75.413       20.140        0.071      350.580       31.849      863.050
07/26/2014  14:01:00      -70.687       12.403      -13.654       28.707       38.692       20.375      824.099     1497.102      415.137        0.404        0.137       71.766       19.791        0.076      350.343       31.436      863.036
07/26/2014  14:02:00      -47.361       36.312       21.080       65.631       31.179       34.891     4307.413      972.131     1217.361        0.525        0.325       59.679       40.473        0.460      350.700       32.059      863.026
07/26/2014  14:03:00       -5.213       14.677       34.405       30.437       25.463       21.132      926.386      648.366      446.578        0.172        0.101       15.575       13.059        0.703      350.953       32.499      863.012
07/26/2014  14:04:00       10.289      -11.605       26.128       33.356       37.270       23.273     1112.639     1389.058      541.641        0.198        0.152       15.509       17.319        1.247      350.709       32.075      862.996
07/26/2014  14:05:00      -43.725       13.009       12.907       27.916       15.438       18.488      779.288      238.343      341.791        0.180        0.068       45.619       16.830        0.136      350.807       32.245      862.999
07/26/2014  14:06:00       -6.257        2.257        8.458       32.378       18.888       27.433     1048.314      356.755      752.543        0.114        0.108        6.652       15.057        5.124      350.735       32.120      862.996
07/26/2014  14:07:00      -22.056       18.984       11.150       31.445       48.698       21.832      988.799     2371.486      476.650        0.240        0.192       29.101       16.678        0.328      350.730       32.109      862.987
07/26/2014  14:08:00      -25.661       83.695        6.814       30.744       27.934       27.066      945.195      780.289      732.557        0.508        0.123       87.540       21.602        0.061      350.517       31.741      862.985
07/26/2014  14:09:00       51.546       44.297       10.888       34.744       28.987       27.279     1207.143      840.231      744.148        0.376        0.140       67.964       11.370        0.028      350.067       30.957      862.977
07/26/2014  14:10:00      -32.774      -23.337       -7.796       61.561       31.385       26.887     3789.806      985.028      722.927        0.359        0.275       40.233       31.280        0.604      350.476       31.670      862.969
07/26/2014  14:11:00       10.142       23.728       28.949       82.511       38.245       37.356     6808.135     1462.655     1395.469        0.558        0.483       25.804       39.009        2.285      350.620       31.920      862.952
07/26/2014  14:12:00      -15.743       14.318       31.802       40.274       25.149       20.421     1621.999      632.462      417.020        0.207        0.134       21.280       23.729        1.243      351.036       32.644      862.949
07/26/2014  14:13:00       -3.912       48.897       23.798       56.189       33.230       37.345     3157.192     1104.221     1394.613        0.431        0.283       49.053       25.224        0.264      350.539       31.780      862.922
07/26/2014  14:14:00      -20.577        4.456       15.420       73.411       34.446       28.930     5389.159     1186.529      836.966        0.405        0.371       21.054       29.842        2.009      350.934       32.466      862.918
07/26/2014  14:15:00      -30.536      -35.180       13.723       65.153       80.637       34.924     4244.933     6502.306     1219.719        0.716        0.598       46.584       34.210        0.539      350.871       32.355      862.908
07/26/2014  14:16:00      -28.669      -58.308        6.521       85.719       75.567       32.088     7347.680     5710.337     1029.653        0.917        0.704       64.975       42.544        0.429      350.874       32.361      862.919
07/26/2014  14:17:00      -88.387      -58.169       21.866       83.589       58.056       44.705     6987.183     3370.467     1998.559        1.201        0.618      105.810       44.053        0.173      350.624       31.926      862.913
07/26/2014  14:18:00     -145.793      -79.640        8.324       77.669       71.011       40.629     6032.533     5042.544     1650.704        2.019        0.636      166.127       33.533        0.041      350.477       31.669      862.898
07/26/2014  14:19:00     -150.374      -96.704        9.089       76.923       58.603       48.954     5917.110     3434.278     2396.506        2.189        0.587      178.784       33.241        0.035      350.413       31.559      862.897
07/26/2014  14:20:00     -165.341      -91.582       12.113      104.413       74.502       41.328    10902.149     5550.604     1707.977        2.701        0.908      189.011       47.227        0.062      350.457       31.634      862.863
07/26/2014  14:21:00     -145.757     -112.471        9.577      102.531       81.794       48.709    10512.653     6690.287     2372.532        2.678        0.979      184.106       50.557        0.075      350.405       31.542      862.865
07/26/2014  14:22:00      -99.304      -74.185       -4.509       72.650       38.878       34.903     5278.064     1511.505     1218.210        1.169        0.400      123.955       18.793        0.023      350.366       31.479      862.873
07/26/2014  14:23:00        3.149     -149.579      -20.399       65.834       42.609       35.869     4334.093     1815.485     1286.614        1.512        0.372      149.612       34.083        0.052      350.411       31.556      862.875
07/26/2014  14:24:00       -9.494      -25.442       22.072       21.399       28.629       22.337      457.938      819.621      498.936        0.150        0.089       27.155       12.974        0.228      350.640       31.954      862.874
07/26/2014  14:25:00      -29.918       -2.316        2.564       32.816       27.256       19.048     1076.893      742.888      362.844        0.154        0.109       30.007       18.929        0.398      350.710       32.076      862.857
07/26/2014  14:26:00      -41.053       -9.131       21.937       53.858       48.919       25.040     2900.673     2393.074      626.992        0.408        0.296       42.056       29.243        0.483      350.888       32.386      862.865
07/26/2014  14:27:00       16.597      -37.766        2.831       25.677       24.051       19.660      659.330      578.441      386.521        0.167        0.081       41.252       11.826        0.082      350.228       31.237      862.859
07/26/2014  14:28:00       45.658       23.391        9.593       29.417       26.080       20.613      865.337      680.169      424.891        0.235        0.099       51.301        6.331        0.015      350.233       31.247      862.867
07/26/2014  14:29:00      109.195       85.246        9.537       93.548       74.601       48.267     8751.272     5565.336     2329.695        1.796        0.832      138.530       36.151        0.068      350.459       31.637      862.850
07/26/2014  14:30:00      140.284       57.915       21.139       79.270       82.421       53.902     6283.804     6793.234     2905.386        1.973        0.799      151.769       32.070        0.045      350.581       31.849      862.839
07/26/2014  14:31:00       81.230       53.754       59.720       83.332       63.557       67.821     6944.254     4039.515     4599.751        1.432        0.779       97.405       55.183        0.321      350.550       31.798      862.839
07/26/2014  14:32:00       45.986       84.240      102.537       84.535       64.195       59.261     7146.186     4120.984     3511.870        1.725        0.739       95.974       51.488        0.288      350.498       31.706      862.836
07/26/2014  14:33:00      148.880       58.584       25.865       93.152       55.029       47.285     8677.311     3028.239     2235.834        2.010        0.697      159.991       36.814        0.053      350.470       31.657      862.840
07/26/2014  14:34:00       46.056       40.959        5.476       62.498       52.148       33.279     3906.021     2719.444     1107.508        0.578        0.387       61.634       33.407        0.294      350.359       31.464      862.846
07/26/2014  14:35:00       34.780       52.500        8.967       52.026       50.061       30.055     2706.660     2506.141      903.324        0.508        0.306       62.976       21.646        0.118      350.680       32.023      862.832
07/26/2014  14:36:00       67.258      103.854       -5.254       62.456       68.440       48.162     3900.741     4684.004     2319.586        1.312        0.545      123.731       43.111        0.121      350.570       31.832      862.817
07/26/2014  14:37:00      -26.514       33.879       -0.143       39.552       63.901       30.238     1564.369     4083.391      914.318        0.421        0.328       43.021       35.789        0.692      350.667       32.001      862.798
07/26/2014  14:38:00       21.542       43.020       23.588       78.084       33.233       33.222     6097.038     1104.404     1103.697        0.559        0.415       48.113       28.444        0.350      350.860       32.337      862.766
07/26/2014  14:39:00       25.372       80.553       -2.652       62.071       50.690       29.170     3852.825     2569.466      850.899        0.720        0.364       84.454       31.209        0.137      350.726       32.104      862.764
07/26/2014  14:40:00      116.853       59.335       22.985      104.725       77.477       48.990    10967.331     6002.677     2400.059        1.853        0.969      131.055       46.458        0.126      350.832       32.285      862.757
07/26/2014  14:41:00      196.696      147.610       16.271       69.894       54.974       51.297     4885.138     3022.145     2631.387        3.564        0.527      245.923       33.976        0.019      350.905       32.412      862.761
07/26/2014  14:42:00      217.110      113.183       89.096      112.457       71.658       72.245    12646.485     5134.934     5219.296        4.544        1.150      244.841       54.067        0.049      350.741       32.126      862.768
07/26/2014  14:43:00      157.708       20.986       56.623      113.854      127.742       67.383    12962.788    16318.058     4540.432        3.116        1.691      159.098       68.929        0.188      350.835       32.290      862.743
07/26/2014  14:44:00       99.583       12.851       93.750       90.529      102.654       72.829     8195.417    10537.909     5304.035        2.145        1.202      100.409       70.489        0.493      350.719       32.089      862.758
07/26/2014  14:45:00       60.138       75.755      108.344       77.468       72.215       52.307     6001.288     5215.057     2736.002        1.752        0.698       96.723       47.529        0.241      350.721       32.094      862.740
07/26/2014  14:46:00       95.485       70.648       39.271       74.794       47.968       47.747     5594.104     2300.953     2279.784        1.291        0.509      118.779       35.649        0.090      350.592       31.870      862.762
07/26/2014  14:47:00      105.517       70.475       10.483       93.655       58.988       43.580     8771.192     3479.575     1899.184        1.518        0.707      126.888       27.158        0.046      350.568       31.828      862.750
07/26/2014  14:48:00       93.394       85.024       16.772       99.437       57.219       38.652     9887.649     3274.064     1493.947        1.544        0.733      126.299       28.888        0.052      350.598       31.879      862.730
07/26/2014  14:49:00       83.032       84.953       39.172       73.862       56.511       49.723     5455.535     3193.467     2472.413        1.338        0.556      118.791       34.503        0.084      350.716       32.085      862.713
07/26/2014  14:50:00      193.224      133.070       17.058      100.720       69.784       58.988    10144.528     4869.763     3479.576        3.691        0.925      234.613       31.106        0.018      350.724       32.097      862.700
07/26/2014  14:51:00      274.697      157.576       59.282      149.431       98.633       89.826    22329.655     9728.523     8068.770        7.196        2.006      316.684       47.206        0.022      350.441       31.603      862.681
07/26/2014  14:52:00      175.361      121.940       40.425       47.616       34.607       38.499     2267.303     1197.614     1482.208        2.610        0.247      213.590       19.874        0.009      350.276       31.318      862.703
07/26/2014  14:53:00       57.404       79.017       -9.879       64.758       60.997       29.273     4193.662     3720.658      856.896        0.920        0.439       97.668       30.543        0.098      350.300       31.361      862.685
07/26/2014  14:54:00       14.030       29.851       -8.269       36.129       45.176       34.706     1305.316     2040.856     1204.514        0.285        0.228       32.984       24.453        0.550      350.390       31.518      862.681
07/26/2014  14:55:00       56.279       28.006       22.675       43.957       30.678       33.638     1932.185      941.137     1131.516        0.423        0.200       62.862       20.180        0.103      350.298       31.360      862.676
07/26/2014  14:56:00       89.322       -3.457       17.940       55.554       38.316       31.963     3086.257     1468.097     1021.636        0.694        0.279       89.389       30.028        0.113      350.476       31.668      862.665
07/26/2014  14:57:00       38.019      -62.102       15.926       27.366       44.091       23.980      748.891     1943.978      575.061        0.441        0.163       72.816       24.004        0.109      350.735       32.119      862.641
07/26/2014  14:58:00       22.583      -25.093       20.745       26.148       42.166       19.529      683.730     1777.931      381.372        0.221        0.142       33.759       19.475        0.333      350.977       32.541      862.633
07/26/2014  14:59:00       16.461        4.627       21.849       20.244       17.348       13.903      409.811      300.939      193.291        0.084        0.045       17.099       11.225        0.431      351.048       32.665      862.618
07/26/2014  15:00:00       -7.733        2.859       18.390       40.680       27.367       16.775     1654.842      748.968      281.410        0.155        0.134        8.245       15.889        3.714      350.866       32.348      862.602
07/26/2014  15:01:00      -55.580      -90.111       12.873       45.602       47.376       33.079     2079.577     2244.518     1094.221        0.840        0.271      105.873       26.782        0.064      350.696       32.052      862.577
07/26/2014  15:02:00      -28.765      -27.829       11.503       57.318       45.867       39.308     3285.304     2103.816     1545.122        0.433        0.347       40.023       33.904        0.718      350.737       32.123      862.548
07/26/2014  15:03:00     -124.542      -83.644        4.386       62.616       39.743       32.312     3920.781     1579.491     1044.077        1.453        0.327      150.024       30.449        0.041      350.506       31.720      862.539
07/26/2014  15:04:00     -135.052      -66.309       -8.193       48.511       44.696       22.850     2353.346     1997.712      522.104        1.379        0.244      150.453       16.232        0.012      350.454       31.629      862.526
07/26/2014  15:05:00     -115.840      -24.807        3.101       53.884       33.191       24.993     2903.537     1101.628      624.665        0.934        0.231      118.466       25.625        0.047      350.540       31.780      862.514
07/26/2014  15:06:00      -81.763      -27.041        8.054       48.442       28.661       23.709     2346.671      821.444      562.107        0.561        0.187       86.119       14.735        0.029      350.635       31.946      862.512
07/26/2014  15:07:00      -41.578      -22.835        0.555       38.972       28.786       26.664     1518.790      828.618      710.990        0.265        0.153       47.436       23.820        0.252      350.598       31.882      862.508
07/26/2014  15:08:00      -79.908      -32.288       -9.940       42.460       42.960       20.336     1802.852     1845.570      413.550        0.579        0.203       86.185       13.667        0.025      350.603       31.891      862.492
07/26/2014  15:09:00     -146.502      -72.384      -17.420       22.277       32.140       19.641      496.277     1032.997      385.750        1.446        0.096      163.409       10.266        0.004      350.398       31.534      862.473
07/26/2014  15:10:00     -141.459      -59.281       -6.401       32.886       29.630       20.063     1081.519      877.914      402.524        1.296        0.118      153.378       14.579        0.009      350.454       31.632      862.443
07/26/2014  15:11:00     -117.818      -26.252        1.199       51.819       34.045       22.890     2685.225     1159.048      523.948        0.947        0.218      120.707       20.400        0.029      350.845       32.312      862.414
07/26/2014  15:12:00      -92.856       11.165       -9.281       25.585       34.376       17.957      654.602     1181.734      322.454        0.550        0.108       93.525       14.551        0.024      350.527       31.758      862.394
07/26/2014  15:13:00      -54.502      -21.433        4.609       60.850       33.876       26.512     3702.723     1147.570      702.907        0.450        0.278       58.565       29.285        0.250      350.488       31.688      862.377
07/26/2014  15:14:00       24.765       -1.413        2.438       29.511       49.470       19.112      870.892     2447.262      365.273        0.215        0.184       24.805       14.755        0.354      350.140       31.086      862.366
07/26/2014  15:15:00       39.859       34.932       18.752       48.758       36.448       25.206     2377.333     1328.439      635.331        0.375        0.217       52.999       25.807        0.237      350.651       31.974      862.347
07/26/2014  15:16:00       98.273       48.935       34.244       75.649       65.939       46.419     5722.837     4347.984     2154.683        1.272        0.611      109.782       24.726        0.051      350.584       31.855      862.329
07/26/2014  15:17:00      137.298       61.551       39.238      100.852       78.219       66.287    10171.193     6118.148     4393.982        2.243        1.034      150.463       42.235        0.079      350.733       32.115      862.317
07/26/2014  15:18:00      130.159       67.685        4.018       59.990       38.677       33.771     3598.778     1495.924     1140.478        1.389        0.312      146.706       15.944        0.012      350.497       31.703      862.304
07/26/2014  15:19:00       42.194       11.731       14.531       33.846       26.696       25.837     1145.562      712.672      667.547        0.233        0.126       43.794       15.993        0.133      350.807       32.245      862.273
07/26/2014  15:20:00       13.833        6.349       22.834       27.918       21.463       16.402      779.421      460.648      269.019        0.113        0.075       15.220        8.697        0.327      350.907       32.420      862.247
07/26/2014  15:21:00       42.701       39.537       15.994       27.025       22.753       22.141      730.365      517.707      490.216        0.269        0.087       58.194       12.236        0.044      350.650       31.971      862.220
07/26/2014  15:22:00        7.687       16.597       -3.252       34.448       41.175       16.972     1186.678     1695.411      288.047        0.176        0.159       18.291       16.026        0.768      350.687       32.035      862.202
07/26/2014  15:23:00       45.829      120.966      -11.570       28.946       51.174       31.986      837.897     2618.819     1023.106        1.067        0.224      129.357       30.183        0.054      350.603       31.891      862.195
07/26/2014  15:24:00       82.115       62.090        0.655       60.113       44.760       29.712     3613.586     2003.439      882.785        0.855        0.325      102.947       20.550        0.040      350.739       32.126      862.184
07/26/2014  15:25:00       57.353       56.356       -0.971       53.093       45.392       31.088     2818.891     2060.401      966.458        0.615        0.292       80.407       25.436        0.100      350.812       32.252      862.169
07/26/2014  15:26:00       35.807       91.586       -7.117       42.155       54.148       33.920     1777.082     2932.042     1150.537        0.779        0.293       98.337       26.610        0.073      350.783       32.202      862.153
07/26/2014  15:27:00       45.924       50.523        8.762       78.169       61.141       46.976     6110.453     3738.257     2206.759        0.839        0.603       68.276       37.500        0.302      350.952       32.497      862.123
07/26/2014  15:28:00      229.206      128.999       89.081      135.732       80.873       82.608    18423.310     6540.451     6824.159        5.444        1.589      263.014       81.112        0.095      350.739       32.123      862.101
07/26/2014  15:29:00      107.518       71.219       76.689      110.964       74.903       75.212    12312.922     5610.528     5656.870        2.304        1.179      128.966       77.415        0.360      350.757       32.157      862.088
07/26/2014  15:30:00       65.730       50.396       62.723       59.837       47.571       52.420     3580.486     2263.006     2747.810        0.969        0.430       82.827       44.713        0.291      350.589       31.864      862.083
07/26/2014  15:31:00      133.617      110.258       60.492       77.755       54.423       60.377     6045.906     2961.832     3645.354        2.316        0.633      173.235       47.660        0.076      350.682       32.026      862.078
07/26/2014  15:32:00      126.458       66.001       18.662       49.850       51.512       32.763     2484.976     2653.525     1073.395        1.345        0.311      142.645       16.808        0.014      350.911       32.425      862.070
07/26/2014  15:33:00      113.913       40.038       25.820      119.967       62.923       47.122    14391.983     3959.315     2220.501        1.790        1.029      120.745       33.664        0.078      350.973       32.534      862.054
07/26/2014  15:34:00       99.737       97.680      118.210       81.387      119.878       91.836     6623.907    14370.797     8433.873        3.144        1.471      139.603       93.157        0.445      350.736       32.117      862.035
07/26/2014  15:35:00      108.423       69.221       51.470       68.909       47.055       52.347     4748.431     2214.179     2740.232        1.445        0.485      128.635       36.395        0.080      350.651       31.972      862.041
07/26/2014  15:36:00      124.756       59.930       81.173       68.668       59.101       46.105     4715.262     3492.975     2125.636        1.804        0.517      138.404       46.855        0.115      350.585       31.857      862.019
07/26/2014  15:37:00       94.892       82.906       57.973       66.748       41.131       43.232     4455.306     1691.766     1869.008        1.363        0.401      126.007       42.053        0.111      350.435       31.597      861.993
07/26/2014  15:38:00      125.283       54.901       63.151       92.873       55.575       49.099     8625.354     3088.573     2410.681        1.841        0.706      136.784       48.738        0.127      350.822       32.271      861.962
07/26/2014  15:39:00      117.170       86.702       38.621       91.042       60.561       68.120     8288.630     3667.602     4640.294        1.966        0.830      145.760       59.516        0.167      350.527       31.757      861.939
07/26/2014  15:40:00      108.519       38.036       14.277      108.437       62.686       53.917    11758.629     3929.580     2907.081        1.601        0.930      114.992       55.581        0.234      350.923       32.446      861.914
07/26/2014  15:41:00      173.650      114.745       75.752      136.701       92.539       95.930    18687.180     8563.455     9202.561        4.275        1.823      208.137       91.790        0.194      350.765       32.169      861.883
07/26/2014  15:42:00      128.126      115.268      112.810      114.716       85.691       73.047    13159.842     7342.970     5335.825        3.413        1.292      172.345       75.832        0.194      350.795       32.221      861.871
07/26/2014  15:43:00      177.474      103.500       77.197       83.880       86.333       79.585     7035.919     7453.468     6333.719        3.449        1.041      205.449       58.536        0.081      350.547       31.790      861.877
07/26/2014  15:44:00      108.777      104.889       90.191      106.385      100.817       84.273    11317.781    10164.006     7101.905        2.977        1.429      151.110       73.564        0.237      350.699       32.054      861.872
07/26/2014  15:45:00       89.975       84.474       84.013       95.972       76.298       58.389     9210.674     5821.402     3409.221        2.036        0.922      123.415       51.436        0.174      350.791       32.214      861.860
07/26/2014  15:46:00       28.794       66.604      101.222       54.363       82.029       54.124     2955.369     6728.726     2929.378        1.406        0.631       72.561       58.393        0.648      350.858       32.333      861.868
07/26/2014  15:47:00       38.162       82.269       98.843       61.310       76.332       65.559     3758.864     5826.515     4297.967        1.594        0.694       90.690       64.297        0.503      351.175       32.885      861.866
07/26/2014  15:48:00       70.124      100.496      105.885       71.900       55.003       48.326     5169.612     3025.383     2335.429        1.838        0.527      122.543       47.457        0.150      351.007       32.591      861.836
07/26/2014  15:49:00       67.432       31.551       41.163       41.427       36.776       46.959     1716.160     1352.509     2205.174        0.625        0.264       74.448       31.128        0.175      350.999       32.580      861.811
07/26/2014  15:50:00       30.216      -28.945       14.425       33.209       34.586       23.706     1102.859     1196.181      561.984        0.241        0.143       41.843       12.766        0.093      351.187       32.906      861.772
07/26/2014  15:51:00      152.472       91.678       26.774      103.947       64.035       57.711    10805.001     4100.514     3330.596        2.530        0.912      177.912       37.228        0.044      351.101       32.755      861.739
07/26/2014  15:52:00      148.450      142.284      104.544      133.637       81.764       68.204    17858.958     6685.427     4651.840        4.120        1.460      205.627       61.751        0.090      351.076       32.710      861.705
07/26/2014  15:53:00       41.083       58.936       60.352       50.919       46.982       44.450     2592.786     2207.295     1975.830        0.779        0.339       71.842       38.933        0.294      350.827       32.280      861.711
07/26/2014  15:54:00       28.631       -7.688       43.681       56.746       72.313       41.241     3220.115     5229.100     1700.817        0.647        0.508       29.645       45.319        2.337      351.047       32.663      861.703
07/26/2014  15:55:00       78.293      -66.362        3.020       70.588       86.207       47.398     4982.666     7431.657     2246.543        1.260        0.733      102.634       38.080        0.138      351.480       33.417      861.697
07/26/2014  15:56:00       63.246      -38.732       44.840      100.335      146.550       70.149    10067.133    21476.792     4920.834        2.198        1.823       74.164       93.835        1.601      351.406       33.288      861.701
07/26/2014  15:57:00       55.475      -66.587       -4.361       59.658       51.386       35.444     3559.039     2640.514     1256.252        0.749        0.373       86.668       29.334        0.115      351.340       33.173      861.713
07/26/2014  15:58:00       43.299       -9.658       24.186       39.714       67.898       41.588     1577.208     4610.196     1729.556        0.523        0.396       44.363       37.637        0.720      351.391       33.262      861.720
07/26/2014  15:59:00       59.596      -86.970      -10.089       79.080       64.117       40.658     6253.693     4111.042     1653.096        1.162        0.601      105.430       33.225        0.099      351.113       32.776      861.724
07/26/2014  16:00:00        6.656      -26.747       -2.744       44.265       47.599       23.779     1959.363     2265.684      565.431        0.278        0.240       27.563       19.150        0.483      351.256       33.029      861.723
07/26/2014  16:01:00       12.430       16.326       24.680       25.092       18.525       16.646      629.599      343.184      277.077        0.114        0.062       20.519       14.850        0.524      351.555       33.549      861.716
07/26/2014  16:02:00      -50.853      -29.464        9.383       33.489       26.868       23.332     1121.538      721.882      544.396        0.296        0.119       58.772       21.956        0.140      351.271       33.053      861.724
07/26/2014  16:03:00      -94.047      -69.691       -4.642       71.574       32.714       26.233     5122.798     1070.230      688.172        1.030        0.344      117.055       24.703        0.045      351.377       33.239      861.740
07/26/2014  16:04:00      -19.674      -40.345        8.802       95.889       58.674       31.203     9194.659     3442.677      973.613        0.785        0.681       44.886       34.733        0.599      351.439       33.348      861.742
07/26/2014  16:05:00       75.021     -125.709       -2.599       78.336      145.900       73.460     6136.529    21286.736     5396.417        2.712        1.641      146.393       71.555        0.239      351.266       33.044      861.736
07/26/2014  16:06:00      131.162     -258.890      -72.933       90.946       86.386       54.067     8271.254     7462.618     2923.203        5.410        0.933      290.220       44.762        0.024      351.244       33.002      861.718
07/26/2014  16:07:00     -120.200     -182.430      -14.327      143.299      114.814       77.164    20534.625    13182.221     5954.290        4.379        1.984      218.469       53.868        0.061      351.610       33.642      861.727
07/26/2014  16:08:00     -179.301     -170.690        5.769      131.007      113.510       56.042    17162.709    12884.628     3140.673        4.725        1.659      247.556       32.024        0.017      351.702       33.804      861.741
07/26/2014  16:09:00     -202.298     -146.577       11.229      117.530      126.945       59.663    13813.200    16115.156     3559.677        4.800        1.674      249.818       59.455        0.057      351.379       33.238      861.735
07/26/2014  16:10:00     -179.959     -152.680        1.985      134.367      112.931       60.517    18054.574    12753.500     3662.364        4.508        1.724      236.001       62.653        0.070      351.560       33.555      861.726
07/26/2014  16:11:00     -313.028      -39.719      -24.714       91.241       99.329       50.021     8324.879     9866.155     2502.097        6.043        1.035      315.538       49.793        0.025      351.394       33.263      861.702
07/26/2014  16:12:00     -350.784       75.646      -19.895       77.390       56.350       37.719     5989.234     3175.344     1422.693        6.988        0.529      358.848       35.492        0.010      351.476       33.408      861.678
07/26/2014  16:13:00     -450.897       27.309      -52.559      172.470      129.162       72.227    29745.927    16682.824     5216.712       12.922        2.582      451.723       70.617        0.024      351.596       33.618      861.641
07/26/2014  16:14:00     -327.760      -16.250      -18.185      120.392      103.958       63.663    14494.306    10807.314     4052.999        6.868        1.468      328.163       61.584        0.035      351.635       33.685      861.649
07/26/2014  16:15:00     -211.719     -148.334      -10.566      108.368       73.048       57.333    11743.637     5336.080     3287.058        4.365        1.018      258.511       57.941        0.050      351.641       33.696      861.639
07/26/2014  16:16:00     -125.738     -106.687       -9.662       80.308       83.944       42.685     6449.370     7046.659     1822.004        2.130        0.766      164.901       41.086        0.062      351.716       33.828      861.651
07/26/2014  16:17:00     -266.596     -199.473       -6.742      159.141      111.515       66.346    25325.985    12435.648     4401.802        7.653        2.108      332.961       67.155        0.041      351.650       33.713      861.649
07/26/2014  16:18:00     -259.514     -253.266      -11.822      143.802      154.023       78.656    20679.073    23723.218     6186.829        9.110        2.529      362.617       68.369        0.036      351.555       33.546      861.653
07/26/2014  16:19:00     -424.099     -157.902      -10.111      229.412      131.254       68.086    52629.729    17227.532     4635.653       13.968        3.725      452.541       73.096        0.026      351.421       33.310      861.638
07/26/2014  16:20:00     -169.118     -134.523       -5.513      149.072       98.650       50.763    22222.537     9731.784     2576.848        4.062        1.727      216.095       48.914        0.051      351.411       33.295      861.624
07/26/2014  16:21:00      -87.152     -243.663       26.196      146.786      204.642       81.168    21546.103    41878.397     6588.312        6.882        3.501      258.781       72.748        0.079      351.646       33.704      861.643
07/26/2014  16:22:00     -183.424     -318.830      -22.811      119.054      136.624       61.484    14173.821    18666.180     3780.328        8.621        1.831      367.828       46.490        0.016      351.490       33.432      861.668
07/26/2014  16:23:00     -121.257     -239.916       -2.422      131.415      182.840       48.441    17269.867    33430.423     2346.514        6.265        2.652      268.818       51.642        0.037      351.498       33.447      861.651
07/26/2014  16:24:00     -111.072     -195.911       -9.847      154.419      111.019       78.662    23845.291    12325.249     6187.683        4.658        2.118      225.207       67.100        0.089      351.480       33.414      861.632
07/26/2014  16:25:00     -271.513     -154.335       -6.026      175.257      110.887       59.701    30714.928    12295.988     3564.165        7.207        2.329      312.312       30.512        0.010      351.369       33.220      861.662
07/26/2014  16:26:00     -236.071     -160.191        5.843      127.545      107.140       54.891    16267.720    11479.040     3013.007        5.609        1.538      285.290       52.444        0.034      351.474       33.404      861.659
07/26/2014  16:27:00     -268.202     -234.930       -6.934      163.770      119.735       72.279    26820.704    14336.502     5224.221        8.677        2.319      356.545       64.119        0.032      351.364       33.212      861.658
07/26/2014  16:28:00     -324.389     -330.674      -19.780      150.894      169.452       85.204    22768.997    28714.086     7259.724       13.684        2.937      463.221       79.850        0.030      351.297       33.094      861.651
07/26/2014  16:29:00     -335.063     -158.273      -11.754      185.006      102.399       67.237    34227.403    10485.655     4520.809        9.333        2.462      370.563       70.319        0.036      351.353       33.192      861.671
07/26/2014  16:30:00     -292.660     -172.039       -8.082      135.877      112.713       60.514    18462.432    12704.108     3661.916        7.506        1.741      339.481       60.406        0.032      351.445       33.353      861.685
07/26/2014  16:31:00     -199.815     -103.302       10.353      147.305      100.249       58.232    21698.750    10049.893     3390.982        4.292        1.757      224.938       73.529        0.107      351.668       33.743      861.693
07/26/2014  16:32:00     -219.893     -212.833        8.212      123.654      135.358       68.905    15290.395    18321.818     4747.965        6.603        1.918      306.024       73.235        0.057      351.425       33.318      861.706
07/26/2014  16:33:00     -221.194     -105.725        0.687      112.154       94.637       43.764    12578.516     8956.141     1915.313        4.177        1.172      245.162       36.979        0.023      351.493       33.438      861.678
07/26/2014  16:34:00     -274.948     -100.563       13.297      184.109      120.450       70.768    33895.961    14508.148     5008.128        6.964        2.671      292.761       85.833        0.086      351.449       33.360      861.667
07/26/2014  16:35:00     -210.527     -245.220       11.339      173.763      130.184       71.824    30193.506    16947.768     5158.616        7.843        2.615      323.195       80.283        0.062      351.455       33.371      861.641
07/26/2014  16:36:00     -141.919     -188.957      -16.773      108.081      133.175       78.764    11681.459    17735.620     6203.715        4.587        1.781      236.317       62.450        0.070      351.455       33.372      861.608
07/26/2014  16:37:00     -347.287     -237.672      -17.925      232.145      198.648       92.532    53891.187    39461.223     8562.084       13.965        5.096      420.828       81.412        0.037      351.548       33.536      861.584
07/26/2014  16:38:00     -146.041     -109.385        4.388      132.522      120.933       70.802    17562.146    14624.779     5012.874        3.525        1.860      182.464       68.158        0.140      351.573       33.578      861.663
07/26/2014  16:39:00     -262.281     -120.810        0.302      126.367      119.904       53.421    15968.554    14376.999     2853.837        5.829        1.660      288.767       63.718        0.049      351.531       33.504      861.660
07/26/2014  16:40:00     -293.481      -98.853      -12.086      141.129      105.961       61.421    19917.473    11227.690     3772.486        6.548        1.746      309.682       50.491        0.027      351.621       33.662      861.648
07/26/2014  16:41:00     -161.657      -72.662       -1.274      137.849       82.171       52.608    19002.328     6752.091     2767.600        2.996        1.426      177.237       53.182        0.090      351.722       33.839      861.653
07/26/2014  16:42:00     -281.490     -216.718      -15.472      147.092      129.023       63.103    21636.008    16646.891     3981.951        8.435        2.113      355.251       67.006        0.036      351.521       33.488      861.640
07/26/2014  16:43:00     -381.258     -175.332      -20.590      214.161      139.739       69.544    45865.043    19527.001     4836.397       12.336        3.511      419.641       95.146        0.051      351.492       33.437      861.637
07/26/2014  16:44:00     -222.701     -215.534        2.343      160.718      154.879       69.476    25830.192    23987.358     4826.873        7.534        2.732      309.920       80.891        0.068      351.506       33.460      861.642
07/26/2014  16:45:00     -172.601     -228.388       22.237      157.386      153.318       76.472    24770.231    23506.288     5847.892        6.827        2.706      286.273       76.727        0.072      351.549       33.535      861.638
07/26/2014  16:46:00     -343.868     -178.492      -12.982      140.600      136.055       57.781    19768.431    18510.866     3338.622        9.594        2.081      387.434       45.772        0.014      351.428       33.324      861.651
07/26/2014  16:47:00     -279.444     -238.686        0.463      171.361      133.749       90.041    29364.533    17888.675     8107.424        9.520        2.768      367.505       98.147        0.071      351.459       33.379      861.637
07/26/2014  16:48:00     -220.180     -116.349        7.346      167.990      111.412       61.841    28220.747    12412.721     3824.310        5.326        2.223      249.031       69.037        0.077      351.521       33.487      861.634
07/26/2014  16:49:00     -289.886     -149.343       -2.832      141.415      122.550       71.300    19998.264    15018.445     5083.676        7.321        2.005      326.094       61.539        0.036      351.576       33.582      861.647
07/26/2014  16:50:00     -265.022     -144.211        7.177      133.689      108.541       70.789    17872.752    11781.106     5011.144        6.287        1.733      301.717       74.746        0.061      351.352       33.192      861.650
07/26/2014  16:51:00      -84.285      -80.241       21.202      123.763       85.785       51.455    15317.211     7359.038     2647.569        1.965        1.266      116.373       49.204        0.179      351.421       33.315      861.652
07/26/2014  16:52:00     -165.233     -116.234        2.339       92.982       83.447       46.454     8645.589     6963.340     2157.976        2.929        0.888      202.020       40.658        0.041      351.563       33.561      861.645
07/26/2014  16:53:00     -202.445      -79.582       -3.206      113.125       96.606       53.533    12797.290     9332.810     2865.753        3.616        1.250      217.526       52.516        0.058      351.355       33.198      861.618
07/26/2014  16:54:00     -320.720     -142.689       -5.854      183.353      124.736       82.032    33618.365    15559.050     6729.241        8.957        2.795      351.029       85.545        0.059      351.494       33.439      861.612
07/26/2014  16:55:00     -339.131     -100.124       -8.024      183.443      137.771       75.762    33651.317    18980.910     5739.852        9.172        2.919      353.603       80.234        0.051      351.618       33.656      861.630
07/26/2014  16:56:00     -393.145     -175.982      -30.872      141.241      101.619       63.833    19948.922    10326.386     4074.639       11.041        1.717      430.735       53.292        0.015      351.403       33.280      861.632
07/26/2014  16:57:00     -271.835     -141.047       -1.101      152.961      156.766       71.683    23397.153    24575.651     5138.491        7.344        2.656      306.249       81.055        0.070      351.550       33.537      861.641
07/26/2014  16:58:00     -411.923     -283.526      -12.116      169.138      142.355       82.868    28607.688    20265.086     6867.135       15.297        2.787      500.067       62.981        0.016      351.225       32.968      861.638
07/26/2014  16:59:00     -376.968     -176.512       -9.439      147.889      138.794       78.649    21871.149    19263.897     6185.706       11.033        2.366      416.247       70.251        0.028      351.258       33.026      861.654
07/26/2014  17:00:00     -242.252        0.495       -0.781      134.447       85.337       54.742    18076.085     7282.328     2996.675        4.352        1.418      242.253       56.721        0.055      351.461       33.382      861.653
07/26/2014  17:01:00     -157.074     -124.905       -0.088      120.516       80.902       55.616    14524.205     6545.071     3093.118        3.221        1.208      200.683       47.867        0.057      351.531       33.504      861.662
07/26/2014  17:02:00     -201.531      -58.521        9.769      135.247      107.939       56.319    18291.709    11650.855     3171.785        3.862        1.656      209.856       56.547        0.073      351.618       33.655      861.671
07/26/2014  17:03:00     -273.046     -160.092      -12.289      104.092      105.234       54.441    10835.087    11074.196     2963.871        6.260        1.244      316.517       53.678        0.029      351.467       33.392      861.654
07/26/2014  17:04:00     -108.764     -149.231       -4.535       89.166       87.319       46.318     7950.496     7624.557     2145.377        2.592        0.886      184.660       35.691        0.037      351.663       33.735      861.668
07/26/2014  17:05:00     -111.800     -230.799       12.224      105.311      151.500       57.640    11090.430    22952.356     3322.327        5.163        1.868      256.452       51.447        0.040      351.680       33.763      861.669
07/26/2014  17:06:00     -233.066     -282.866       -9.898      140.507      136.593       60.065    19742.249    18657.577     3607.829        8.821        2.100      366.514       56.643        0.024      351.448       33.358      861.683
07/26/2014  17:07:00     -220.450     -267.196      -20.576      124.894      185.521       58.198    15598.623    34418.207     3386.964        8.690        2.670      346.398       65.228        0.035      351.513       33.473      861.657
07/26/2014  17:08:00     -167.916     -203.310       -1.261      130.414      134.710       60.767    17007.786    18146.708     3692.578        5.418        1.942      263.687       67.642        0.066      351.527       33.496      861.626
07/26/2014  17:09:00     -202.298     -208.098       -9.094      114.422      139.709       59.340    13092.292    19518.628     3521.191        6.021        1.807      290.223       46.099        0.025      351.610       33.642      861.629
07/26/2014  17:10:00     -202.702     -212.441        8.869      158.675      121.364       78.343    25177.766    14729.256     6137.601        6.616        2.302      293.631       83.757        0.081      351.622       33.663      861.650
07/26/2014  17:11:00     -271.490     -153.772        3.856      147.439      106.990       73.773    21738.375    11446.834     5442.415        6.799        1.931      312.014       83.456        0.072      351.645       33.703      861.661
07/26/2014  17:12:00     -119.182      -97.367        3.878      120.643       78.821       52.976    14554.640     6212.785     2806.500        2.363        1.179      153.899       58.446        0.144      351.564       33.563      861.654
07/26/2014  17:13:00     -151.012     -146.922        0.603      119.554       98.977       44.655    14293.246     9796.536     1994.043        3.523        1.304      210.691       37.672        0.032      351.645       33.705      861.655
07/26/2014  17:14:00     -345.051     -224.024       -3.098      162.631      167.823       78.457    26448.793    28164.668     6155.458       11.500        3.038      411.397       81.947        0.040      351.417       33.304      861.649
07/26/2014  17:15:00     -397.764      -65.167      -12.571      153.277      162.258       56.660    23493.960    26327.596     3210.378       10.782        2.652      403.067       61.722        0.023      351.335       33.160      861.636
07/26/2014  17:16:00     -225.413     -116.976       -0.073      146.828      126.735       66.446    21558.563    16061.863     4415.062        5.326        2.102      253.958       64.153        0.064      351.518       33.482      861.636
07/26/2014  17:17:00     -176.365     -169.237       12.176      145.173      109.127       63.464    21075.240    11908.799     4027.651        4.845        1.851      244.430       70.146        0.082      351.646       33.706      861.649
07/26/2014  17:18:00     -268.568     -233.354       -3.039      203.074      140.108       76.827    41239.176    19630.349     5902.410        9.667        3.339      355.785       93.298        0.069      351.479       33.413      861.642
07/26/2014  17:19:00     -209.230     -258.011        2.246      174.171      166.573       87.739    30335.498    27746.633     7698.139        8.805        3.289      332.185       91.016        0.075      351.395       33.267      861.655
07/26/2014  17:20:00     -180.945     -218.249       -2.166      120.924      146.869       68.412    14622.652    21570.379     4680.174        6.062        2.044      283.502       72.421        0.065      351.434       33.335      861.655
07/26/2014  17:21:00     -193.621     -322.114       -6.741      156.386      106.833       71.444    24456.643    11413.382     5104.207        9.113        2.049      375.828       73.057        0.038      351.402       33.279      861.649
07/26/2014  17:22:00     -245.063     -162.297      -24.053      104.828      101.631       45.168    10988.838    10328.918     2040.126        5.516        1.168      293.932       33.989        0.013      351.516       33.478      861.649
07/26/2014  17:23:00     -173.920     -209.335       -8.998      114.907      140.973       53.484    13203.648    19873.349     2860.499        5.504        1.797      272.156       60.069        0.049      351.577       33.584      861.646
07/26/2014  17:24:00     -231.270     -243.968        2.805      179.632      199.409       74.303    32267.677    39763.951     5520.902        9.527        3.878      336.164       80.752        0.058      351.461       33.382      861.649
07/26/2014  17:25:00     -264.560     -132.312       -8.796      152.177      119.810       72.301    23157.758    14354.508     5227.474        6.515        2.137      295.801       79.396        0.072      351.392       33.261      861.651
07/26/2014  17:26:00     -344.449     -203.190       -5.438      198.782      126.202       89.811    39514.296    15927.024     8065.927       11.172        3.175      399.914      102.012        0.065      351.189       32.907      861.621
07/26/2014  17:27:00     -239.334     -107.807       -1.818      221.871      115.219       65.104    49226.547    13275.426     4238.531        6.781        3.337      262.494      101.339        0.149      351.247       33.008      861.615
07/26/2014  17:28:00     -236.317      -82.345       14.296      150.309      127.162       71.187    22592.811    16170.195     5067.549        5.332        2.192      250.253       69.848        0.078      351.347       33.183      861.610
07/26/2014  17:29:00     -199.663     -111.214        3.337      108.929      122.093       56.210    11865.596    14906.642     3159.597        4.108        1.497      228.548       46.601        0.042      351.328       33.150      861.617
07/26/2014  17:30:00     -318.350     -154.192       -5.615      198.855      102.946       80.060    39543.491    10597.827     6409.649        9.084        2.828      353.726       96.752        0.075      351.435       33.337      861.607
07/26/2014  17:31:00     -339.119     -224.500        7.157      181.852      136.934       87.399    33069.988    18751.007     7638.576       11.244        2.973      406.696       79.515        0.038      351.193       32.912      861.605
07/26/2014  17:32:00     -266.424     -152.049        0.507      124.270      107.404       64.082    15443.099    11535.626     4106.499        6.259        1.554      306.758       52.540        0.029      351.243       33.000      861.604
07/26/2014  17:33:00     -256.967     -177.404        6.197      172.987      105.518       78.751    29924.588    11134.151     6201.752        7.239        2.363      312.257       90.373        0.084      351.296       33.095      861.596
07/26/2014  17:34:00     -171.141     -157.349        6.149       85.337      123.448       50.896     7282.438    15239.436     2590.391        3.959        1.256      232.482       52.354        0.051      351.348       33.184      861.612
07/26/2014  17:35:00     -318.878     -154.110       -4.659      214.509      155.060       90.608    46014.056    24043.690     8209.859       10.185        3.913      354.166      101.419        0.082      351.322       33.140      861.612
07/26/2014  17:36:00     -442.695     -293.146       -9.873      217.093      154.995       87.396    47129.176    24023.508     7638.001       18.039        3.940      530.956       88.447        0.028      351.128       32.798      861.611
07/26/2014  17:37:00     -404.087     -237.292       -3.962      226.402      169.210      100.565    51257.986    28631.885    10113.345       15.479        4.500      468.609      121.099        0.067      351.121       32.786      861.612
07/26/2014  17:38:00     -358.202     -239.067      -22.706      123.445      114.087       71.544    15238.557    13015.949     5118.501       10.967        1.669      430.653       58.461        0.018      351.165       32.864      861.604
07/26/2014  17:39:00     -176.246     -138.791       -0.299      103.910      126.441       51.927    10797.195    15987.322     2696.370        3.990        1.474      224.333       41.938        0.035      351.280       33.067      861.644
07/26/2014  17:40:00     -192.723     -150.084       -0.414      138.440      134.276       74.934    19165.568    18030.051     5615.114        5.123        2.141      244.269       85.772        0.123      351.349       33.186      861.640
07/26/2014  17:41:00     -376.375     -273.915      -13.545      160.082      168.212       90.284    25626.373    28295.246     8151.156       13.946        3.104      465.498       90.058        0.037      351.159       32.854      861.629
07/26/2014  17:42:00     -332.320     -202.614      -11.505      196.508      161.473       78.516    38615.237    26073.605     6164.794       11.122        3.543      389.215       79.185        0.041      351.165       32.865      861.629
07/26/2014  17:43:00     -205.603     -209.674       -0.586      174.575      124.581       75.255    30476.462    15520.401     5663.280        6.894        2.583      293.659       69.401        0.056      351.226       32.973      861.654
07/26/2014  17:44:00     -354.051     -119.817       -6.975      165.339      139.746       74.812    27337.103    19529.058     5596.893        9.610        2.623      373.776       77.726        0.043      351.188       32.903      861.653
07/26/2014  17:45:00     -232.946     -132.091        0.511      139.361      119.723       63.095    19421.624    14333.593     3980.941        5.472        1.887      267.791       69.498        0.067      351.268       33.044      861.654
07/26/2014  17:46:00     -253.663     -118.132        1.067      125.034      128.594       76.516    15633.558    16536.354     5854.637        5.816        1.901      279.822       76.057        0.074      351.253       33.018      861.656
07/26/2014  17:47:00     -365.638     -220.371        4.539      205.183      142.817       82.075    42100.008    20396.706     6736.352       12.574        3.462      426.913      101.839        0.057      351.081       32.718      861.652
07/26/2014  17:48:00     -356.309     -197.062        4.521      219.074      135.817       92.036    47993.592    18446.336     8470.698       12.035        3.746      407.173      102.600        0.063      351.100       32.751      861.651
07/26/2014  17:49:00     -367.343     -193.128        3.875      208.270      144.591       85.355    43376.432    20906.482     7285.408       12.190        3.578      415.017       96.046        0.054      351.115       32.776      861.654
07/26/2014  17:50:00     -363.728     -126.575       20.838      192.967      162.698       83.646    37236.242    26470.728     6996.636       10.971        3.535      385.123       85.060        0.049      351.180       32.889      861.642
07/26/2014  17:51:00     -388.035     -189.400       11.673      237.074      186.646       89.999    56204.131    34836.805     8099.866       14.284        4.957      431.790      114.901        0.071      351.097       32.747      861.645
07/26/2014  17:52:00     -410.271     -285.979      -19.574      171.435      170.913       83.041    29389.944    29211.189     6895.760       15.798        3.275      500.106       77.920        0.024      351.049       32.663      861.659
07/26/2014  17:53:00     -304.060     -164.483       10.352      178.965      136.017       79.292    32028.385    18500.705     6287.246        8.820        2.841      345.698       93.829        0.074      351.170       32.873      861.664
07/26/2014  17:54:00     -398.614     -213.739      -10.084      166.720      119.516       76.082    27795.513    14284.112     5788.454       12.626        2.393      452.302       88.622        0.038      351.112       32.771      861.690
07/26/2014  17:55:00     -315.492     -189.922        4.715      177.585      119.425       71.756    31536.405    14262.352     5148.926        9.328        2.547      368.246       79.363        0.046      351.176       32.884      861.690
07/26/2014  17:56:00     -515.796     -251.757      -27.047      232.001      188.443      102.749    53824.479    35510.581    10557.319       21.501        4.995      573.957      113.675        0.039      350.941       32.475      861.670
07/26/2014  17:57:00     -330.375     -179.976        1.091      220.918      135.418       89.202    48804.710    18337.961     7956.975       10.831        3.755      376.217      101.686        0.073      350.986       32.553      861.693
07/26/2014  17:58:00     -447.214     -203.342       -9.632      210.180      181.767      105.048    44175.608    33039.081    11035.033       16.483        4.412      491.272      114.909        0.055      350.932       32.459      861.692
07/26/2014  17:59:00     -480.680     -256.313      -40.882      186.647      184.703       71.244    34837.126    34115.094     5075.692       18.621        3.701      544.747       72.216        0.018      350.922       32.442      861.695
07/26/2014  18:00:00     -409.711     -259.664      -20.395      198.403      161.431       87.768    39363.887    26059.891     7703.193       15.440        3.656      485.065       86.343        0.032      350.909       32.420      861.684
07/26/2014  18:01:00     -366.725     -280.705      -15.464      182.358      128.984       90.279    33254.356    16636.773     8150.387       13.577        2.902      461.825       88.117        0.036      350.972       32.529      861.675
07/26/2014  18:02:00     -391.229     -240.693        0.351      200.881      158.162       87.299    40353.073    25015.128     7621.147       14.198        3.649      459.340       92.534        0.041      350.895       32.395      861.662
07/26/2014  18:03:00     -458.238     -188.373       -9.893      198.738      143.844       83.981    39496.951    20691.036     7052.748       15.639        3.362      495.446      105.077        0.045      350.939       32.473      861.669
07/26/2014  18:04:00     -391.215     -145.643       -1.011      121.707      112.875       65.787    14812.484    12740.796     4327.878       10.307        1.594      417.446       65.253        0.024      351.020       32.611      861.671
07/26/2014  18:05:00     -420.669     -133.461      -31.245      177.486      123.070       69.484    31501.138    15146.329     4827.972       12.360        2.574      441.332       80.078        0.033      351.031       32.631      861.673
07/26/2014  18:06:00     -251.088     -104.023        9.937      146.658      114.561       63.477    21508.643    13124.203     4029.354        5.631        1.933      271.783       65.593        0.058      351.117       32.780      861.680
07/26/2014  18:07:00     -241.534      -99.671        4.149      116.955      104.603       51.318    13678.460    10941.836     2633.508        4.777        1.363      261.291       42.532        0.026      351.112       32.772      861.681
07/26/2014  18:08:00     -265.393     -192.661        8.459      171.532      127.272       74.478    29423.368    16198.171     5546.971        7.939        2.558      327.951       78.097        0.057      351.061       32.682      861.666
07/26/2014  18:09:00     -370.016     -235.165       -4.481      226.655      160.924       84.842    51372.432    25896.443     7198.165       13.833        4.223      438.423       92.652        0.045      351.027       32.625      861.681
07/26/2014  18:10:00     -308.979     -176.071       -4.359      148.386      103.748       69.096    22018.339    10763.655     4774.249        8.201        1.878      355.625       67.677        0.036      351.030       32.628      861.683
07/26/2014  18:11:00     -275.631     -170.159       10.199      164.411      146.550       66.657    27031.111    21476.757     4443.133        7.898        2.648      323.923       79.999        0.061      351.026       32.623      861.690
07/26/2014  18:12:00     -454.038     -226.986      -20.368      165.186      125.666       72.091    27286.536    15791.880     5197.100       15.317        2.414      507.615       75.393        0.022      350.970       32.525      861.682
07/26/2014  18:13:00     -373.486     -167.076       -5.401      172.430      143.760       79.980    29732.049    20667.033     6396.832       11.210        2.840      409.153       83.107        0.041      350.946       32.483      861.687
07/26/2014  18:14:00     -405.099     -220.522      -11.798      186.170      135.241       72.974    34659.194    18290.066     5325.150       13.556        2.914      461.232       84.063        0.033      350.930       32.456      861.696
07/26/2014  18:15:00     -277.943     -109.444       -7.455      162.850      126.943       65.593    26520.279    16114.496     4302.432        6.810        2.347      298.715       68.824        0.053      350.957       32.503      861.703
07/26/2014  18:16:00     -404.448     -233.821      -11.468      134.197      145.940       82.097    18008.806    21298.485     6739.896       13.221        2.302      467.173       69.645        0.022      350.909       32.420      861.701
07/26/2014  18:17:00     -448.760     -288.257      -13.325      189.787      139.115       89.085    36019.213    19352.967     7936.050       17.397        3.165      533.364       86.247        0.026      350.803       32.234      861.708
07/26/2014  18:18:00     -273.621     -168.298       -5.356      176.079      132.655       81.473    31003.670    17597.405     6637.910        7.922        2.762      321.236       90.842        0.080      350.867       32.348      861.714
07/26/2014  18:19:00     -258.579      -84.124       13.340      163.218      113.809       73.698    26640.110    12952.463     5431.351        5.956        2.251      271.919       79.272        0.085      350.953       32.496      861.727
07/26/2014  18:20:00     -323.201     -288.693        5.516      189.063      149.903      106.630    35744.823    22470.784    11369.955       12.870        3.479      433.362      114.664        0.070      350.842       32.303      861.740
07/26/2014  18:21:00     -464.310     -320.384      -18.893      162.471      146.200       77.070    26396.707    21374.540     5939.708       18.614        2.686      564.119       77.340        0.019      350.768       32.175      861.728
07/26/2014  18:22:00     -334.989     -172.101      -27.984      149.124      122.229       70.653    22238.028    14939.846     4991.895        9.239        2.108      376.612       66.711        0.031      350.823       32.270      861.732
07/26/2014  18:23:00     -284.232     -146.431       -4.307      121.000      121.561       72.439    14641.120    14777.010     5247.356        6.845        1.733      319.734       75.244        0.055      350.874       32.360      861.742
07/26/2014  18:24:00     -285.031     -130.621        1.069      136.892      134.572       75.924    18739.296    18109.501     5764.505        7.045        2.131      313.535       84.979        0.073      350.883       32.375      861.752
07/26/2014  18:25:00     -253.307      -76.115       13.675      138.990      110.543       63.284    19318.223    12219.775     4004.913        5.284        1.777      264.496       67.728        0.066      350.911       32.422      861.763
07/26/2014  18:26:00     -320.298      -86.070      -12.529      153.110      101.903       61.441    23442.611    10384.286     3774.985        7.387        1.880      331.661       75.981        0.052      350.914       32.429      861.769
07/26/2014  18:27:00     -261.220     -203.193       -2.834      112.576      106.443       52.265    12673.358    11330.071     2731.652        6.813        1.337      330.943       53.383        0.026      350.914       32.428      861.782
07/26/2014  18:28:00     -307.511     -160.573        3.285      168.495      130.726       76.058    28390.643    17089.364     5784.784        8.580        2.563      346.910       84.449        0.059      350.871       32.355      861.766
07/26/2014  18:29:00     -299.802     -213.050        0.443      170.132      130.414       67.772    28944.900    17007.856     4593.111        9.290        2.527      367.793       65.212        0.031      350.847       32.312      861.756
07/26/2014  18:30:00     -143.954     -137.877       20.558      153.560      135.552       75.568    23580.700    18374.257     5710.527        4.390        2.383      199.331       82.139        0.170      350.815       32.256      861.771
07/26/2014  18:31:00     -243.274      -48.891        2.817      116.876      122.003       54.706    13659.965    14884.817     2992.712        4.655        1.577      248.138       53.365        0.046      350.830       32.282      861.778
07/26/2014  18:32:00     -231.445     -112.741       -3.962      116.477      103.984       58.200    13566.855    10812.655     3387.196        4.702        1.388      257.444       53.214        0.043      350.807       32.242      861.801
07/26/2014  18:33:00     -192.041     -128.133        1.921      137.063      119.878       68.412    18786.246    14370.713     4680.166        4.556        1.892      230.863       56.545        0.060      350.820       32.264      861.806
07/26/2014  18:34:00     -399.797     -146.928      -10.453      191.111      126.171       81.597    36523.274    15919.243     6658.060       12.031        2.955      425.940       93.964        0.049      350.738       32.121      861.800
07/26/2014  18:35:00     -362.061     -224.328      -12.204      202.322      162.084       79.549    40934.217    26271.111     6328.080       12.753        3.677      425.924       99.779        0.055      350.687       32.032      861.795
07/26/2014  18:36:00     -291.425     -146.327        0.048      157.837      108.745       59.592    24912.474    11825.372     3551.155        7.331        2.014      326.098       64.863        0.040      350.712       32.076      861.812
07/26/2014  18:37:00     -301.131     -270.912       -1.573      182.000      157.746       90.179    33123.841    24883.928     8132.173       11.509        3.307      405.060       88.816        0.048      350.691       32.038      861.828
07/26/2014  18:38:00     -276.825     -215.149       -3.228      144.842      127.185       83.582    20979.316    16176.048     6985.901        8.353        2.207      350.602       85.805        0.060      350.700       32.056      861.846
07/26/2014  18:39:00     -260.388     -181.249        1.467      142.808       94.731       79.967    20394.080     8973.933     6394.721        6.820        1.788      317.259       80.231        0.064      350.720       32.089      861.854
07/26/2014  18:40:00     -391.324     -307.767        5.717      223.252      153.343      107.360    49841.621    23514.073    11526.250       16.637        4.244      497.850      121.490        0.060      350.630       31.931      861.835
07/26/2014  18:41:00     -270.780     -224.166        3.911      176.838      132.172       88.112    31271.791    17469.346     7763.693        9.003        2.825      351.529       95.416        0.074      350.630       31.933      861.841
07/26/2014  18:42:00     -293.450      -98.340       -4.711      149.187      146.012       61.780    22256.841    21319.589     3816.709        7.159        2.370      309.489       58.872        0.036      350.667       31.999      861.861
07/26/2014  18:43:00     -135.026      -35.242       26.807      137.620      115.600       67.458    18939.354    13363.266     4550.636        2.852        1.843      139.549       69.944        0.251      350.703       32.062      861.873
07/26/2014  18:44:00     -417.897     -214.541      -17.434      160.532      114.853       67.124    25770.597    13191.262     4505.694       13.221        2.173      469.751       70.997        0.023      350.598       31.876      861.866
07/26/2014  18:45:00     -236.556      -77.556       -5.314      107.515       85.450       50.897    11559.406     7301.761     2590.525        4.172        1.073      248.946       45.403        0.033      350.667       31.997      861.875
07/26/2014  18:46:00     -288.774     -145.952       -7.255      128.611      156.365       61.765    16540.838    24449.859     3814.929        7.477        2.240      323.562       48.411        0.022      350.636       31.943      861.863
07/26/2014  18:47:00     -304.222      -97.621        3.531      158.477      157.108       75.759    25115.098    24683.036     5739.383        7.880        2.777      319.501       76.372        0.057      350.623       31.920      861.860
07/26/2014  18:48:00     -268.345     -188.596      -16.783      225.950      203.233       98.954    51053.410    41303.781     9791.855       10.498        5.107      327.990      121.397        0.137      350.543       31.782      861.853
07/26/2014  18:49:00     -213.473     -123.898       -1.759      146.978      135.668       64.135    21602.503    18405.823     4113.251        5.251        2.206      246.822       67.643        0.075      350.519       31.741      861.877
07/26/2014  18:50:00     -281.821     -225.062        1.239      185.605      149.540       83.978    34449.242    22362.096     7052.370        9.696        3.193      360.660       88.709        0.060      350.531       31.760      861.883
07/26/2014  18:51:00     -269.743     -222.216        3.705      168.911      156.074       85.466    28531.058    24358.958     7304.442        9.116        3.010      349.488       92.611        0.070      350.474       31.660      861.891
07/26/2014  18:52:00     -242.177     -125.002        1.518      229.034      150.944       78.662    52456.754    22783.971     6187.742        7.784        4.071      272.535      115.825        0.181      350.454       31.631      861.904
07/26/2014  18:53:00      -92.587      -53.659       14.504       90.955       97.828       49.474     8272.829     9570.287     2447.671        1.597        1.015      107.012       48.517        0.206      350.476       31.669      861.927
07/26/2014  18:54:00     -211.940     -146.229        5.434      180.644      168.002       70.858    32632.298    28224.679     5020.870        6.609        3.294      257.491       82.726        0.103      350.397       31.528      861.943
07/26/2014  18:55:00     -400.327     -228.624      -21.410      195.646      154.766       92.035    38277.303    23952.422     8470.355       14.183        3.535      461.010       93.494        0.041      350.329       31.410      861.938
07/26/2014  18:56:00     -384.323     -192.801        6.992      208.546      205.713      102.053    43491.576    42317.881    10414.798       14.056        4.811      429.973      118.697        0.076      350.302       31.363      861.942
07/26/2014  18:57:00     -357.258     -209.656       -5.493      230.652      174.265      113.173    53200.119    30368.202    12808.195       13.398        4.819      414.233      107.068        0.067      350.253       31.278      861.958
07/26/2014  18:58:00     -374.933     -212.940      -18.792      176.480      140.702       72.927    31145.073    19796.926     5318.383       12.125        2.813      431.182       71.604        0.028      350.253       31.277      861.990
07/26/2014  18:59:00     -471.458      -94.485      -11.293      192.294      185.663       96.980    36976.955    34470.895     9405.071       15.607        4.043      480.833      101.284        0.044      350.203       31.188      861.990
07/26/2014  19:00:00     -368.070     -191.786      -21.101      158.205      166.602       76.167    25028.804    27756.191     5801.424       11.563        2.929      415.039       59.611        0.021      350.196       31.178      862.008
07/26/2014  19:01:00     -272.650     -149.852        3.261      165.200      116.903       72.255    27290.886    13666.376     5220.762        7.148        2.309      311.117       77.374        0.062      350.174       31.139      862.029
07/26/2014  19:02:00     -380.256     -151.911      -10.331      193.132      143.089       69.059    37300.138    20474.470     4769.151       11.515        3.127      409.477       91.636        0.050      350.152       31.102      862.068
07/26/2014  19:03:00     -339.174     -178.951      -11.778      162.992      137.765       69.336    26566.522    18979.134     4807.519        9.877        2.518      383.487       75.369        0.039      350.134       31.070      862.062
07/26/2014  19:04:00     -354.332     -175.338      -11.254      159.778      175.597       80.431    25528.853    30834.321     6469.093       10.961        3.142      395.341       80.295        0.041      350.100       31.011      862.081
07/26/2014  19:05:00     -308.921     -106.841       -3.686      192.201      136.350       78.651    36941.103    18591.282     6185.966        8.428        3.086      326.875       95.120        0.085      350.094       31.000      862.078
07/26/2014  19:06:00     -301.552     -135.044       -0.359      158.928      125.827       73.732    25258.071    15832.359     5436.434        7.784        2.326      330.410       79.658        0.058      350.092       30.997      862.104
07/26/2014  19:07:00     -375.017     -232.221       -7.947      200.010      146.012       97.580    40004.160    21319.555     9521.801       13.272        3.542      441.095       97.387        0.049      350.048       30.920      862.108
07/26/2014  19:08:00     -253.431     -111.893      -13.702      182.809      129.991       76.400    33419.101    16897.536     5836.985        6.653        2.808      277.033       97.030        0.123      350.054       30.931      862.112
07/26/2014  19:09:00     -358.744     -154.464      -20.936      119.004      108.588       58.343    14161.980    11791.275     3403.904        9.117        1.468      390.585       66.321        0.029      350.031       30.891      862.128
07/26/2014  19:10:00     -511.133     -298.669      -30.682      171.874      158.744       88.797    29540.746    25199.788     7884.820       20.700        3.131      591.996       75.205        0.016      349.994       30.827      862.133
07/26/2014  19:11:00     -353.649     -124.227      -22.306      152.087      112.878       72.034    23130.478    12741.375     5188.967        9.102        2.053      374.834       72.683        0.038      349.991       30.823      862.152
07/26/2014  19:12:00     -225.866      -94.226        6.928      152.944      117.397       65.779    23391.900    13782.101     4326.845        5.071        2.075      244.733       75.085        0.094      349.982       30.809      862.173
07/26/2014  19:13:00     -285.593     -164.098       -5.311      159.503      119.846       72.759    25441.233    14363.118     5293.930        7.680        2.255      329.380       82.545        0.063      349.953       30.757      862.189
07/26/2014  19:14:00     -210.783     -117.480       13.886      158.465      120.392       80.775    25111.004    14494.314     6524.637        5.227        2.306      241.311       79.855        0.110      349.946       30.745      862.213
07/26/2014  19:15:00     -436.218     -179.407      -17.562      165.114      125.118       81.161    27262.498    15654.568     6587.155       13.613        2.475      471.670       78.326        0.028      349.906       30.674      862.213
07/26/2014  19:16:00     -337.835     -152.512       -2.430      198.897      149.483       89.122    39560.034    22345.286     7942.777       10.361        3.492      370.665       83.608        0.051      349.866       30.605      862.218
07/26/2014  19:17:00     -424.979     -217.745      -14.976      162.276      138.692       86.401    26333.586    19235.589     7465.213       14.063        2.652      477.514       81.275        0.029      349.865       30.602      862.235
07/26/2014  19:18:00     -417.913     -136.470      -22.833      171.110      147.588       82.177    29278.594    21782.258     6753.133       12.579        2.891      439.631       68.846        0.025      349.854       30.586      862.251
07/26/2014  19:19:00     -367.253     -239.300      -12.472      161.946      155.141       87.436    26226.599    24068.645     7645.055       12.511        2.897      438.337       87.347        0.040      349.835       30.551      862.250
07/26/2014  19:20:00     -226.592     -137.459        8.951      183.395      128.771       70.405    33633.791    16581.987     4956.865        6.273        2.759      265.026       84.525        0.102      349.807       30.504      862.273
07/26/2014  19:21:00     -248.351     -100.228       -8.975      112.589      115.434       58.279    12676.282    13325.018     3396.487        5.060        1.470      267.813       51.738        0.037      349.811       30.510      862.290
07/26/2014  19:22:00     -262.594     -158.483        0.799      136.622      109.236       57.051    18665.554    11932.531     3254.762        6.396        1.693      306.712       60.869        0.039      349.783       30.461      862.299
07/26/2014  19:23:00     -343.460     -255.501      -42.482      161.328      219.826       86.083    26026.772    48323.574     7410.295       13.339        4.088      428.072       98.521        0.053      349.776       30.448      862.304
07/26/2014  19:24:00     -253.147     -124.143       -8.958      164.571      146.016       75.126    27083.743    21320.801     5643.865        6.680        2.702      281.948       71.647        0.065      349.730       30.369      862.306
07/26/2014  19:25:00     -216.153     -115.033        9.816      158.524      118.370       64.194    25129.861    14011.436     4120.822        5.165        2.163      244.856       75.725        0.096      349.708       30.333      862.305
07/26/2014  19:26:00     -256.331     -124.158      -18.788      180.488      114.966       65.813    32576.055    13217.240     4331.367        6.579        2.506      284.817       84.780        0.089      349.707       30.328      862.322
07/26/2014  19:27:00     -229.989      -86.723       10.545      144.160      119.751       61.647    20782.164    14340.224     3800.371        4.972        1.946      245.796       76.058        0.096      349.671       30.266      862.324
07/26/2014  19:28:00     -314.901     -230.866      -14.848      156.967      136.355       81.606    24638.564    18592.701     6659.484       10.128        2.495      390.464       83.582        0.046      349.662       30.249      862.312
07/26/2014  19:29:00     -339.355      -38.328      -16.942      160.328      116.633       58.647    25704.987    13603.363     3439.441        7.982        2.137      341.513       57.811        0.029      349.655       30.237      862.329
07/26/2014  19:30:00     -224.189      -90.543        1.942      110.966      134.733       56.709    12313.549    18153.100     3215.889        4.607        1.684      241.782       48.115        0.040      349.641       30.215      862.333
07/26/2014  19:31:00     -219.187      -66.523        1.069      162.109      101.785       80.097    26279.414    10360.106     6415.498        4.775        2.153      229.059       83.804        0.134      349.590       30.126      862.336
07/26/2014  19:32:00     -286.976      -93.000       -0.220      225.288      171.947       93.929    50754.861    29565.779     8822.661        9.006        4.457      301.669      129.097        0.183      349.567       30.087      862.353
07/26/2014  19:33:00     -231.414      -11.673       19.743      154.476      115.726       76.037    23862.778    13392.544     5781.663        4.855        2.152      231.708       76.124        0.108      349.520       30.007      862.368
07/26/2014  19:34:00     -192.014      -82.540       10.836      122.780       95.913       53.552    15074.979     9199.326     2867.767        3.547        1.357      209.003       59.784        0.082      349.499       29.969      862.393
07/26/2014  19:35:00     -316.017     -152.893      -14.025      191.451      124.951       80.051    36653.317    15612.864     6408.168        9.105        2.934      351.060       93.980        0.072      349.538       30.037      862.399
07/26/2014  19:36:00     -348.611     -123.637      -28.232      175.468      129.032       78.896    30788.937    16649.271     6224.627        9.563        2.683      369.887       78.903        0.046      349.525       30.014      862.404
07/26/2014  19:37:00     -296.826     -128.780      -15.175       79.841       81.043       52.226     6374.656     6567.892     2727.589        6.029        0.784      323.559       40.380        0.016      349.491       29.955      862.443
07/26/2014  19:38:00     -218.109     -115.830       -3.266      122.039       92.777       55.701    14893.608     8607.544     3102.605        4.380        1.330      246.958       57.934        0.055      349.458       29.896      862.456
07/26/2014  19:39:00     -284.496      -67.610      -16.070      114.271       83.612       58.695    13057.775     6990.888     3445.057        5.463        1.175      292.420       56.955        0.038      349.435       29.855      862.471
07/26/2014  19:40:00     -306.964      -74.516      -22.190       90.593       68.965       50.301     8207.133     4756.232     2530.148        5.788        0.775      315.879       42.055        0.018      349.429       29.844      862.493
07/26/2014  19:41:00     -365.321      -42.535      -13.679      131.984      104.741       65.635    17419.675    10970.576     4307.907        8.407        1.635      367.789       63.813        0.030      349.417       29.824      862.480
07/26/2014  19:42:00     -266.889      -22.738       -2.674      128.655       88.938       56.138    16552.086     7909.949     3151.432        4.968        1.381      267.855       65.123        0.059      349.334       29.682      862.489
07/26/2014  19:43:00     -213.865      -70.976        1.496      104.608       89.109       55.146    10942.876     7940.495     3041.116        3.635        1.096      225.335       55.840        0.061      349.335       29.685      862.497
07/26/2014  19:44:00     -260.144     -111.215        2.550      136.166      107.646       67.010    18541.315    11587.620     4490.365        5.733        1.731      282.920       66.996        0.056      349.313       29.644      862.502
07/26/2014  19:45:00     -242.921      -66.531       -4.108      139.790       87.091       58.214    19541.348     7584.768     3388.922        4.698        1.526      251.867       66.455        0.070      349.297       29.619      862.505
07/26/2014  19:46:00     -446.748     -190.870      -23.624      158.572      140.299       81.765    25145.048    19683.801     6685.454       14.403        2.576      485.814       62.464        0.017      349.329       29.673      862.521
07/26/2014  19:47:00     -309.794     -168.689      -11.888      182.847      162.673       83.571    33433.160    26462.651     6984.033        9.571        3.344      352.744       94.521        0.072      349.315       29.649      862.519
07/26/2014  19:48:00     -244.184     -119.703       11.721      147.174      120.514       63.062    21660.154    14523.653     3976.849        5.712        2.008      271.947       67.787        0.062      349.271       29.575      862.517
07/26/2014  19:49:00     -234.021      -62.040       -4.379      159.850       97.390       69.280    25552.004     9484.783     4799.772        4.923        1.992      242.105       77.085        0.101      349.260       29.556      862.531
07/26/2014  19:50:00     -133.567      -68.416       16.936      108.151       91.818       67.308    11696.545     8430.604     4530.315        2.373        1.233      150.069       53.282        0.126      349.217       29.481      862.551
07/26/2014  19:51:00     -273.485     -145.558       -1.186      139.955      133.593       69.720    19587.444    17847.132     4860.825        6.913        2.115      309.809       62.437        0.041      349.230       29.502      862.557
07/26/2014  19:52:00     -306.516     -133.253       -9.914      130.651      100.836       58.126    17069.610    10167.949     3378.642        7.121        1.531      334.228       58.354        0.030      349.212       29.471      862.575
07/26/2014  19:53:00     -206.798      -52.766        6.953      144.693      104.564       69.434    20936.041    10933.701     4821.127        4.114        1.835      213.424       70.832        0.110      349.174       29.406      862.580
07/26/2014  19:54:00     -225.094     -103.954       -2.236      116.014      103.121       60.987    13459.327    10634.016     3719.470        4.464        1.391      247.939       54.207        0.048      349.179       29.414      862.584
07/26/2014  19:55:00     -205.656      -71.025       -2.880      157.591       93.249       63.421    24834.784     8695.371     4022.190        4.244        1.878      217.575       58.566        0.072      349.133       29.335      862.588
07/26/2014  19:56:00     -363.365     -175.006      -10.120      178.984      159.627       82.627    32035.095    25480.920     6827.298       11.354        3.217      403.313       62.527        0.024      349.158       29.378      862.595
07/26/2014  19:57:00     -326.641      -98.270       -1.180      138.908      104.297       61.023    19295.512    10877.864     3723.804        7.512        1.695      341.103       62.930        0.034      349.096       29.269      862.616
07/26/2014  19:58:00     -221.851      -90.581       10.494      160.466      112.548       70.974    25749.327    12667.118     5037.238        5.048        2.173      239.630       67.383        0.079      349.072       29.229      862.613
07/26/2014  19:59:00     -214.321      -79.080       -0.696      145.341      107.310       66.247    21123.986    11515.416     4388.727        4.460        1.851      228.445       70.251        0.095      349.057       29.202      862.616
07/26/2014  20:00:00     -239.612     -149.738       -3.465      190.320      155.114       74.121    36221.571    24060.374     5493.940        7.280        3.289      282.552       79.898        0.080      349.033       29.161      862.621
07/26/2014  20:01:00     -333.025     -142.988        9.884      193.690      164.961       80.011    37515.632    27212.031     6401.738       10.127        3.556      362.424       83.216        0.053      349.019       29.137      862.634
07/26/2014  20:02:00     -392.378     -159.339      -12.303      138.083      119.549       75.279    19066.988    14292.026     5667.000       10.926        1.951      423.497       62.246        0.022      349.019       29.135      862.669
07/26/2014  20:03:00     -291.270     -143.304      -16.828       99.445      101.934       56.276     9889.407    10390.535     3166.940        6.455        1.172      324.614       35.469        0.012      349.004       29.109      862.687
07/26/2014  20:04:00     -201.856     -111.237       -3.319      134.449      103.670       61.210    18076.461    10747.473     3746.680        4.284        1.629      230.477       57.162        0.062      348.951       29.020      862.705
07/26/2014  20:05:00     -254.542     -106.098        0.630      104.363      112.854       55.108    10891.575    12735.939     3036.922        5.135        1.333      275.769       60.692        0.048      348.925       28.974      862.715
07/26/2014  20:06:00     -189.689     -149.604        3.618      124.988      121.901       82.105    15622.077    14859.733     6741.183        4.779        1.861      241.585       75.928        0.099      348.904       28.939      862.726
07/26/2014  20:07:00     -292.161     -175.837       -6.185      147.586      149.699       70.982    21781.691    22409.920     5038.383        8.276        2.461      340.994       75.632        0.049      348.892       28.917      862.711
07/26/2014  20:08:00     -320.882     -115.011       -9.725      137.677      151.238       63.074    18954.868    22872.986     3978.311        8.104        2.290      340.871       61.995        0.033      348.861       28.863      862.737
07/26/2014  20:09:00     -258.428     -118.721       -8.405      142.681      138.712       66.381    20357.806    19240.994     4406.467        6.247        2.200      284.394       70.973        0.062      348.867       28.874      862.728
07/26/2014  20:10:00     -410.962      -60.324      -12.644      176.079      146.197       80.278    31003.694    21373.562     6444.535       11.574        2.941      415.366       78.229        0.035      348.872       28.882      862.744
07/26/2014  20:11:00     -328.560      -59.962      -12.119      182.107      114.445       73.870    33162.909    13097.692     5456.754        8.170        2.586      333.987       88.058        0.070      348.844       28.833      862.745
07/26/2014  20:12:00     -195.609      -43.555       -6.062       99.791       84.834       59.476     9958.249     7196.883     3537.434        3.044        1.035      200.399       53.719        0.072      348.836       28.820      862.735
07/26/2014  20:13:00     -357.822      -79.713      -17.463      149.875      126.688       65.350    22462.400    16049.854     4270.658        8.873        2.139      366.594       71.081        0.038      348.862       28.864      862.739
07/26/2014  20:14:00     -284.438      -52.658      -13.732      165.285      108.304       68.003    27319.224    11729.862     4624.413        6.376        2.184      289.272       74.935        0.067      348.850       28.844      862.746
07/26/2014  20:15:00     -153.354      -59.100       11.451      180.435      104.086       66.487    32556.778    10833.878     4420.569        3.747        2.391      164.348       73.797        0.202      348.778       28.720      862.759
07/26/2014  20:16:00     -304.919     -152.983       -8.395      131.134      123.584       58.045    17196.123    15273.059     3369.200        7.614        1.792      341.144       58.745        0.030      348.776       28.714      862.769
07/26/2014  20:17:00     -307.824      -65.129       -8.408      163.127      116.509       69.072    26610.316    13574.441     4770.922        7.200        2.248      314.638       79.726        0.064      348.766       28.698      862.771
07/26/2014  20:18:00     -172.724      -11.226       -1.830      124.586       95.237       56.751    15521.706     9070.110     3220.719        2.888        1.391      173.088       53.152        0.094      348.756       28.681      862.778
07/26/2014  20:19:00     -231.390      -66.647      -11.836      110.705       81.932       53.541    12255.508     6712.819     2866.598        3.997        1.092      240.797       57.857        0.058      348.724       28.626      862.780
07/26/2014  20:20:00     -249.709     -110.905      -11.578      152.998      115.274       55.089    23408.486    13287.983     3034.746        5.725        1.987      273.230       64.400        0.056      348.708       28.599      862.788
07/26/2014  20:21:00     -251.239      -65.292       -2.690      150.407      122.486       59.066    22622.141    15002.926     3488.792        5.424        2.056      259.584       69.151        0.071      348.648       28.496      862.792
07/26/2014  20:22:00     -230.350     -103.338       -0.067      124.818      120.103       60.650    15579.581    14424.673     3678.475        4.870        1.684      252.467       61.533        0.059      348.648       28.494      862.799
07/26/2014  20:23:00     -308.601     -196.906       -4.581      148.757      140.517       80.973    22128.654    19745.167     6556.626        9.122        2.422      366.070       82.843        0.051      348.662       28.518      862.787
07/26/2014  20:24:00     -278.718      -68.651       -3.288      161.969      111.276       61.157    26234.118    12382.421     3740.166        6.237        2.118      287.048       60.257        0.044      348.617       28.441      862.795
07/26/2014  20:25:00     -285.462      -83.434       -0.902      144.970       92.719       65.311    21016.168     8596.732     4265.466        6.116        1.694      297.405       66.105        0.049      348.582       28.380      862.802
07/26/2014  20:26:00     -112.269      -51.576        8.012       87.440       70.793       43.804     7645.671     5011.639     1918.814        1.495        0.729      123.549       41.771        0.114      348.558       28.340      862.806
07/26/2014  20:27:00     -259.533     -185.979        7.766      189.539      146.687       87.861    35924.910    21517.018     7719.577        8.357        3.258      319.289       91.957        0.083      348.529       28.287      862.789
07/26/2014  20:28:00     -149.244      -69.723       29.855      157.026      129.939       89.328    24657.157    16884.250     7979.522        3.876        2.476      164.727       93.084        0.319      348.548       28.321      862.796
07/26/2014  20:29:00     -240.162     -121.301       11.530      173.915      116.678       71.574    30246.504    13613.840     5122.858        6.074        2.449      269.057       89.683        0.111      348.548       28.320      862.805
07/26/2014  20:30:00     -271.444     -109.528        8.490      182.840      131.455       70.931    33430.443    17280.436     5031.170        7.074        2.787      292.708       82.818        0.080      348.538       28.305      862.811
07/26/2014  20:31:00     -275.230     -106.065       -4.759      162.162      128.585       71.841    26296.401    16534.132     5161.088        6.750        2.400      294.960       76.971        0.068      348.567       28.353      862.805
07/26/2014  20:32:00     -313.840     -121.835       -9.015      136.556      113.759       73.400    18647.581    12941.195     5387.509        7.519        1.849      336.659       71.100        0.045      348.588       28.391      862.800
07/26/2014  20:33:00     -316.943     -106.591        0.369      216.916      149.957       81.255    47052.672    22487.049     6602.341        9.396        3.807      334.387       90.148        0.073      348.577       28.370      862.790
07/26/2014  20:34:00     -289.098     -198.531        8.689      206.290      190.397      102.799    42555.528    36250.851    10567.562       10.620        4.469      350.703      124.229        0.125      348.543       28.312      862.793
07/26/2014  20:35:00     -391.187     -138.142        3.858      199.451      152.119       81.524    39780.697    23140.276     6646.098       12.083        3.478      414.862       89.688        0.047      348.598       28.406      862.812
07/26/2014  20:36:00     -306.648     -203.640       -1.239      169.069      142.813       74.164    28584.203    20395.501     5500.258        9.498        2.724      368.106       81.177        0.049      348.561       28.343      862.827
07/26/2014  20:37:00     -297.088     -107.202       -2.898      164.302      105.993       64.916    26995.248    11234.533     4214.078        7.109        2.122      315.837       67.550        0.046      348.558       28.337      862.859
07/26/2014  20:38:00     -327.702     -110.935      -17.151      216.469      148.220       90.055    46858.919    21969.115     8109.823        9.845        3.847      345.970       98.720        0.081      348.553       28.330      862.864
07/26/2014  20:39:00     -274.338     -175.171       -2.442      151.086      125.567       74.305    22826.963    15766.953     5521.266        7.502        2.206      325.494       73.814        0.051      348.557       28.336      862.879
07/26/2014  20:40:00     -256.726     -114.180       -6.899      153.920      123.255       70.897    23691.442    15191.699     5026.317        6.144        2.195      280.972       73.573        0.069      348.560       28.342      862.897
07/26/2014  20:41:00     -358.554     -194.997      -11.237      157.509      121.855       71.841    24809.060    14848.612     5161.164       10.576        2.241      408.148       70.715        0.030      348.574       28.365      862.907
07/26/2014  20:42:00     -366.525     -135.838       -7.743      194.786      144.203       82.298    37941.469    20794.554     6772.965       10.917        3.275      390.887       93.188        0.057      348.555       28.334      862.917
07/26/2014  20:43:00     -394.613      -50.458      -26.554      160.976      164.907       80.001    25913.289    27194.168     6400.141       10.923        2.975      397.826       74.318        0.035      348.554       28.331      862.942
07/26/2014  20:44:00     -184.922      -78.707       13.707      119.109      147.264       80.054    14187.021    21686.711     6408.665        4.142        2.114      200.974       72.193        0.129      348.510       28.254      862.960
07/26/2014  20:45:00     -245.065     -113.419       11.438      145.935      126.569       74.852    21297.063    16019.700     5602.763        5.798        2.146      270.039       86.615        0.103      348.496       28.229      862.975
07/26/2014  20:46:00     -310.008     -183.685        3.195      165.431      122.299       76.857    27367.354    14956.980     5906.999        8.903        2.412      360.340       73.299        0.041      348.487       28.216      862.995
07/26/2014  20:47:00     -320.346     -136.877       -0.305      228.162      118.762       74.019    52057.709    14104.432     5478.769        9.648        3.582      348.363      101.584        0.085      348.481       28.206      862.990
07/26/2014  20:48:00     -252.046     -182.243       -1.729      175.220      140.167       80.517    30701.931    19646.871     6482.963        7.678        2.842      311.030       93.419        0.090      348.449       28.149      863.012
07/26/2014  20:49:00     -301.471     -146.534      -12.300      139.807      119.852       65.045    19546.125    14364.461     4230.800        7.532        1.907      335.197       73.405        0.048      348.458       28.166      863.030
07/26/2014  20:50:00     -274.089     -143.547        1.351      165.355      143.969       77.583    27342.235    20727.099     6019.110        7.490        2.704      309.403       81.769        0.070      348.414       28.089      863.058
07/26/2014  20:51:00     -274.650     -217.431       -8.021      200.879      151.997       94.932    40352.318    23103.166     9012.179        9.761        3.623      350.298      115.445        0.109      348.453       28.157      863.058
07/26/2014  20:52:00     -394.388     -204.478      -17.340      175.623      151.384       93.766    30843.338    22917.127     8792.032       13.009        3.128      444.245       90.861        0.042      348.444       28.141      863.068
07/26/2014  20:53:00     -359.907     -183.926      -12.643      211.297      156.400       78.266    44646.243    24461.065     6125.527       11.936        3.762      404.180       80.555        0.040      348.414       28.091      863.075
07/26/2014  20:54:00     -355.973     -121.653      -19.004      173.584      125.017       63.851    30131.441    15629.365     4076.962        9.585        2.492      376.187       54.503        0.021      348.405       28.074      863.076
07/26/2014  20:55:00     -201.333     -119.830        4.451      162.529      141.486       84.031    26415.830    20018.425     7061.266        5.419        2.675      234.295       90.779        0.150      348.338       27.958      863.093
07/26/2014  20:56:00     -364.504     -164.972       -4.219      220.759      117.654       80.597    48734.450    13842.459     6495.896       11.457        3.454      400.099       96.983        0.059      348.334       27.951      863.090
07/26/2014  20:57:00     -386.996     -208.532      -15.653      167.269      100.296       79.646    27978.945    10059.340     6343.535       11.893        2.219      439.604       77.677        0.031      348.340       27.960      863.113
07/26/2014  20:58:00     -342.918     -181.418       -8.969      165.856      146.950       87.742    27508.261    21594.438     7698.597       10.368        2.840      387.950       86.011        0.049      348.330       27.942      863.108
07/26/2014  20:59:00     -164.864      -49.993       18.479      137.219      142.931       74.656    18829.117    20429.366     5573.482        3.742        2.242      172.277       69.084        0.161      348.266       27.833      863.124
07/26/2014  21:00:00     -281.816      -64.200       -7.150      154.501      140.551       69.782    23870.688    19754.519     4869.489        6.603        2.425      289.037       57.041        0.039      348.251       27.807      863.146
07/26/2014  21:01:00     -299.473     -130.822       -3.806      171.615      155.295       78.725    29451.775    24116.470     6197.631        8.328        2.988      326.800       82.286        0.063      348.244       27.795      863.152
07/26/2014  21:02:00     -369.979     -172.123      -21.216      116.613      113.131       68.727    13598.532    12798.638     4723.447        9.903        1.556      408.057       57.268        0.020      348.249       27.804      863.178
07/26/2014  21:03:00     -431.343     -118.404      -26.919      147.095      108.638       68.733    21636.989    11802.246     4724.211       11.947        1.908      447.299       65.752        0.022      348.217       27.748      863.197
07/26/2014  21:04:00     -327.917      -94.297       -0.838      204.749      104.002       75.840    41922.329    10816.422     5751.731        8.744        2.925      341.206       91.245        0.072      348.172       27.672      863.214
07/26/2014  21:05:00     -291.195     -108.132      -15.010      181.014      110.694       77.575    32766.055    12253.127     6017.871        7.386        2.552      310.624       91.159        0.086      348.155       27.642      863.223
07/26/2014  21:06:00     -249.239      -82.621      -15.333      179.804       92.477       72.030    32329.480     8551.957     5188.254        5.762        2.303      262.576       83.633        0.101      348.147       27.627      863.250
07/26/2014  21:07:00     -378.111     -110.085      -16.852      137.628      144.507       79.963    18941.481    20882.378     6394.002       10.079        2.311      393.810       67.654        0.030      348.129       27.597      863.265
07/26/2014  21:08:00     -204.545      -36.601        0.060      115.409       92.406       51.846    13319.160     8538.928     2688.046        3.386        1.227      207.794       54.225        0.068      348.088       27.526      863.298
07/26/2014  21:09:00     -459.817       -2.947      -39.342      151.561      103.829       62.064    22970.748    10780.452     3851.998       12.529        1.880      459.826       66.801        0.021      348.149       27.631      863.321
07/26/2014  21:10:00     -212.360      -78.923       15.173      154.820      129.281       72.315    23969.101    16713.486     5229.512        4.872        2.296      226.551       91.838        0.164      348.081       27.514      863.330
07/26/2014  21:11:00     -261.097      -86.210       -8.733      174.043      130.848       60.719    30291.102    17121.252     3686.819        6.338        2.555      274.962       72.709        0.070      348.073       27.499      863.345
07/26/2014  21:12:00     -256.096     -106.872        7.389      201.838      130.862       58.721    40738.715    17124.936     3448.214        6.917        3.066      277.501       79.899        0.083      348.040       27.442      863.354
07/26/2014  21:13:00     -196.561      -86.747      -11.864       72.222      108.627       44.231     5216.050    11799.723     1956.339        3.263        0.949      214.851       23.463        0.012      348.079       27.511      863.374
07/26/2014  21:14:00     -212.501      -64.828       -5.043      154.282       94.283       71.136    23802.817     8889.336     5060.284        4.356        1.888      222.170       58.481        0.069      348.042       27.446      863.367
07/26/2014  21:15:00     -226.122      -93.735      -17.907      125.025      108.686       65.459    15631.137    11812.682     4284.897        4.598        1.586      244.780       64.777        0.070      348.094       27.534      863.376
07/26/2014  21:16:00     -227.004      -21.505       -1.460      121.663       88.507       54.573    14801.969     7833.565     2978.245        3.880        1.281      228.020       66.230        0.084      348.041       27.445      863.393
07/26/2014  21:17:00     -120.314      -49.806       17.968      142.276       91.964       61.134    20242.552     8457.421     3737.348        2.485        1.622      130.215       65.325        0.252      347.987       27.352      863.390
07/26/2014  21:18:00     -248.278      -18.653      -17.576      105.702       90.298       51.961    11173.014     8153.685     2699.957        4.216        1.101      248.978       57.715        0.054      348.067       27.489      863.402
07/26/2014  21:19:00     -246.856      -50.236       -5.098      114.292      108.342       50.830    13062.762    11737.962     2583.714        4.543        1.369      251.916       52.918        0.044      348.034       27.432      863.400
07/26/2014  21:20:00     -316.643      -26.083      -29.294      116.864       97.021       53.399    13657.271     9413.089     2851.484        6.386        1.296      317.716       38.523        0.015      348.039       27.441      863.416
07/26/2014  21:21:00     -245.447      -41.683       -2.809      148.211       74.574       47.356    21966.642     5561.307     2242.620        4.587        1.489      248.961       62.158        0.062      347.992       27.360      863.446
07/26/2014  21:22:00     -312.924      -57.360      -17.428      132.093      123.544       67.609    17448.662    15263.235     4570.927        6.939        1.864      318.138       70.842        0.050      348.012       27.396      863.435
07/26/2014  21:23:00     -275.281     -117.235        5.275      156.820       88.609       65.412    24592.466     7851.489     4278.693        6.313        1.836      299.205       65.909        0.049      347.978       27.336      863.458
07/26/2014  21:24:00     -330.068     -147.597       -7.616      149.789      101.797       69.817    22436.801    10362.697     4874.379        8.422        1.884      361.566       70.525        0.038      348.012       27.394      863.478
07/26/2014  21:25:00     -230.834     -119.066        3.344      104.654      112.640       56.028    10952.480    12687.853     3139.123        4.712        1.339      259.732       56.239        0.047      347.974       27.327      863.490
07/26/2014  21:26:00     -145.260      -88.655       10.266      152.375       99.133       66.270    23218.089     9827.324     4391.761        3.324        1.872      170.177       81.433        0.229      347.946       27.281      863.496
07/26/2014  21:27:00     -160.555      -41.451        3.287      116.724      111.244       71.659    13624.550    12375.212     5135.082        2.931        1.557      165.819       65.431        0.156      347.973       27.328      863.505
07/26/2014  21:28:00     -130.277      -41.073       20.574      151.033       88.324       56.249    22811.081     7801.195     3163.898        2.642        1.689      136.598       66.193        0.235      347.941       27.276      863.541
07/26/2014  21:29:00     -262.563      -77.416        6.918      165.126      114.016       70.696    27266.444    12999.677     4997.957        6.011        2.263      273.738       76.532        0.078      347.971       27.325      863.566
07/26/2014  21:30:00     -195.135      -52.503       -6.055      120.592       66.712       50.891    14542.523     4450.499     2589.876        3.122        1.079      202.074       56.942        0.079      347.975       27.333      863.577
07/26/2014  21:31:00     -298.212     -136.617        1.903      160.634      122.918       64.628    25803.176    15108.800     4176.785        7.633        2.254      328.016       73.624        0.050      348.016       27.401      863.584
07/26/2014  21:32:00     -252.294      -72.945        1.927      171.814      102.304       77.352    29520.009    10466.070     5983.307        5.746        2.298      262.627       83.841        0.102      348.005       27.382      863.596
07/26/2014  21:33:00     -191.753      -87.071       -6.082       95.225       74.660       49.960     9067.813     5574.189     2495.981        3.076        0.857      210.596       47.522        0.051      347.944       27.279      863.616
07/26/2014  21:34:00     -155.633     -106.592        6.651      149.333       94.944       52.446    22300.255     9014.317     2750.576        3.484        1.703      188.636       65.600        0.121      347.930       27.253      863.626
07/26/2014  21:35:00     -207.304     -163.809       -5.806      143.795      110.885       61.809    20677.081    12295.486     3820.413        5.331        1.840      264.212       49.876        0.036      347.918       27.233      863.622
07/26/2014  21:36:00     -245.174     -154.818      -11.495       86.803       74.448       40.100     7534.833     5542.515     1608.039        4.945        0.734      289.964       35.889        0.015      347.932       27.255      863.632
07/26/2014  21:37:00     -306.478     -150.171      -13.593      135.631      110.696       66.357    18395.853    12253.568     4403.230        7.585        1.753      341.292       74.533        0.048      347.913       27.223      863.645
07/26/2014  21:38:00     -295.960     -104.134      -20.382      122.684       97.409       60.754    15051.337     9488.498     3691.055        6.354        1.412      313.746       64.557        0.042      347.928       27.250      863.641
07/26/2014  21:39:00     -255.076      -61.210        4.437      121.303      101.161       56.379    14714.500    10233.610     3178.603        4.847        1.406      262.317       57.322        0.048      347.913       27.223      863.646
07/26/2014  21:40:00     -349.494     -129.260        3.951      127.647      120.749       70.793    16293.650    14580.416     5011.716        8.737        1.794      372.632       74.690        0.040      347.919       27.233      863.627
07/26/2014  21:41:00     -313.835      -31.391      -25.643       90.971       94.051       53.697     8275.634     8845.653     2883.372        6.007        1.000      315.401       40.807        0.017      347.914       27.224      863.630
07/26/2014  21:42:00     -212.380     -119.921       -4.841      148.584      101.530       62.932    22077.267    10308.442     3960.478        4.792        1.817      243.898       71.764        0.087      347.896       27.194      863.637
07/26/2014  21:43:00     -103.236      -10.239        4.398      119.010       78.104       60.944    14163.397     6100.249     3714.229        1.738        1.199      103.742       67.556        0.424      347.810       27.046      863.632
07/26/2014  21:44:00     -262.846      -94.799       -4.923      138.632      105.861       64.998    19218.868    11206.579     4224.767        5.637        1.733      279.419       61.037        0.048      347.888       27.180      863.640
07/26/2014  21:45:00     -373.104      -47.668      -36.482      157.811      122.968       58.259    24904.277    15121.085     3394.083        9.311        2.171      376.136       61.464        0.027      347.914       27.224      863.647
07/26/2014  21:46:00     -269.175       15.249       -9.023      146.347       91.229       60.539    21417.333     8322.702     3664.922        5.308        1.670      269.606       63.312        0.055      347.856       27.126      863.643
07/26/2014  21:47:00     -275.557      -70.792      -13.353      137.580      111.626       52.707    18928.363    12460.253     2777.996        5.764        1.708      284.506       61.813        0.047      347.857       27.127      863.655
07/26/2014  21:48:00     -285.216      -12.422       -6.125      103.664       88.197       64.935    10746.212     7778.651     4216.501        5.214        1.137      285.487       64.879        0.052      347.823       27.067      863.678
07/26/2014  21:49:00     -183.902      -69.120        3.606      119.224       92.730       51.783    14214.480     8598.825     2681.529        3.205        1.275      196.463       52.334        0.071      347.836       27.093      863.675
07/26/2014  21:50:00     -203.901      -51.502       -8.488      115.670       70.180       47.094    13379.536     4925.261     2217.849        3.241        1.026      210.305       56.975        0.073      347.842       27.101      863.680
07/26/2014  21:51:00     -242.988      -87.525       -0.909      120.567       97.632       47.688    14536.344     9531.930     2274.167        4.652        1.317      258.271       48.248        0.035      347.839       27.096      863.670
07/26/2014  21:52:00     -273.819      -44.014      -11.495      143.495       95.693       57.114    20590.693     9157.211     3262.019        5.502        1.650      277.334       68.507        0.061      347.854       27.122      863.676
07/26/2014  21:53:00     -252.671      -85.651        4.960      209.826      113.316       69.575    44027.110    12840.494     4840.645        6.644        3.085      266.793       87.874        0.108      347.792       27.016      863.679
07/26/2014  21:54:00     -276.442      -28.344      -10.629      126.400      164.028       58.303    15976.875    26905.298     3399.210        6.180        2.314      277.891       61.507        0.049      347.898       27.197      863.688
07/26/2014  21:55:00     -136.120      -87.132        3.317      108.749      101.744       56.882    11826.448    10351.749     3235.539        2.577        1.271      161.619       51.773        0.103      347.840       27.099      863.678
07/26/2014  21:56:00     -144.444       -9.154        0.518      105.848       93.148       43.627    11203.754     8676.457     1903.303        2.136        1.089      144.734       43.326        0.090      347.813       27.052      863.667
07/26/2014  21:57:00     -272.996      -62.002       -8.272      121.086      102.337       56.489    14661.848    10472.769     3190.966        5.338        1.416      279.948       58.728        0.044      347.825       27.071      863.683
07/26/2014  21:58:00     -229.649      -89.582        2.965      154.227      124.870       61.530    23785.904    15592.641     3785.921        5.196        2.158      246.503       59.363        0.058      347.830       27.082      863.681
07/26/2014  21:59:00     -412.435      -71.004      -22.444      171.357      150.302       69.629    29363.298    22590.617     4848.243       11.621        2.840      418.502       66.519        0.025      347.864       27.139      863.669
07/26/2014  22:00:00     -305.943      -91.260       -7.914      153.239      116.790       68.053    23482.178    13639.850     4631.199        7.186        2.088      319.264       76.891        0.058      347.833       27.084      863.719
07/26/2014  22:01:00     -327.681     -104.831      -17.352      119.293       97.478       57.619    14230.841     9501.905     3319.932        7.285        1.353      344.041       53.093        0.024      347.868       27.146      863.734
07/26/2014  22:02:00     -346.966      -69.987       -2.818      109.548      107.590       58.614    12000.831    11575.693     3435.632        7.615        1.351      353.954       58.809        0.028      347.863       27.136      863.726
07/26/2014  22:03:00     -276.909      -54.263      -21.396       99.709       96.193       47.462     9941.828     9253.007     2252.677        5.076        1.072      282.176       33.620        0.014      347.875       27.157      863.734
07/26/2014  22:04:00     -248.839      -90.952       -0.158      131.790      143.957       65.124    17368.526    20723.602     4241.163        5.625        2.117      264.940       60.959        0.053      347.795       27.021      863.755
07/26/2014  22:05:00     -172.771      -48.449       13.153      160.166      103.145       68.118    25653.233    10638.961     4640.087        3.664        2.047      179.436       87.660        0.239      347.736       26.919      863.752
07/26/2014  22:06:00     -317.285        4.227      -34.300      181.008       81.817       55.212    32763.984     6694.002     3048.360        7.218        2.125      317.313       66.980        0.045      347.807       27.040      863.774
07/26/2014  22:07:00     -255.957      -77.087      -15.737      118.255       90.180       48.456    13984.138     8132.346     2347.943        4.808        1.223      267.313       48.211        0.033      347.793       27.015      863.785
07/26/2014  22:08:00     -143.609     -154.061       12.677      119.217      132.978       82.710    14212.791    17683.061     6840.964        4.162        1.937      210.614       83.118        0.156      347.804       27.036      863.784
07/26/2014  22:09:00     -202.935     -165.303      -20.753      113.289       85.932       45.748    12834.305     7384.253     2092.917        4.562        1.116      261.740       44.212        0.029      347.811       27.047      863.793
07/26/2014  22:10:00     -279.497     -135.965      -19.607      150.064      127.401       69.268    22519.167    16231.131     4798.017        7.026        2.177      310.814       71.895        0.054      347.844       27.103      863.810
07/26/2014  22:11:00     -260.232      -72.941        0.228      174.642      121.531       75.795    30499.907    14769.780     5744.916        6.202        2.551      270.261       90.807        0.113      347.800       27.028      863.808
07/26/2014  22:12:00     -166.338     -117.199       10.015      103.662      105.527       60.775    10745.891    11136.044     3693.605        3.353        1.279      203.480       66.026        0.105      347.744       26.932      863.825
07/26/2014  22:13:00     -176.663     -103.604        9.380      146.056       90.144       62.825    21332.228     8125.961     3947.001        3.771        1.670      204.801       65.435        0.102      347.781       26.996      863.834
07/26/2014  22:14:00     -327.019      -50.095      -18.581      137.302      130.850       57.455    18851.901    17121.770     3301.130        7.453        1.964      330.833       62.273        0.035      347.839       27.095      863.847
07/26/2014  22:15:00     -191.260      -87.973       -4.730      165.027       98.284       58.895    27234.041     9659.676     3468.603        4.234        2.018      210.522       77.439        0.135      347.729       26.906      863.847
07/26/2014  22:16:00     -173.890      -81.150        8.899      144.699       94.706       80.171    20937.756     8969.284     6427.398        3.661        1.817      191.894       94.962        0.245      347.767       26.971      863.858
07/26/2014  22:17:00     -168.385      -23.092       -6.572       78.844       68.901       47.760     6216.410     4747.333     2281.050        2.108        0.662      169.961       48.470        0.081      347.760       26.961      863.870
07/26/2014  22:18:00     -203.284      -49.759      -16.859       91.031       75.481       43.438     8286.721     5697.445     1886.823        2.997        0.794      209.286       45.034        0.046      347.814       27.053      863.855
07/26/2014  22:19:00     -155.469      -52.797       -0.417       83.152       71.745       39.948     6914.223     5147.416     1595.872        2.031        0.683      164.189       39.482        0.058      347.771       26.979      863.860
07/26/2014  22:20:00     -177.587      -86.882       -6.562      129.188       69.250       46.672    16689.583     4795.539     2178.315        3.139        1.183      197.701       56.193        0.081      347.783       27.000      863.884
07/26/2014  22:21:00     -213.745      -96.979      -11.222      115.367       68.858       53.297    13309.462     4741.356     2840.525        3.805        1.045      234.716       65.405        0.078      347.779       26.992      863.901
07/26/2014  22:22:00     -240.578     -152.529       -9.586       98.962      104.438       56.886     9793.399    10907.376     3236.066        5.258        1.197      284.856       46.273        0.026      347.830       27.079      863.901
07/26/2014  22:23:00     -195.741     -116.622        5.506      137.843       99.767       60.140    19000.782     9953.413     3616.837        4.225        1.629      227.849       72.507        0.101      347.846       27.107      863.912
07/26/2014  22:24:00     -109.582      -91.018       28.247      139.879      139.669       75.126    19566.204    19507.436     5643.936        3.290        2.236      142.452       91.818        0.415      347.805       27.039      863.926
07/26/2014  22:25:00     -134.962      -67.445       -6.022      100.380       60.771       35.560    10076.113     3693.149     1264.528        1.891        0.752      150.876       34.504        0.052      347.852       27.120      863.949
07/26/2014  22:26:00     -186.900      -90.223        3.421      101.684      101.101       52.398    10339.614    10221.325     2745.572        3.319        1.165      207.538       44.435        0.046      347.882       27.170      863.943
07/26/2014  22:27:00     -123.079      -56.841       -4.545       60.634       33.649       33.720     3676.453     1132.267     1137.072        1.217        0.297      135.570       36.666        0.073      347.835       27.091      863.959
07/26/2014  22:28:00      -94.838      -10.938       -1.986       59.894       52.982       21.895     3587.336     2807.124      479.391        0.799        0.344       95.467       23.739        0.062      347.752       26.950      863.988
07/26/2014  22:29:00      -83.438      -22.825       -3.046       35.921       70.246       30.463     1290.295     4934.435      928.021        0.732        0.358       86.504       25.058        0.084      347.769       26.978      863.987
07/26/2014  22:30:00      -74.737      -45.161       -3.611       52.318       42.191       26.700     2737.148     1780.058      712.898        0.643        0.262       87.322       13.680        0.025      347.808       27.045      863.979
07/26/2014  22:31:00     -161.986      -34.622      -17.314       55.198       45.259       27.075     3046.834     2048.387      733.042        1.678        0.291      165.645       19.004        0.013      347.787       27.008      863.993
07/26/2014  22:32:00      -88.260       22.187       -9.431       37.566       20.811       18.302     1411.214      433.102      334.981        0.527        0.109       91.006       20.008        0.048      347.726       26.904      864.014
07/26/2014  22:33:00      -81.165       60.822      -16.454       36.040       27.904       19.470     1298.891      778.611      379.092        0.651        0.123      101.425       21.908        0.047      347.769       26.979      864.022
07/26/2014  22:34:00      -51.083       30.838       -2.519       26.921       24.842       17.870      724.734      617.136      319.329        0.261        0.083       59.669       11.797        0.039      347.632       26.741      864.023
07/26/2014  22:35:00      -89.387       -0.551      -13.197       27.904       49.398       18.991      778.613     2440.114      360.648        0.587        0.179       89.389       18.197        0.041      347.694       26.851      864.019
07/26/2014  22:36:00     -118.725       36.316       -5.852       70.529       24.636       27.640     4974.312      606.938      763.986        1.090        0.317      124.155       29.778        0.058      347.761       26.963      864.025
07/26/2014  22:37:00      -78.381       90.890       -8.801       34.310       55.797       31.513     1177.178     3113.346      993.072        0.988        0.264      120.019       24.715        0.042      347.631       26.741      864.024
07/26/2014  22:38:00      -71.349       84.659      -13.469       32.421       39.275       18.999     1051.120     1542.556      360.964        0.770        0.148      110.715       15.523        0.020      347.618       26.719      864.012
07/26/2014  22:39:00     -135.858       89.276      -28.241       59.906       42.355       29.383     3588.697     1793.948      863.354        1.673        0.312      162.566       28.950        0.032      347.832       27.086      863.994
07/26/2014  22:40:00     -131.408       55.664      -19.464       44.444       28.630       23.155     1975.232      819.650      536.168        1.204        0.167      142.711       19.907        0.019      347.896       27.198      863.989
07/26/2014  22:41:00     -114.466       86.012      -28.392       49.417       57.258       35.686     2442.075     3278.457     1273.458        1.415        0.350      143.181       26.920        0.035      347.864       27.140      863.995
07/26/2014  22:42:00     -101.191       84.530      -14.885       35.290       40.863       25.724     1245.383     1669.799      661.726        1.059        0.179      131.852       22.253        0.028      347.753       26.950      863.999
07/26/2014  22:43:00     -113.889      106.280      -28.151       42.122       57.717       28.851     1774.278     3331.306      832.385        1.550        0.297      155.776       30.357        0.038      347.906       27.213      864.012
07/26/2014  22:44:00     -145.026      113.498      -33.660       42.716       58.176       28.034     1824.686     3384.425      785.912        2.052        0.300      184.159       28.698        0.024      347.930       27.255      864.012
07/26/2014  22:45:00     -110.516       89.364      -22.541       54.544       48.349       23.127     2974.999     2337.663      534.865        1.328        0.292      142.126       21.324        0.023      347.870       27.152      864.012
07/26/2014  22:46:00      -59.221      203.312      -19.649       65.951       79.589       33.569     4349.582     6334.439     1126.876        2.852        0.591      211.762       37.158        0.031      347.992       27.360      864.002
07/26/2014  22:47:00      -46.854      212.217      -34.303       48.693       72.116       25.107     2371.051     5200.735      630.350        2.830        0.410      217.328       30.677        0.020      348.049       27.459      864.006
07/26/2014  22:48:00      -63.894      111.315      -15.447       43.703       36.073       29.177     1909.988     1301.232      851.269        1.039        0.203      128.349       24.096        0.035      348.004       27.384      864.028
07/26/2014  22:49:00      -35.460       95.420      -20.076       28.518       67.123       19.428      813.300     4505.452      377.442        0.823        0.285      101.796       20.412        0.040      347.952       27.292      864.037
07/26/2014  22:50:00      -23.071      159.250      -26.097       29.670       45.967       23.193      880.296     2113.010      537.921        1.505        0.177      160.912       23.836        0.022      347.929       27.253      864.054
07/26/2014  22:51:00      -79.228       59.817      -18.722       35.726       71.052       24.613     1276.382     5048.449      605.816        0.857        0.347       99.273       25.112        0.064      347.816       27.060      864.064
07/26/2014  22:52:00     -116.369       -7.728       -4.293       56.582       46.010       30.235     3201.474     2116.945      914.178        0.993        0.312      116.626       26.648        0.052      347.802       27.036      864.069
07/26/2014  22:53:00     -112.244       28.819       -8.196       24.468       32.209       22.615      598.678     1037.403      511.454        0.782        0.107      115.885       11.158        0.009      347.935       27.263      864.092
07/26/2014  22:54:00     -179.848       78.448      -19.837       46.167       37.557       28.767     2131.392     1410.517      827.567        2.163        0.218      196.213       22.797        0.013      347.972       27.328      864.118
07/26/2014  22:55:00     -167.515       -4.337      -13.840       42.700       65.741       31.517     1823.260     4321.884      993.332        1.770        0.357      167.572       26.933        0.026      347.906       27.213      864.118
07/26/2014  22:56:00     -114.464       21.204       -8.023       47.808       66.969       26.381     2285.621     4484.844      695.966        1.054        0.373      116.412       27.022        0.054      347.964       27.314      864.111
07/26/2014  22:57:00     -104.764       74.477      -14.076       63.645       64.102       32.082     4050.656     4109.114     1029.234        1.295        0.459      128.539       19.089        0.022      347.976       27.336      864.106
07/26/2014  22:58:00     -134.169       93.521      -25.281       99.498       89.592       53.671     9899.911     8026.660     2880.570        2.409        1.040      163.546       42.646        0.068      348.119       27.578      864.087
07/26/2014  22:59:00     -174.058       94.480      -23.889       68.028       84.278       40.130     4627.759     7102.850     1610.406        2.656        0.667      198.047       35.182        0.032      348.077       27.507      864.077
07/26/2014  23:00:00     -165.173      157.818      -27.695       95.441       72.980       53.967     9108.945     5326.110     2912.432        3.515        0.867      228.448       48.915        0.046      348.155       27.641      864.098
07/26/2014  23:01:00     -193.591       -2.467      -13.871      133.194       96.821       47.292    17740.762     9374.210     2236.573        3.351        1.468      193.607       48.029        0.062      348.055       27.469      864.072
07/26/2014  23:02:00     -352.475      -91.654       -6.852      142.165      107.104       63.590    20210.893    11471.346     4043.711        8.420        1.786      364.197       70.362        0.037      348.146       27.625      864.074
07/26/2014  23:03:00     -239.139      106.531      -23.639      101.952      101.549       52.739    10394.138    10312.131     2781.372        4.629        1.174      261.795       57.610        0.048      348.246       27.797      864.085
07/26/2014  23:04:00     -208.211       94.389      -38.409       34.155       65.634       30.202     1166.542     4307.766      912.189        3.006        0.319      228.607       29.410        0.017      348.281       27.859      864.063
07/26/2014  23:05:00      -35.801       15.099       -3.817       76.978       38.910       33.544     5925.631     1513.969     1125.228        0.504        0.428       38.855       44.475        1.310      348.257       27.821      864.033
07/26/2014  23:06:00     -159.862      -81.265        9.242      136.907       78.629       36.714    18743.497     6182.451     1347.903        2.925        1.314      179.331       51.950        0.084      348.046       27.455      864.023
07/26/2014  23:07:00     -213.578      -98.624      -15.038       78.211       76.167       37.317     6116.935     5801.338     1392.584        3.444        0.666      235.249       18.553        0.006      347.621       26.719      864.065
07/26/2014  23:08:00     -172.536      -81.599       -4.795       78.485       60.712       40.050     6159.843     3685.886     1603.983        2.395        0.572      190.859       34.479        0.033      347.666       26.798      864.066
07/26/2014  23:09:00     -141.901     -118.888        9.795       97.345       84.766       49.407     9476.026     7185.255     2441.090        2.673        0.955      185.122       48.406        0.068      348.011       27.394      864.035
07/26/2014  23:10:00     -205.687     -123.976      -13.988      124.812       94.565       63.826    15577.946     8942.501     4073.729        4.323        1.430      240.161       50.378        0.044      348.114       27.570      863.988
07/26/2014  23:11:00     -101.057      -72.133       27.077      123.030      101.758       53.206    15136.301    10354.765     2830.892        2.223        1.416      124.160       62.579        0.254      347.966       27.317      863.985
07/26/2014  23:12:00      -71.367       -1.616       -3.093       44.409       49.680       32.394     1972.189     2468.136     1049.389        0.530        0.274       71.385       23.416        0.108      347.858       27.131      864.031
07/26/2014  23:13:00      -26.407       14.451        2.797       33.854       21.718       18.238     1146.067      471.653      332.640        0.143        0.098       30.102       18.305        0.370      347.732       26.914      864.041
07/26/2014  23:14:00       -6.150      -32.508        4.159       47.617       31.007       34.921     2267.342      961.413     1219.454        0.278        0.222       33.085       26.039        0.619      347.803       27.037      864.039
07/26/2014  23:15:00      -67.001      -44.768       11.832       64.865       45.130       32.290     4207.423     2036.724     1042.644        0.696        0.364       80.581       30.942        0.147      347.942       27.276      864.024
07/26/2014  23:16:00      -46.180      -14.694       11.612       71.478       34.534       29.833     5109.155     1192.574      889.996        0.484        0.360       48.461       25.362        0.274      347.832       27.087      864.013
07/26/2014  23:17:00     -154.819      -20.374      -10.422       79.551       41.144       34.159     6328.306     1692.830     1166.846        1.684        0.459      156.154       36.465        0.055      347.845       27.110      864.018
07/26/2014  23:18:00     -128.890      -16.809       -6.012       74.719       42.453       28.587     5582.873     1802.233      817.217        1.257        0.410      129.982       33.273        0.066      347.513       26.536      864.026
07/26/2014  23:19:00     -130.225       22.834      -13.403       39.119       45.279       22.494     1530.281     2050.195      505.998        1.087        0.204      132.212       16.366        0.015      347.428       26.391      864.037
07/26/2014  23:20:00     -114.228       46.643      -19.631       32.201       27.007       18.643     1036.903      729.392      347.570        0.886        0.106      123.384       18.986        0.024      347.297       26.163      864.049
07/26/2014  23:21:00      -74.126       17.752       -5.239       26.569       25.846       13.982      705.896      668.036      195.485        0.370        0.078       76.222       15.552        0.042      347.245       26.073      864.060
07/26/2014  23:22:00      -44.977      -15.495       -3.788       20.130       11.522       10.579      405.216      132.765      111.905        0.146        0.032       47.571        7.181        0.023      347.165       25.936      864.058
07/26/2014  23:23:00      -51.191      -21.711       -3.727       37.954       12.669        8.899     1440.508      160.494       79.189        0.239        0.084       55.604        4.840        0.008      347.085       25.798      864.045
07/26/2014  23:24:00     -128.762      -65.685       -6.195       31.767       29.992       15.008     1009.164      899.547      225.241        1.153        0.107      144.548       11.930        0.007      346.832       25.363      864.050
07/26/2014  23:25:00     -107.105      -57.739        4.453       34.779       27.661       19.703     1209.591      765.137      388.189        0.859        0.118      121.677       17.627        0.021      346.778       25.270      864.061
07/26/2014  23:26:00      -73.524      -38.467        2.615       28.246       26.604       13.823      797.828      707.797      191.071        0.429        0.085       82.978        4.692        0.003      346.773       25.262      864.065
07/26/2014  23:27:00     -114.504      -42.744      -16.403       20.673       19.283       11.120      427.367      371.830      123.645        0.806        0.046      122.222        6.177        0.003      346.819       25.339      864.060
07/26/2014  23:28:00      -59.335      -35.446      -10.085       30.417       18.859       14.995      925.193      355.660      224.846        0.319        0.075       69.116        7.638        0.012      346.726       25.181      864.044
07/26/2014  23:29:00      -82.755      -30.403       -7.820       30.975       16.412       11.424      959.464      269.345      130.505        0.460        0.068       88.163       11.117        0.016      346.727       25.182      864.012
07/26/2014  23:30:00      -98.549       -7.488      -13.062       23.318       26.368       15.685      543.713      695.287      246.008        0.571        0.074       98.833       12.963        0.017      346.682       25.104      863.987
07/26/2014  23:31:00      -87.242       14.580       -6.824       33.263       24.913       18.198     1106.420      620.664      331.157        0.496        0.103       88.452       14.261        0.026      346.804       25.315      863.973
07/26/2014  23:32:00      -70.552       17.108       -5.308       49.445       50.224       27.809     2444.835     2522.422      773.324        0.552        0.287       72.597       25.999        0.128      347.381       26.309      863.968
07/26/2014  23:33:00     -180.989      -64.220       -7.419       41.130       52.555       21.113     1691.677     2761.992      445.771        2.092        0.245      192.045       14.055        0.005      346.882       25.448      863.971
07/26/2014  23:34:00     -140.247      -66.592        1.836       45.657       31.004       20.744     2084.561      961.276      430.309        1.379        0.174      155.254       20.252        0.017      346.950       25.565      863.961
07/26/2014  23:35:00     -150.159      -24.365        1.449       61.848       51.676       26.261     3825.142     2670.379      689.623        1.516        0.359      152.123       27.763        0.033      346.808       25.323      863.960
07/26/2014  23:36:00     -143.998      -58.918        1.909       59.704       48.510       26.677     3564.539     2353.218      711.643        1.542        0.331      155.585       21.337        0.019      346.713       25.158      863.972
07/26/2014  23:37:00      -82.698      -41.562        7.181       37.429       27.257       20.255     1400.957      742.920      410.275        0.559        0.128       92.554       20.846        0.051      346.909       25.495      863.970
07/26/2014  23:38:00      -35.333       -9.542        4.931       19.084       19.856       12.679      364.198      394.262      160.746        0.114        0.046       36.599       10.464        0.082      346.803       25.313      863.966
07/26/2014  23:39:00      -64.180      -14.541       -4.141       13.993       16.926        8.099      195.812      286.482       65.595        0.245        0.027       65.807        7.300        0.012      346.880       25.445      863.974
07/26/2014  23:40:00      -97.047       17.329       -7.595       17.455       18.173        9.903      304.664      330.244       98.078        0.525        0.037       98.582        6.894        0.005      346.784       25.281      864.002
07/26/2014  23:41:00      -97.465       23.619       -6.809       22.861       15.773        8.832      522.618      248.798       78.012        0.548        0.042      100.286        6.322        0.004      346.833       25.364      864.019
07/26/2014  23:42:00      -67.951       -4.504       -3.418       36.440       27.193       15.566     1327.891      739.434      242.302        0.348        0.115       68.100        9.988        0.022      346.686       25.113      864.030
07/26/2014  23:43:00      -75.579      -30.399        5.770       33.800       21.991       14.675     1142.437      483.620      215.348        0.426        0.092       81.464       14.896        0.033      346.676       25.094      864.044
07/26/2014  23:44:00      -86.097      -20.870       -1.910       24.414       19.757       16.006      596.035      390.331      256.208        0.455        0.062       88.591       14.147        0.025      346.768       25.253      864.057
07/26/2014  23:45:00      -98.660      -49.257        2.083       44.354       33.632       17.148     1967.270     1131.097      294.070        0.778        0.170      110.273       10.745        0.009      346.697       25.131      864.058
07/26/2014  23:46:00     -119.454      -61.697       -0.958       43.151       36.551       21.881     1862.013     1335.984      478.760        1.088        0.184      134.447       23.213        0.030      346.835       25.368      864.057
07/26/2014  23:47:00     -170.628      -64.736       -7.896       29.679       34.430       17.993      880.830     1185.452      323.748        1.788        0.120      182.496       15.833        0.008      346.833       25.363      864.071
07/26/2014  23:48:00     -129.839      -55.158       -5.299       27.712       24.287       16.561      767.976      589.842      274.258        1.078        0.082      141.070       14.159        0.010      346.771       25.259      864.083
07/26/2014  23:49:00      -63.943      -18.105        0.310       48.996       20.067       19.182     2400.623      402.701      367.947        0.379        0.159       66.457       26.092        0.154      346.656       25.060      864.081
07/26/2014  23:50:00      -79.832      -63.383        6.405       40.514       28.605       20.588     1641.355      818.247      423.877        0.666        0.144      101.934        5.945        0.003      346.726       25.181      864.081
07/26/2014  23:51:00     -113.339      -52.540        9.929       71.353       36.377       29.752     5091.230     1323.292      885.153        1.150        0.365      124.924       29.143        0.054      346.677       25.096      864.079
07/26/2014  23:52:00     -120.274      -93.402       -4.196      105.447       71.831       39.682    11119.019     5159.751     1574.663        2.053        0.893      152.282       49.918        0.107      346.767       25.250      864.082
07/26/2014  23:53:00     -169.839      -97.938       -8.827       67.957       33.927       28.209     4618.115     1151.016      795.744        2.254        0.328      196.054       28.733        0.021      346.813       25.326      864.074
07/26/2014  23:54:00      -99.266      -81.089       -2.033       38.980       38.351       19.563     1519.437     1470.781      382.692        0.990        0.169      128.176       17.449        0.019      346.717       25.165      864.068
07/26/2014  23:55:00      -86.853      -50.387       -1.799       60.847       33.383       20.886     3702.333     1114.396      436.219        0.767        0.263      100.410       25.852        0.066      346.495       24.783      864.074
07/26/2014  23:56:00     -119.934      -54.830       -0.925       40.875       24.609       20.106     1670.761      605.587      404.270        1.004        0.134      131.873       16.969        0.017      346.588       24.943      864.062
07/26/2014  23:57:00     -169.181      -94.008      -10.213       60.157       48.876       29.122     3618.912     2388.895      848.115        2.221        0.343      193.545       26.081        0.018      346.609       24.977      864.056
07/26/2014  23:58:00     -149.168      -49.843        0.762       40.611       31.638       24.628     1649.221     1000.952      606.527        1.400        0.163      157.275       21.227        0.018      346.450       24.707      864.070
07/26/2014  23:59:00     -151.994      -53.262        0.556       37.862       46.129       23.759     1433.562     2127.852      564.473        1.503        0.206      161.056       20.343        0.016      346.579       24.929      864.084
